<?xml version="1.0" encoding="UTF-8" standalone="no" ?>
<gpx xmlns="http://www.topografix.com/GPX/1/1" xmlns:xsi="http://www.w3.org/2001/XMLSchema-instance" xsi:schemaLocation="http://www.topografix.com/GPX/1/1 http://www.topografix.com/GPX/1/1/gpx.xsd" version="1.1" creator="VisuGPX - https://www.visugpx.com">
  <metadata>
    <name>bonnac extreme 2018</name>
    <desc><![CDATA[rando sympa utilisant des chemins variés avec de beaux points de vue]]></desc>
  </metadata>
  <trk>
    <name><![CDATA[BONNAC2018]]></name>
    <trkseg>
      <trkpt lat="45.9411" lon="1.28243">
        <ele>427</ele>
        <time>2018-06-17T06:18:22.000Z</time>
      </trkpt>
      <trkpt lat="45.94111" lon="1.28248">
        <ele>429</ele>
        <time>2018-06-17T06:22:52.000Z</time>
      </trkpt>
      <trkpt lat="45.94117" lon="1.2825">
        <ele>429</ele>
        <time>2018-06-17T06:23:02.000Z</time>
      </trkpt>
      <trkpt lat="45.94122" lon="1.28247">
        <ele>429</ele>
        <time>2018-06-17T06:23:06.000Z</time>
      </trkpt>
      <trkpt lat="45.94129" lon="1.28239">
        <ele>429</ele>
        <time>2018-06-17T06:23:10.000Z</time>
      </trkpt>
      <trkpt lat="45.94143" lon="1.28239">
        <ele>429</ele>
        <time>2018-06-17T06:23:15.000Z</time>
      </trkpt>
      <trkpt lat="45.9419" lon="1.2824">
        <ele>430</ele>
        <time>2018-06-17T06:23:29.000Z</time>
      </trkpt>
      <trkpt lat="45.94193" lon="1.2824">
        <ele>429</ele>
        <time>2018-06-17T06:23:30.000Z</time>
      </trkpt>
      <trkpt lat="45.94223" lon="1.28243">
        <ele>429</ele>
        <time>2018-06-17T06:23:39.000Z</time>
      </trkpt>
      <trkpt lat="45.9423" lon="1.2825">
        <ele>429</ele>
        <time>2018-06-17T06:23:42.000Z</time>
      </trkpt>
      <trkpt lat="45.94228" lon="1.28262">
        <ele>428</ele>
        <time>2018-06-17T06:23:46.000Z</time>
      </trkpt>
      <trkpt lat="45.94223" lon="1.2828">
        <ele>427</ele>
        <time>2018-06-17T06:23:51.000Z</time>
      </trkpt>
      <trkpt lat="45.9422" lon="1.28287">
        <ele>426</ele>
        <time>2018-06-17T06:23:53.000Z</time>
      </trkpt>
      <trkpt lat="45.94199" lon="1.28346">
        <ele>421</ele>
        <time>2018-06-17T06:24:05.000Z</time>
      </trkpt>
      <trkpt lat="45.94197" lon="1.28352">
        <ele>421</ele>
        <time>2018-06-17T06:24:06.000Z</time>
      </trkpt>
      <trkpt lat="45.94176" lon="1.28413">
        <ele>415</ele>
        <time>2018-06-17T06:24:17.000Z</time>
      </trkpt>
      <trkpt lat="45.94175" lon="1.28417">
        <ele>415</ele>
        <time>2018-06-17T06:24:18.000Z</time>
      </trkpt>
      <trkpt lat="45.94171" lon="1.28426">
        <ele>414</ele>
        <time>2018-06-17T06:24:21.000Z</time>
      </trkpt>
      <trkpt lat="45.94163" lon="1.28421">
        <ele>414</ele>
        <time>2018-06-17T06:24:25.000Z</time>
      </trkpt>
      <trkpt lat="45.94156" lon="1.28413">
        <ele>413</ele>
        <time>2018-06-17T06:24:37.000Z</time>
      </trkpt>
      <trkpt lat="45.94149" lon="1.28412">
        <ele>413</ele>
        <time>2018-06-17T06:24:42.000Z</time>
      </trkpt>
      <trkpt lat="45.9414" lon="1.28411">
        <ele>415</ele>
        <time>2018-06-17T06:25:03.000Z</time>
      </trkpt>
      <trkpt lat="45.9414" lon="1.28412">
        <ele>416</ele>
        <time>2018-06-17T06:35:22.000Z</time>
      </trkpt>
      <trkpt lat="45.94146" lon="1.28413">
        <ele>419</ele>
        <time>2018-06-17T06:37:49.000Z</time>
      </trkpt>
      <trkpt lat="45.9415" lon="1.2841">
        <ele>418</ele>
        <time>2018-06-17T06:38:14.000Z</time>
      </trkpt>
      <trkpt lat="45.94167" lon="1.28427">
        <ele>418</ele>
        <time>2018-06-17T06:38:24.000Z</time>
      </trkpt>
      <trkpt lat="45.94172" lon="1.28425">
        <ele>418</ele>
        <time>2018-06-17T06:38:26.000Z</time>
      </trkpt>
      <trkpt lat="45.94179" lon="1.28409">
        <ele>418</ele>
        <time>2018-06-17T06:38:31.000Z</time>
      </trkpt>
      <trkpt lat="45.94185" lon="1.28391">
        <ele>419</ele>
        <time>2018-06-17T06:38:36.000Z</time>
      </trkpt>
      <trkpt lat="45.94188" lon="1.28384">
        <ele>419</ele>
        <time>2018-06-17T06:38:38.000Z</time>
      </trkpt>
      <trkpt lat="45.94208" lon="1.28323">
        <ele>423</ele>
        <time>2018-06-17T06:38:56.000Z</time>
      </trkpt>
      <trkpt lat="45.94209" lon="1.2832">
        <ele>423</ele>
        <time>2018-06-17T06:38:57.000Z</time>
      </trkpt>
      <trkpt lat="45.94231" lon="1.28258">
        <ele>425</ele>
        <time>2018-06-17T06:39:13.000Z</time>
      </trkpt>
      <trkpt lat="45.94232" lon="1.28254">
        <ele>425</ele>
        <time>2018-06-17T06:39:14.000Z</time>
      </trkpt>
      <trkpt lat="45.94232" lon="1.2825">
        <ele>425</ele>
        <time>2018-06-17T06:39:15.000Z</time>
      </trkpt>
      <trkpt lat="45.94229" lon="1.28243">
        <ele>425</ele>
        <time>2018-06-17T06:39:17.000Z</time>
      </trkpt>
      <trkpt lat="45.94223" lon="1.28239">
        <ele>425</ele>
        <time>2018-06-17T06:39:19.000Z</time>
      </trkpt>
      <trkpt lat="45.94176" lon="1.28235">
        <ele>424</ele>
        <time>2018-06-17T06:39:30.000Z</time>
      </trkpt>
      <trkpt lat="45.94172" lon="1.28235">
        <ele>424</ele>
        <time>2018-06-17T06:39:31.000Z</time>
      </trkpt>
      <trkpt lat="45.94157" lon="1.28234">
        <ele>424</ele>
        <time>2018-06-17T06:39:34.000Z</time>
      </trkpt>
      <trkpt lat="45.94125" lon="1.28237">
        <ele>424</ele>
        <time>2018-06-17T06:39:41.000Z</time>
      </trkpt>
      <trkpt lat="45.94113" lon="1.28244">
        <ele>424</ele>
        <time>2018-06-17T06:39:52.000Z</time>
      </trkpt>
      <trkpt lat="45.9412" lon="1.28244">
        <ele>427</ele>
        <time>2018-06-17T06:45:57.000Z</time>
      </trkpt>
      <trkpt lat="45.94128" lon="1.28236">
        <ele>427</ele>
        <time>2018-06-17T06:46:01.000Z</time>
      </trkpt>
      <trkpt lat="45.94176" lon="1.28237">
        <ele>427</ele>
        <time>2018-06-17T06:46:13.000Z</time>
      </trkpt>
      <trkpt lat="45.94181" lon="1.28237">
        <ele>427</ele>
        <time>2018-06-17T06:46:14.000Z</time>
      </trkpt>
      <trkpt lat="45.94189" lon="1.28238">
        <ele>427</ele>
        <time>2018-06-17T06:46:16.000Z</time>
      </trkpt>
      <trkpt lat="45.94234" lon="1.28241">
        <ele>427</ele>
        <time>2018-06-17T06:46:28.000Z</time>
      </trkpt>
      <trkpt lat="45.94238" lon="1.2824">
        <ele>428</ele>
        <time>2018-06-17T06:46:29.000Z</time>
      </trkpt>
      <trkpt lat="45.94244" lon="1.28234">
        <ele>428</ele>
        <time>2018-06-17T06:46:31.000Z</time>
      </trkpt>
      <trkpt lat="45.94272" lon="1.28177">
        <ele>426</ele>
        <time>2018-06-17T06:46:41.000Z</time>
      </trkpt>
      <trkpt lat="45.94275" lon="1.28171">
        <ele>425</ele>
        <time>2018-06-17T06:46:42.000Z</time>
      </trkpt>
      <trkpt lat="45.94284" lon="1.28147">
        <ele>424</ele>
        <time>2018-06-17T06:46:45.000Z</time>
      </trkpt>
      <trkpt lat="45.943" lon="1.28081">
        <ele>421</ele>
        <time>2018-06-17T06:46:52.000Z</time>
      </trkpt>
      <trkpt lat="45.94301" lon="1.28071">
        <ele>421</ele>
        <time>2018-06-17T06:46:53.000Z</time>
      </trkpt>
      <trkpt lat="45.94303" lon="1.28062">
        <ele>421</ele>
        <time>2018-06-17T06:46:54.000Z</time>
      </trkpt>
      <trkpt lat="45.94305" lon="1.27991">
        <ele>420</ele>
        <time>2018-06-17T06:47:02.000Z</time>
      </trkpt>
      <trkpt lat="45.94305" lon="1.27982">
        <ele>420</ele>
        <time>2018-06-17T06:47:03.000Z</time>
      </trkpt>
      <trkpt lat="45.94304" lon="1.27915">
        <ele>421</ele>
        <time>2018-06-17T06:47:12.000Z</time>
      </trkpt>
      <trkpt lat="45.94302" lon="1.27908">
        <ele>421</ele>
        <time>2018-06-17T06:47:13.000Z</time>
      </trkpt>
      <trkpt lat="45.94296" lon="1.27889">
        <ele>422</ele>
        <time>2018-06-17T06:47:16.000Z</time>
      </trkpt>
      <trkpt lat="45.9428" lon="1.27851">
        <ele>423</ele>
        <time>2018-06-17T06:47:23.000Z</time>
      </trkpt>
      <trkpt lat="45.94268" lon="1.27787">
        <ele>426</ele>
        <time>2018-06-17T06:47:34.000Z</time>
      </trkpt>
      <trkpt lat="45.94268" lon="1.27781">
        <ele>426</ele>
        <time>2018-06-17T06:47:35.000Z</time>
      </trkpt>
      <trkpt lat="45.9427" lon="1.27712">
        <ele>425</ele>
        <time>2018-06-17T06:47:46.000Z</time>
      </trkpt>
      <trkpt lat="45.94269" lon="1.27705">
        <ele>425</ele>
        <time>2018-06-17T06:47:47.000Z</time>
      </trkpt>
      <trkpt lat="45.94262" lon="1.27681">
        <ele>425</ele>
        <time>2018-06-17T06:47:51.000Z</time>
      </trkpt>
      <trkpt lat="45.94245" lon="1.27651">
        <ele>425</ele>
        <time>2018-06-17T06:47:57.000Z</time>
      </trkpt>
      <trkpt lat="45.94208" lon="1.27606">
        <ele>425</ele>
        <time>2018-06-17T06:48:06.000Z</time>
      </trkpt>
      <trkpt lat="45.94205" lon="1.27599">
        <ele>425</ele>
        <time>2018-06-17T06:48:07.000Z</time>
      </trkpt>
      <trkpt lat="45.94201" lon="1.27592">
        <ele>424</ele>
        <time>2018-06-17T06:48:08.000Z</time>
      </trkpt>
      <trkpt lat="45.94196" lon="1.27574">
        <ele>424</ele>
        <time>2018-06-17T06:48:10.000Z</time>
      </trkpt>
      <trkpt lat="45.94188" lon="1.27541">
        <ele>422</ele>
        <time>2018-06-17T06:48:14.000Z</time>
      </trkpt>
      <trkpt lat="45.94168" lon="1.27515">
        <ele>420</ele>
        <time>2018-06-17T06:48:18.000Z</time>
      </trkpt>
      <trkpt lat="45.94162" lon="1.27505">
        <ele>420</ele>
        <time>2018-06-17T06:48:20.000Z</time>
      </trkpt>
      <trkpt lat="45.94164" lon="1.27494">
        <ele>419</ele>
        <time>2018-06-17T06:48:22.000Z</time>
      </trkpt>
      <trkpt lat="45.94172" lon="1.27484">
        <ele>418</ele>
        <time>2018-06-17T06:48:24.000Z</time>
      </trkpt>
      <trkpt lat="45.94215" lon="1.27462">
        <ele>417</ele>
        <time>2018-06-17T06:48:32.000Z</time>
      </trkpt>
      <trkpt lat="45.94218" lon="1.27458">
        <ele>417</ele>
        <time>2018-06-17T06:48:33.000Z</time>
      </trkpt>
      <trkpt lat="45.94224" lon="1.27454">
        <ele>416</ele>
        <time>2018-06-17T06:48:35.000Z</time>
      </trkpt>
      <trkpt lat="45.94233" lon="1.27447">
        <ele>417</ele>
        <time>2018-06-17T06:48:38.000Z</time>
      </trkpt>
      <trkpt lat="45.9425" lon="1.27426">
        <ele>417</ele>
        <time>2018-06-17T06:48:44.000Z</time>
      </trkpt>
      <trkpt lat="45.94252" lon="1.27405">
        <ele>417</ele>
        <time>2018-06-17T06:48:47.000Z</time>
      </trkpt>
      <trkpt lat="45.94244" lon="1.27345">
        <ele>416</ele>
        <time>2018-06-17T06:48:55.000Z</time>
      </trkpt>
      <trkpt lat="45.94245" lon="1.27339">
        <ele>416</ele>
        <time>2018-06-17T06:48:56.000Z</time>
      </trkpt>
      <trkpt lat="45.94248" lon="1.2732">
        <ele>415</ele>
        <time>2018-06-17T06:48:59.000Z</time>
      </trkpt>
      <trkpt lat="45.94265" lon="1.2726">
        <ele>412</ele>
        <time>2018-06-17T06:49:09.000Z</time>
      </trkpt>
      <trkpt lat="45.94267" lon="1.27255">
        <ele>412</ele>
        <time>2018-06-17T06:49:10.000Z</time>
      </trkpt>
      <trkpt lat="45.94268" lon="1.2725">
        <ele>412</ele>
        <time>2018-06-17T06:49:11.000Z</time>
      </trkpt>
      <trkpt lat="45.94271" lon="1.2723">
        <ele>412</ele>
        <time>2018-06-17T06:49:15.000Z</time>
      </trkpt>
      <trkpt lat="45.94273" lon="1.27222">
        <ele>413</ele>
        <time>2018-06-17T06:49:22.000Z</time>
      </trkpt>
      <trkpt lat="45.94268" lon="1.27205">
        <ele>416</ele>
        <time>2018-06-17T06:49:28.000Z</time>
      </trkpt>
      <trkpt lat="45.94258" lon="1.27179">
        <ele>416</ele>
        <time>2018-06-17T06:49:33.000Z</time>
      </trkpt>
      <trkpt lat="45.94251" lon="1.27113">
        <ele>418</ele>
        <time>2018-06-17T06:49:42.000Z</time>
      </trkpt>
      <trkpt lat="45.9425" lon="1.27108">
        <ele>419</ele>
        <time>2018-06-17T06:49:43.000Z</time>
      </trkpt>
      <trkpt lat="45.94249" lon="1.27078">
        <ele>421</ele>
        <time>2018-06-17T06:49:50.000Z</time>
      </trkpt>
      <trkpt lat="45.94249" lon="1.27063">
        <ele>422</ele>
        <time>2018-06-17T06:49:54.000Z</time>
      </trkpt>
      <trkpt lat="45.94249" lon="1.27017">
        <ele>426</ele>
        <time>2018-06-17T06:50:06.000Z</time>
      </trkpt>
      <trkpt lat="45.94258" lon="1.26992">
        <ele>425</ele>
        <time>2018-06-17T06:50:15.000Z</time>
      </trkpt>
      <trkpt lat="45.94271" lon="1.26964">
        <ele>422</ele>
        <time>2018-06-17T06:50:28.000Z</time>
      </trkpt>
      <trkpt lat="45.94279" lon="1.26952">
        <ele>422</ele>
        <time>2018-06-17T06:50:34.000Z</time>
      </trkpt>
      <trkpt lat="45.94297" lon="1.26918">
        <ele>423</ele>
        <time>2018-06-17T06:50:46.000Z</time>
      </trkpt>
      <trkpt lat="45.94306" lon="1.26912">
        <ele>422</ele>
        <time>2018-06-17T06:50:50.000Z</time>
      </trkpt>
      <trkpt lat="45.94312" lon="1.26908">
        <ele>424</ele>
        <time>2018-06-17T06:50:55.000Z</time>
      </trkpt>
      <trkpt lat="45.94334" lon="1.26895">
        <ele>431</ele>
        <time>2018-06-17T06:51:06.000Z</time>
      </trkpt>
      <trkpt lat="45.94341" lon="1.26889">
        <ele>432</ele>
        <time>2018-06-17T06:51:10.000Z</time>
      </trkpt>
      <trkpt lat="45.94348" lon="1.26887">
        <ele>433</ele>
        <time>2018-06-17T06:51:14.000Z</time>
      </trkpt>
      <trkpt lat="45.94366" lon="1.26873">
        <ele>432</ele>
        <time>2018-06-17T06:51:25.000Z</time>
      </trkpt>
      <trkpt lat="45.94368" lon="1.26866">
        <ele>435</ele>
        <time>2018-06-17T06:51:29.000Z</time>
      </trkpt>
      <trkpt lat="45.94366" lon="1.26858">
        <ele>438</ele>
        <time>2018-06-17T06:51:34.000Z</time>
      </trkpt>
      <trkpt lat="45.9437" lon="1.26819">
        <ele>444</ele>
        <time>2018-06-17T06:51:45.000Z</time>
      </trkpt>
      <trkpt lat="45.94371" lon="1.26796">
        <ele>442</ele>
        <time>2018-06-17T06:51:50.000Z</time>
      </trkpt>
      <trkpt lat="45.94366" lon="1.26756">
        <ele>438</ele>
        <time>2018-06-17T06:51:58.000Z</time>
      </trkpt>
      <trkpt lat="45.94353" lon="1.26704">
        <ele>435</ele>
        <time>2018-06-17T06:52:07.000Z</time>
      </trkpt>
      <trkpt lat="45.94336" lon="1.26639">
        <ele>431</ele>
        <time>2018-06-17T06:52:19.000Z</time>
      </trkpt>
      <trkpt lat="45.94335" lon="1.26634">
        <ele>431</ele>
        <time>2018-06-17T06:52:20.000Z</time>
      </trkpt>
      <trkpt lat="45.94332" lon="1.26614">
        <ele>432</ele>
        <time>2018-06-17T06:52:25.000Z</time>
      </trkpt>
      <trkpt lat="45.94327" lon="1.26572">
        <ele>439</ele>
        <time>2018-06-17T06:52:38.000Z</time>
      </trkpt>
      <trkpt lat="45.94326" lon="1.26545">
        <ele>443</ele>
        <time>2018-06-17T06:52:46.000Z</time>
      </trkpt>
      <trkpt lat="45.94324" lon="1.26537">
        <ele>445</ele>
        <time>2018-06-17T06:52:49.000Z</time>
      </trkpt>
      <trkpt lat="45.94321" lon="1.2653">
        <ele>447</ele>
        <time>2018-06-17T06:52:52.000Z</time>
      </trkpt>
      <trkpt lat="45.94308" lon="1.26503">
        <ele>453</ele>
        <time>2018-06-17T06:53:00.000Z</time>
      </trkpt>
      <trkpt lat="45.94305" lon="1.26495">
        <ele>454</ele>
        <time>2018-06-17T06:53:03.000Z</time>
      </trkpt>
      <trkpt lat="45.94303" lon="1.26488">
        <ele>456</ele>
        <time>2018-06-17T06:53:07.000Z</time>
      </trkpt>
      <trkpt lat="45.94302" lon="1.26459">
        <ele>459</ele>
        <time>2018-06-17T06:53:21.000Z</time>
      </trkpt>
      <trkpt lat="45.94304" lon="1.2645">
        <ele>458</ele>
        <time>2018-06-17T06:53:25.000Z</time>
      </trkpt>
      <trkpt lat="45.94311" lon="1.26441">
        <ele>457</ele>
        <time>2018-06-17T06:53:32.000Z</time>
      </trkpt>
      <trkpt lat="45.94326" lon="1.26431">
        <ele>460</ele>
        <time>2018-06-17T06:53:42.000Z</time>
      </trkpt>
      <trkpt lat="45.94331" lon="1.26422">
        <ele>458</ele>
        <time>2018-06-17T06:53:46.000Z</time>
      </trkpt>
      <trkpt lat="45.94332" lon="1.2641">
        <ele>455</ele>
        <time>2018-06-17T06:53:53.000Z</time>
      </trkpt>
      <trkpt lat="45.94327" lon="1.26406">
        <ele>456</ele>
        <time>2018-06-17T06:53:58.000Z</time>
      </trkpt>
      <trkpt lat="45.94316" lon="1.26406">
        <ele>457</ele>
        <time>2018-06-17T06:54:09.000Z</time>
      </trkpt>
      <trkpt lat="45.94307" lon="1.26408">
        <ele>458</ele>
        <time>2018-06-17T06:54:15.000Z</time>
      </trkpt>
      <trkpt lat="45.94292" lon="1.26399">
        <ele>458</ele>
        <time>2018-06-17T06:54:25.000Z</time>
      </trkpt>
      <trkpt lat="45.94273" lon="1.26389">
        <ele>457</ele>
        <time>2018-06-17T06:54:35.000Z</time>
      </trkpt>
      <trkpt lat="45.94263" lon="1.26384">
        <ele>457</ele>
        <time>2018-06-17T06:54:40.000Z</time>
      </trkpt>
      <trkpt lat="45.94233" lon="1.26377">
        <ele>458</ele>
        <time>2018-06-17T06:54:52.000Z</time>
      </trkpt>
      <trkpt lat="45.94222" lon="1.26375">
        <ele>459</ele>
        <time>2018-06-17T06:54:57.000Z</time>
      </trkpt>
      <trkpt lat="45.94212" lon="1.26378">
        <ele>460</ele>
        <time>2018-06-17T06:55:01.000Z</time>
      </trkpt>
      <trkpt lat="45.94204" lon="1.26376">
        <ele>460</ele>
        <time>2018-06-17T06:55:04.000Z</time>
      </trkpt>
      <trkpt lat="45.94176" lon="1.26372">
        <ele>460</ele>
        <time>2018-06-17T06:55:12.000Z</time>
      </trkpt>
      <trkpt lat="45.94167" lon="1.26363">
        <ele>457</ele>
        <time>2018-06-17T06:55:17.000Z</time>
      </trkpt>
      <trkpt lat="45.94164" lon="1.26354">
        <ele>454</ele>
        <time>2018-06-17T06:55:19.000Z</time>
      </trkpt>
      <trkpt lat="45.9416" lon="1.26344">
        <ele>449</ele>
        <time>2018-06-17T06:55:22.000Z</time>
      </trkpt>
      <trkpt lat="45.94153" lon="1.26326">
        <ele>444</ele>
        <time>2018-06-17T06:55:26.000Z</time>
      </trkpt>
      <trkpt lat="45.94149" lon="1.26308">
        <ele>441</ele>
        <time>2018-06-17T06:55:29.000Z</time>
      </trkpt>
      <trkpt lat="45.94145" lon="1.26292">
        <ele>440</ele>
        <time>2018-06-17T06:55:32.000Z</time>
      </trkpt>
      <trkpt lat="45.94138" lon="1.26268">
        <ele>440</ele>
        <time>2018-06-17T06:55:36.000Z</time>
      </trkpt>
      <trkpt lat="45.94128" lon="1.26247">
        <ele>441</ele>
        <time>2018-06-17T06:55:40.000Z</time>
      </trkpt>
      <trkpt lat="45.94115" lon="1.26227">
        <ele>444</ele>
        <time>2018-06-17T06:55:44.000Z</time>
      </trkpt>
      <trkpt lat="45.94106" lon="1.26205">
        <ele>450</ele>
        <time>2018-06-17T06:55:48.000Z</time>
      </trkpt>
      <trkpt lat="45.94078" lon="1.26153">
        <ele>468</ele>
        <time>2018-06-17T06:56:00.000Z</time>
      </trkpt>
      <trkpt lat="45.94075" lon="1.26151">
        <ele>468</ele>
        <time>2018-06-17T06:56:01.000Z</time>
      </trkpt>
      <trkpt lat="45.94035" lon="1.26111">
        <ele>466</ele>
        <time>2018-06-17T06:56:12.000Z</time>
      </trkpt>
      <trkpt lat="45.94033" lon="1.26109">
        <ele>466</ele>
        <time>2018-06-17T06:56:13.000Z</time>
      </trkpt>
      <trkpt lat="45.94013" lon="1.26095">
        <ele>468</ele>
        <time>2018-06-17T06:56:20.000Z</time>
      </trkpt>
      <trkpt lat="45.94004" lon="1.26093">
        <ele>470</ele>
        <time>2018-06-17T06:56:24.000Z</time>
      </trkpt>
      <trkpt lat="45.93974" lon="1.26082">
        <ele>467</ele>
        <time>2018-06-17T06:56:34.000Z</time>
      </trkpt>
      <trkpt lat="45.93947" lon="1.26041">
        <ele>463</ele>
        <time>2018-06-17T06:56:45.000Z</time>
      </trkpt>
      <trkpt lat="45.93935" lon="1.26014">
        <ele>457</ele>
        <time>2018-06-17T06:56:51.000Z</time>
      </trkpt>
      <trkpt lat="45.93929" lon="1.25995">
        <ele>452</ele>
        <time>2018-06-17T06:56:55.000Z</time>
      </trkpt>
      <trkpt lat="45.93914" lon="1.25978">
        <ele>449</ele>
        <time>2018-06-17T06:57:01.000Z</time>
      </trkpt>
      <trkpt lat="45.93897" lon="1.2597">
        <ele>448</ele>
        <time>2018-06-17T06:57:07.000Z</time>
      </trkpt>
      <trkpt lat="45.93891" lon="1.25965">
        <ele>448</ele>
        <time>2018-06-17T06:57:10.000Z</time>
      </trkpt>
      <trkpt lat="45.93878" lon="1.25961">
        <ele>448</ele>
        <time>2018-06-17T06:57:14.000Z</time>
      </trkpt>
      <trkpt lat="45.93861" lon="1.25955">
        <ele>447</ele>
        <time>2018-06-17T06:57:22.000Z</time>
      </trkpt>
      <trkpt lat="45.9385" lon="1.25934">
        <ele>439</ele>
        <time>2018-06-17T06:57:36.000Z</time>
      </trkpt>
      <trkpt lat="45.93848" lon="1.25926">
        <ele>438</ele>
        <time>2018-06-17T06:57:42.000Z</time>
      </trkpt>
      <trkpt lat="45.93846" lon="1.25919">
        <ele>434</ele>
        <time>2018-06-17T06:57:48.000Z</time>
      </trkpt>
      <trkpt lat="45.93842" lon="1.25909">
        <ele>431</ele>
        <time>2018-06-17T06:57:51.000Z</time>
      </trkpt>
      <trkpt lat="45.93833" lon="1.25896">
        <ele>429</ele>
        <time>2018-06-17T06:57:55.000Z</time>
      </trkpt>
      <trkpt lat="45.93795" lon="1.25853">
        <ele>434</ele>
        <time>2018-06-17T06:58:07.000Z</time>
      </trkpt>
      <trkpt lat="45.93792" lon="1.2585">
        <ele>435</ele>
        <time>2018-06-17T06:58:08.000Z</time>
      </trkpt>
      <trkpt lat="45.93788" lon="1.25849">
        <ele>436</ele>
        <time>2018-06-17T06:58:09.000Z</time>
      </trkpt>
      <trkpt lat="45.93761" lon="1.25837">
        <ele>444</ele>
        <time>2018-06-17T06:58:16.000Z</time>
      </trkpt>
      <trkpt lat="45.93751" lon="1.25827">
        <ele>448</ele>
        <time>2018-06-17T06:58:20.000Z</time>
      </trkpt>
      <trkpt lat="45.93742" lon="1.25812">
        <ele>450</ele>
        <time>2018-06-17T06:58:25.000Z</time>
      </trkpt>
      <trkpt lat="45.93732" lon="1.25778">
        <ele>439</ele>
        <time>2018-06-17T06:58:43.000Z</time>
      </trkpt>
      <trkpt lat="45.93726" lon="1.25766">
        <ele>437</ele>
        <time>2018-06-17T06:58:47.000Z</time>
      </trkpt>
      <trkpt lat="45.93706" lon="1.25704">
        <ele>432</ele>
        <time>2018-06-17T06:58:59.000Z</time>
      </trkpt>
      <trkpt lat="45.93704" lon="1.25699">
        <ele>432</ele>
        <time>2018-06-17T06:59:00.000Z</time>
      </trkpt>
      <trkpt lat="45.9369" lon="1.25662">
        <ele>425</ele>
        <time>2018-06-17T06:59:07.000Z</time>
      </trkpt>
      <trkpt lat="45.9367" lon="1.25631">
        <ele>422</ele>
        <time>2018-06-17T06:59:15.000Z</time>
      </trkpt>
      <trkpt lat="45.93651" lon="1.25605">
        <ele>422</ele>
        <time>2018-06-17T06:59:22.000Z</time>
      </trkpt>
      <trkpt lat="45.9363" lon="1.25574">
        <ele>422</ele>
        <time>2018-06-17T06:59:30.000Z</time>
      </trkpt>
      <trkpt lat="45.93597" lon="1.25538">
        <ele>418</ele>
        <time>2018-06-17T06:59:37.000Z</time>
      </trkpt>
      <trkpt lat="45.9359" lon="1.25534">
        <ele>417</ele>
        <time>2018-06-17T06:59:38.000Z</time>
      </trkpt>
      <trkpt lat="45.9355" lon="1.25516">
        <ele>414</ele>
        <time>2018-06-17T06:59:43.000Z</time>
      </trkpt>
      <trkpt lat="45.93542" lon="1.25515">
        <ele>414</ele>
        <time>2018-06-17T06:59:44.000Z</time>
      </trkpt>
      <trkpt lat="45.93522" lon="1.25505">
        <ele>414</ele>
        <time>2018-06-17T06:59:47.000Z</time>
      </trkpt>
      <trkpt lat="45.93479" lon="1.25467">
        <ele>412</ele>
        <time>2018-06-17T06:59:54.000Z</time>
      </trkpt>
      <trkpt lat="45.93473" lon="1.25461">
        <ele>412</ele>
        <time>2018-06-17T06:59:55.000Z</time>
      </trkpt>
      <trkpt lat="45.93449" lon="1.25436">
        <ele>410</ele>
        <time>2018-06-17T06:59:59.000Z</time>
      </trkpt>
      <trkpt lat="45.93438" lon="1.25409">
        <ele>409</ele>
        <time>2018-06-17T07:00:02.000Z</time>
      </trkpt>
      <trkpt lat="45.93428" lon="1.25381">
        <ele>408</ele>
        <time>2018-06-17T07:00:05.000Z</time>
      </trkpt>
      <trkpt lat="45.93415" lon="1.2536">
        <ele>407</ele>
        <time>2018-06-17T07:00:08.000Z</time>
      </trkpt>
      <trkpt lat="45.93383" lon="1.25319">
        <ele>407</ele>
        <time>2018-06-17T07:00:16.000Z</time>
      </trkpt>
      <trkpt lat="45.93379" lon="1.25316">
        <ele>407</ele>
        <time>2018-06-17T07:00:17.000Z</time>
      </trkpt>
      <trkpt lat="45.93338" lon="1.2528">
        <ele>414</ele>
        <time>2018-06-17T07:00:25.000Z</time>
      </trkpt>
      <trkpt lat="45.93332" lon="1.25275">
        <ele>414</ele>
        <time>2018-06-17T07:00:26.000Z</time>
      </trkpt>
      <trkpt lat="45.93292" lon="1.25242">
        <ele>418</ele>
        <time>2018-06-17T07:00:32.000Z</time>
      </trkpt>
      <trkpt lat="45.93285" lon="1.25237">
        <ele>419</ele>
        <time>2018-06-17T07:00:33.000Z</time>
      </trkpt>
      <trkpt lat="45.93264" lon="1.25214">
        <ele>420</ele>
        <time>2018-06-17T07:00:37.000Z</time>
      </trkpt>
      <trkpt lat="45.93256" lon="1.25199">
        <ele>419</ele>
        <time>2018-06-17T07:00:39.000Z</time>
      </trkpt>
      <trkpt lat="45.93237" lon="1.25157">
        <ele>418</ele>
        <time>2018-06-17T07:00:44.000Z</time>
      </trkpt>
      <trkpt lat="45.93216" lon="1.2514">
        <ele>415</ele>
        <time>2018-06-17T07:00:49.000Z</time>
      </trkpt>
      <trkpt lat="45.93208" lon="1.25141">
        <ele>414</ele>
        <time>2018-06-17T07:00:51.000Z</time>
      </trkpt>
      <trkpt lat="45.93202" lon="1.25146">
        <ele>413</ele>
        <time>2018-06-17T07:00:53.000Z</time>
      </trkpt>
      <trkpt lat="45.93189" lon="1.25154">
        <ele>411</ele>
        <time>2018-06-17T07:00:56.000Z</time>
      </trkpt>
      <trkpt lat="45.93153" lon="1.25161">
        <ele>406</ele>
        <time>2018-06-17T07:01:05.000Z</time>
      </trkpt>
      <trkpt lat="45.93143" lon="1.25158">
        <ele>405</ele>
        <time>2018-06-17T07:01:08.000Z</time>
      </trkpt>
      <trkpt lat="45.93115" lon="1.25147">
        <ele>405</ele>
        <time>2018-06-17T07:01:16.000Z</time>
      </trkpt>
      <trkpt lat="45.931" lon="1.25132">
        <ele>404</ele>
        <time>2018-06-17T07:01:20.000Z</time>
      </trkpt>
      <trkpt lat="45.93066" lon="1.25089">
        <ele>403</ele>
        <time>2018-06-17T07:01:29.000Z</time>
      </trkpt>
      <trkpt lat="45.93063" lon="1.25084">
        <ele>403</ele>
        <time>2018-06-17T07:01:30.000Z</time>
      </trkpt>
      <trkpt lat="45.93055" lon="1.2507">
        <ele>404</ele>
        <time>2018-06-17T07:01:34.000Z</time>
      </trkpt>
      <trkpt lat="45.93052" lon="1.25057">
        <ele>404</ele>
        <time>2018-06-17T07:01:37.000Z</time>
      </trkpt>
      <trkpt lat="45.9305" lon="1.25047">
        <ele>405</ele>
        <time>2018-06-17T07:01:39.000Z</time>
      </trkpt>
      <trkpt lat="45.93042" lon="1.24981">
        <ele>408</ele>
        <time>2018-06-17T07:01:53.000Z</time>
      </trkpt>
      <trkpt lat="45.93041" lon="1.24977">
        <ele>408</ele>
        <time>2018-06-17T07:01:54.000Z</time>
      </trkpt>
      <trkpt lat="45.93038" lon="1.24948">
        <ele>410</ele>
        <time>2018-06-17T07:02:02.000Z</time>
      </trkpt>
      <trkpt lat="45.93037" lon="1.24933">
        <ele>412</ele>
        <time>2018-06-17T07:02:06.000Z</time>
      </trkpt>
      <trkpt lat="45.93036" lon="1.24916">
        <ele>414</ele>
        <time>2018-06-17T07:02:10.000Z</time>
      </trkpt>
      <trkpt lat="45.93029" lon="1.24901">
        <ele>416</ele>
        <time>2018-06-17T07:02:15.000Z</time>
      </trkpt>
      <trkpt lat="45.93024" lon="1.24891">
        <ele>417</ele>
        <time>2018-06-17T07:02:19.000Z</time>
      </trkpt>
      <trkpt lat="45.93029" lon="1.24836">
        <ele>421</ele>
        <time>2018-06-17T07:02:33.000Z</time>
      </trkpt>
      <trkpt lat="45.93034" lon="1.248">
        <ele>425</ele>
        <time>2018-06-17T07:02:41.000Z</time>
      </trkpt>
      <trkpt lat="45.93042" lon="1.24781">
        <ele>426</ele>
        <time>2018-06-17T07:02:45.000Z</time>
      </trkpt>
      <trkpt lat="45.93063" lon="1.2474">
        <ele>424</ele>
        <time>2018-06-17T07:02:52.000Z</time>
      </trkpt>
      <trkpt lat="45.93081" lon="1.24677">
        <ele>422</ele>
        <time>2018-06-17T07:03:01.000Z</time>
      </trkpt>
      <trkpt lat="45.93083" lon="1.2467">
        <ele>421</ele>
        <time>2018-06-17T07:03:02.000Z</time>
      </trkpt>
      <trkpt lat="45.931" lon="1.24604">
        <ele>420</ele>
        <time>2018-06-17T07:03:11.000Z</time>
      </trkpt>
      <trkpt lat="45.93102" lon="1.24597">
        <ele>420</ele>
        <time>2018-06-17T07:03:12.000Z</time>
      </trkpt>
      <trkpt lat="45.93119" lon="1.24537">
        <ele>420</ele>
        <time>2018-06-17T07:03:22.000Z</time>
      </trkpt>
      <trkpt lat="45.93121" lon="1.24531">
        <ele>420</ele>
        <time>2018-06-17T07:03:23.000Z</time>
      </trkpt>
      <trkpt lat="45.93139" lon="1.24467">
        <ele>420</ele>
        <time>2018-06-17T07:03:34.000Z</time>
      </trkpt>
      <trkpt lat="45.9314" lon="1.24461">
        <ele>421</ele>
        <time>2018-06-17T07:03:35.000Z</time>
      </trkpt>
      <trkpt lat="45.93157" lon="1.24399">
        <ele>422</ele>
        <time>2018-06-17T07:03:46.000Z</time>
      </trkpt>
      <trkpt lat="45.93159" lon="1.24394">
        <ele>422</ele>
        <time>2018-06-17T07:03:47.000Z</time>
      </trkpt>
      <trkpt lat="45.93174" lon="1.24348">
        <ele>423</ele>
        <time>2018-06-17T07:03:56.000Z</time>
      </trkpt>
      <trkpt lat="45.93181" lon="1.24346">
        <ele>422</ele>
        <time>2018-06-17T07:03:58.000Z</time>
      </trkpt>
      <trkpt lat="45.93193" lon="1.24353">
        <ele>422</ele>
        <time>2018-06-17T07:04:01.000Z</time>
      </trkpt>
      <trkpt lat="45.93235" lon="1.24388">
        <ele>422</ele>
        <time>2018-06-17T07:04:11.000Z</time>
      </trkpt>
      <trkpt lat="45.93239" lon="1.24392">
        <ele>422</ele>
        <time>2018-06-17T07:04:12.000Z</time>
      </trkpt>
      <trkpt lat="45.93281" lon="1.24427">
        <ele>423</ele>
        <time>2018-06-17T07:04:22.000Z</time>
      </trkpt>
      <trkpt lat="45.93285" lon="1.24431">
        <ele>423</ele>
        <time>2018-06-17T07:04:23.000Z</time>
      </trkpt>
      <trkpt lat="45.93326" lon="1.24465">
        <ele>425</ele>
        <time>2018-06-17T07:04:33.000Z</time>
      </trkpt>
      <trkpt lat="45.9333" lon="1.24468">
        <ele>425</ele>
        <time>2018-06-17T07:04:34.000Z</time>
      </trkpt>
      <trkpt lat="45.93372" lon="1.24501">
        <ele>426</ele>
        <time>2018-06-17T07:04:44.000Z</time>
      </trkpt>
      <trkpt lat="45.93377" lon="1.24504">
        <ele>426</ele>
        <time>2018-06-17T07:04:45.000Z</time>
      </trkpt>
      <trkpt lat="45.93421" lon="1.24538">
        <ele>425</ele>
        <time>2018-06-17T07:04:54.000Z</time>
      </trkpt>
      <trkpt lat="45.93425" lon="1.24538">
        <ele>424</ele>
        <time>2018-06-17T07:04:55.000Z</time>
      </trkpt>
      <trkpt lat="45.93432" lon="1.24534">
        <ele>424</ele>
        <time>2018-06-17T07:04:57.000Z</time>
      </trkpt>
      <trkpt lat="45.93436" lon="1.24522">
        <ele>424</ele>
        <time>2018-06-17T07:05:00.000Z</time>
      </trkpt>
      <trkpt lat="45.93442" lon="1.24479">
        <ele>426</ele>
        <time>2018-06-17T07:05:12.000Z</time>
      </trkpt>
      <trkpt lat="45.93442" lon="1.24462">
        <ele>426</ele>
        <time>2018-06-17T07:05:17.000Z</time>
      </trkpt>
      <trkpt lat="45.93443" lon="1.24452">
        <ele>426</ele>
        <time>2018-06-17T07:05:19.000Z</time>
      </trkpt>
      <trkpt lat="45.93448" lon="1.24412">
        <ele>427</ele>
        <time>2018-06-17T07:05:26.000Z</time>
      </trkpt>
      <trkpt lat="45.93454" lon="1.24391">
        <ele>428</ele>
        <time>2018-06-17T07:05:31.000Z</time>
      </trkpt>
      <trkpt lat="45.93456" lon="1.24365">
        <ele>428</ele>
        <time>2018-06-17T07:05:37.000Z</time>
      </trkpt>
      <trkpt lat="45.93461" lon="1.24351">
        <ele>428</ele>
        <time>2018-06-17T07:05:40.000Z</time>
      </trkpt>
      <trkpt lat="45.93465" lon="1.24322">
        <ele>427</ele>
        <time>2018-06-17T07:05:45.000Z</time>
      </trkpt>
      <trkpt lat="45.93467" lon="1.24311">
        <ele>427</ele>
        <time>2018-06-17T07:05:47.000Z</time>
      </trkpt>
      <trkpt lat="45.93483" lon="1.24249">
        <ele>423</ele>
        <time>2018-06-17T07:05:54.000Z</time>
      </trkpt>
      <trkpt lat="45.93486" lon="1.24239">
        <ele>423</ele>
        <time>2018-06-17T07:05:55.000Z</time>
      </trkpt>
      <trkpt lat="45.93507" lon="1.24174">
        <ele>419</ele>
        <time>2018-06-17T07:06:01.000Z</time>
      </trkpt>
      <trkpt lat="45.93512" lon="1.24163">
        <ele>419</ele>
        <time>2018-06-17T07:06:02.000Z</time>
      </trkpt>
      <trkpt lat="45.93528" lon="1.24136">
        <ele>417</ele>
        <time>2018-06-17T07:06:05.000Z</time>
      </trkpt>
      <trkpt lat="45.9355" lon="1.24123">
        <ele>415</ele>
        <time>2018-06-17T07:06:08.000Z</time>
      </trkpt>
      <trkpt lat="45.93597" lon="1.241">
        <ele>413</ele>
        <time>2018-06-17T07:06:14.000Z</time>
      </trkpt>
      <trkpt lat="45.93605" lon="1.24097">
        <ele>412</ele>
        <time>2018-06-17T07:06:15.000Z</time>
      </trkpt>
      <trkpt lat="45.9365" lon="1.24083">
        <ele>410</ele>
        <time>2018-06-17T07:06:21.000Z</time>
      </trkpt>
      <trkpt lat="45.93656" lon="1.2408">
        <ele>409</ele>
        <time>2018-06-17T07:06:22.000Z</time>
      </trkpt>
      <trkpt lat="45.93667" lon="1.24073">
        <ele>409</ele>
        <time>2018-06-17T07:06:24.000Z</time>
      </trkpt>
      <trkpt lat="45.93703" lon="1.24041">
        <ele>408</ele>
        <time>2018-06-17T07:06:31.000Z</time>
      </trkpt>
      <trkpt lat="45.93706" lon="1.24036">
        <ele>408</ele>
        <time>2018-06-17T07:06:32.000Z</time>
      </trkpt>
      <trkpt lat="45.93734" lon="1.2399">
        <ele>408</ele>
        <time>2018-06-17T07:06:40.000Z</time>
      </trkpt>
      <trkpt lat="45.93738" lon="1.23986">
        <ele>408</ele>
        <time>2018-06-17T07:06:41.000Z</time>
      </trkpt>
      <trkpt lat="45.93775" lon="1.23938">
        <ele>408</ele>
        <time>2018-06-17T07:06:51.000Z</time>
      </trkpt>
      <trkpt lat="45.93779" lon="1.23932">
        <ele>408</ele>
        <time>2018-06-17T07:06:52.000Z</time>
      </trkpt>
      <trkpt lat="45.93797" lon="1.23878">
        <ele>410</ele>
        <time>2018-06-17T07:07:00.000Z</time>
      </trkpt>
      <trkpt lat="45.93798" lon="1.23871">
        <ele>410</ele>
        <time>2018-06-17T07:07:01.000Z</time>
      </trkpt>
      <trkpt lat="45.93814" lon="1.23801">
        <ele>409</ele>
        <time>2018-06-17T07:07:09.000Z</time>
      </trkpt>
      <trkpt lat="45.93817" lon="1.23793">
        <ele>409</ele>
        <time>2018-06-17T07:07:10.000Z</time>
      </trkpt>
      <trkpt lat="45.93821" lon="1.23786">
        <ele>409</ele>
        <time>2018-06-17T07:07:11.000Z</time>
      </trkpt>
      <trkpt lat="45.9383" lon="1.23775">
        <ele>408</ele>
        <time>2018-06-17T07:07:13.000Z</time>
      </trkpt>
      <trkpt lat="45.93868" lon="1.23752">
        <ele>408</ele>
        <time>2018-06-17T07:07:20.000Z</time>
      </trkpt>
      <trkpt lat="45.93874" lon="1.2375">
        <ele>408</ele>
        <time>2018-06-17T07:07:21.000Z</time>
      </trkpt>
      <trkpt lat="45.93889" lon="1.23749">
        <ele>408</ele>
        <time>2018-06-17T07:07:24.000Z</time>
      </trkpt>
      <trkpt lat="45.93928" lon="1.23746">
        <ele>409</ele>
        <time>2018-06-17T07:07:32.000Z</time>
      </trkpt>
      <trkpt lat="45.93937" lon="1.2374">
        <ele>409</ele>
        <time>2018-06-17T07:07:34.000Z</time>
      </trkpt>
      <trkpt lat="45.93943" lon="1.2373">
        <ele>409</ele>
        <time>2018-06-17T07:07:36.000Z</time>
      </trkpt>
      <trkpt lat="45.93963" lon="1.23692">
        <ele>409</ele>
        <time>2018-06-17T07:07:43.000Z</time>
      </trkpt>
      <trkpt lat="45.94003" lon="1.23649">
        <ele>410</ele>
        <time>2018-06-17T07:07:53.000Z</time>
      </trkpt>
      <trkpt lat="45.94007" lon="1.23645">
        <ele>410</ele>
        <time>2018-06-17T07:07:54.000Z</time>
      </trkpt>
      <trkpt lat="45.94044" lon="1.23609">
        <ele>411</ele>
        <time>2018-06-17T07:08:04.000Z</time>
      </trkpt>
      <trkpt lat="45.94048" lon="1.23605">
        <ele>411</ele>
        <time>2018-06-17T07:08:05.000Z</time>
      </trkpt>
      <trkpt lat="45.94088" lon="1.23573">
        <ele>411</ele>
        <time>2018-06-17T07:08:15.000Z</time>
      </trkpt>
      <trkpt lat="45.94092" lon="1.23569">
        <ele>411</ele>
        <time>2018-06-17T07:08:16.000Z</time>
      </trkpt>
      <trkpt lat="45.94136" lon="1.23538">
        <ele>409</ele>
        <time>2018-06-17T07:08:24.000Z</time>
      </trkpt>
      <trkpt lat="45.94142" lon="1.23533">
        <ele>409</ele>
        <time>2018-06-17T07:08:25.000Z</time>
      </trkpt>
      <trkpt lat="45.94167" lon="1.23518">
        <ele>408</ele>
        <time>2018-06-17T07:08:29.000Z</time>
      </trkpt>
      <trkpt lat="45.94213" lon="1.23506">
        <ele>404</ele>
        <time>2018-06-17T07:08:36.000Z</time>
      </trkpt>
      <trkpt lat="45.94217" lon="1.23503">
        <ele>403</ele>
        <time>2018-06-17T07:08:37.000Z</time>
      </trkpt>
      <trkpt lat="45.94222" lon="1.23502">
        <ele>403</ele>
        <time>2018-06-17T07:08:39.000Z</time>
      </trkpt>
      <trkpt lat="45.9423" lon="1.23503">
        <ele>402</ele>
        <time>2018-06-17T07:08:41.000Z</time>
      </trkpt>
      <trkpt lat="45.94242" lon="1.23498">
        <ele>401</ele>
        <time>2018-06-17T07:08:44.000Z</time>
      </trkpt>
      <trkpt lat="45.94252" lon="1.23505">
        <ele>400</ele>
        <time>2018-06-17T07:08:46.000Z</time>
      </trkpt>
      <trkpt lat="45.94282" lon="1.23532">
        <ele>397</ele>
        <time>2018-06-17T07:08:51.000Z</time>
      </trkpt>
      <trkpt lat="45.94313" lon="1.23555">
        <ele>394</ele>
        <time>2018-06-17T07:08:55.000Z</time>
      </trkpt>
      <trkpt lat="45.94343" lon="1.23605">
        <ele>392</ele>
        <time>2018-06-17T07:09:02.000Z</time>
      </trkpt>
      <trkpt lat="45.94346" lon="1.2361">
        <ele>392</ele>
        <time>2018-06-17T07:09:03.000Z</time>
      </trkpt>
      <trkpt lat="45.94356" lon="1.23631">
        <ele>391</ele>
        <time>2018-06-17T07:09:08.000Z</time>
      </trkpt>
      <trkpt lat="45.94362" lon="1.23638">
        <ele>390</ele>
        <time>2018-06-17T07:09:11.000Z</time>
      </trkpt>
      <trkpt lat="45.94374" lon="1.23643">
        <ele>388</ele>
        <time>2018-06-17T07:09:18.000Z</time>
      </trkpt>
      <trkpt lat="45.94387" lon="1.2365">
        <ele>387</ele>
        <time>2018-06-17T07:09:25.000Z</time>
      </trkpt>
      <trkpt lat="45.94394" lon="1.23656">
        <ele>387</ele>
        <time>2018-06-17T07:09:29.000Z</time>
      </trkpt>
      <trkpt lat="45.94411" lon="1.23672">
        <ele>391</ele>
        <time>2018-06-17T07:09:39.000Z</time>
      </trkpt>
      <trkpt lat="45.94421" lon="1.23672">
        <ele>396</ele>
        <time>2018-06-17T07:09:45.000Z</time>
      </trkpt>
      <trkpt lat="45.94444" lon="1.23676">
        <ele>402</ele>
        <time>2018-06-17T07:09:56.000Z</time>
      </trkpt>
      <trkpt lat="45.94451" lon="1.23682">
        <ele>402</ele>
        <time>2018-06-17T07:09:59.000Z</time>
      </trkpt>
      <trkpt lat="45.94455" lon="1.2369">
        <ele>403</ele>
        <time>2018-06-17T07:10:02.000Z</time>
      </trkpt>
      <trkpt lat="45.94458" lon="1.23696">
        <ele>404</ele>
        <time>2018-06-17T07:10:04.000Z</time>
      </trkpt>
      <trkpt lat="45.94467" lon="1.23717">
        <ele>407</ele>
        <time>2018-06-17T07:10:15.000Z</time>
      </trkpt>
      <trkpt lat="45.94469" lon="1.23725">
        <ele>408</ele>
        <time>2018-06-17T07:10:19.000Z</time>
      </trkpt>
      <trkpt lat="45.94473" lon="1.23742">
        <ele>407</ele>
        <time>2018-06-17T07:10:25.000Z</time>
      </trkpt>
      <trkpt lat="45.9449" lon="1.23803">
        <ele>405</ele>
        <time>2018-06-17T07:10:42.000Z</time>
      </trkpt>
      <trkpt lat="45.94491" lon="1.23808">
        <ele>405</ele>
        <time>2018-06-17T07:10:43.000Z</time>
      </trkpt>
      <trkpt lat="45.94492" lon="1.23813">
        <ele>405</ele>
        <time>2018-06-17T07:10:44.000Z</time>
      </trkpt>
      <trkpt lat="45.94502" lon="1.23837">
        <ele>405</ele>
        <time>2018-06-17T07:10:49.000Z</time>
      </trkpt>
      <trkpt lat="45.94532" lon="1.23874">
        <ele>404</ele>
        <time>2018-06-17T07:10:58.000Z</time>
      </trkpt>
      <trkpt lat="45.94542" lon="1.23895">
        <ele>403</ele>
        <time>2018-06-17T07:11:03.000Z</time>
      </trkpt>
      <trkpt lat="45.94552" lon="1.23924">
        <ele>402</ele>
        <time>2018-06-17T07:11:10.000Z</time>
      </trkpt>
      <trkpt lat="45.94557" lon="1.23928">
        <ele>402</ele>
        <time>2018-06-17T07:11:12.000Z</time>
      </trkpt>
      <trkpt lat="45.94566" lon="1.23935">
        <ele>403</ele>
        <time>2018-06-17T07:11:15.000Z</time>
      </trkpt>
      <trkpt lat="45.94571" lon="1.23945">
        <ele>403</ele>
        <time>2018-06-17T07:11:17.000Z</time>
      </trkpt>
      <trkpt lat="45.94573" lon="1.23959">
        <ele>403</ele>
        <time>2018-06-17T07:11:19.000Z</time>
      </trkpt>
      <trkpt lat="45.94581" lon="1.24023">
        <ele>404</ele>
        <time>2018-06-17T07:11:27.000Z</time>
      </trkpt>
      <trkpt lat="45.94582" lon="1.2403">
        <ele>404</ele>
        <time>2018-06-17T07:11:28.000Z</time>
      </trkpt>
      <trkpt lat="45.94582" lon="1.24053">
        <ele>404</ele>
        <time>2018-06-17T07:11:31.000Z</time>
      </trkpt>
      <trkpt lat="45.94579" lon="1.24085">
        <ele>404</ele>
        <time>2018-06-17T07:11:35.000Z</time>
      </trkpt>
      <trkpt lat="45.94587" lon="1.2415">
        <ele>404</ele>
        <time>2018-06-17T07:11:44.000Z</time>
      </trkpt>
      <trkpt lat="45.94587" lon="1.24156">
        <ele>405</ele>
        <time>2018-06-17T07:11:45.000Z</time>
      </trkpt>
      <trkpt lat="45.94586" lon="1.24182">
        <ele>406</ele>
        <time>2018-06-17T07:11:50.000Z</time>
      </trkpt>
      <trkpt lat="45.94589" lon="1.24212">
        <ele>408</ele>
        <time>2018-06-17T07:11:56.000Z</time>
      </trkpt>
      <trkpt lat="45.94595" lon="1.24261">
        <ele>411</ele>
        <time>2018-06-17T07:12:07.000Z</time>
      </trkpt>
      <trkpt lat="45.94595" lon="1.2427">
        <ele>412</ele>
        <time>2018-06-17T07:12:09.000Z</time>
      </trkpt>
      <trkpt lat="45.94591" lon="1.24291">
        <ele>414</ele>
        <time>2018-06-17T07:12:14.000Z</time>
      </trkpt>
      <trkpt lat="45.94589" lon="1.24304">
        <ele>415</ele>
        <time>2018-06-17T07:12:17.000Z</time>
      </trkpt>
      <trkpt lat="45.94584" lon="1.24368">
        <ele>420</ele>
        <time>2018-06-17T07:12:31.000Z</time>
      </trkpt>
      <trkpt lat="45.94583" lon="1.24372">
        <ele>420</ele>
        <time>2018-06-17T07:12:32.000Z</time>
      </trkpt>
      <trkpt lat="45.9458" lon="1.24385">
        <ele>420</ele>
        <time>2018-06-17T07:12:35.000Z</time>
      </trkpt>
      <trkpt lat="45.94579" lon="1.24395">
        <ele>420</ele>
        <time>2018-06-17T07:12:37.000Z</time>
      </trkpt>
      <trkpt lat="45.94576" lon="1.24404">
        <ele>420</ele>
        <time>2018-06-17T07:12:39.000Z</time>
      </trkpt>
      <trkpt lat="45.94574" lon="1.24412">
        <ele>420</ele>
        <time>2018-06-17T07:12:41.000Z</time>
      </trkpt>
      <trkpt lat="45.94571" lon="1.24428">
        <ele>420</ele>
        <time>2018-06-17T07:12:45.000Z</time>
      </trkpt>
      <trkpt lat="45.94574" lon="1.24435">
        <ele>420</ele>
        <time>2018-06-17T07:12:47.000Z</time>
      </trkpt>
      <trkpt lat="45.94579" lon="1.24434">
        <ele>420</ele>
        <time>2018-06-17T07:12:49.000Z</time>
      </trkpt>
      <trkpt lat="45.94588" lon="1.24429">
        <ele>419</ele>
        <time>2018-06-17T07:12:52.000Z</time>
      </trkpt>
      <trkpt lat="45.94594" lon="1.24434">
        <ele>418</ele>
        <time>2018-06-17T07:12:55.000Z</time>
      </trkpt>
      <trkpt lat="45.94613" lon="1.24481">
        <ele>411</ele>
        <time>2018-06-17T07:13:04.000Z</time>
      </trkpt>
      <trkpt lat="45.94637" lon="1.24523">
        <ele>406</ele>
        <time>2018-06-17T07:13:11.000Z</time>
      </trkpt>
      <trkpt lat="45.94642" lon="1.24537">
        <ele>405</ele>
        <time>2018-06-17T07:13:13.000Z</time>
      </trkpt>
      <trkpt lat="45.94656" lon="1.24585">
        <ele>405</ele>
        <time>2018-06-17T07:13:21.000Z</time>
      </trkpt>
      <trkpt lat="45.94669" lon="1.24611">
        <ele>405</ele>
        <time>2018-06-17T07:13:25.000Z</time>
      </trkpt>
      <trkpt lat="45.94671" lon="1.24628">
        <ele>405</ele>
        <time>2018-06-17T07:13:27.000Z</time>
      </trkpt>
      <trkpt lat="45.94682" lon="1.24691">
        <ele>405</ele>
        <time>2018-06-17T07:13:40.000Z</time>
      </trkpt>
      <trkpt lat="45.94684" lon="1.24694">
        <ele>406</ele>
        <time>2018-06-17T07:13:41.000Z</time>
      </trkpt>
      <trkpt lat="45.94685" lon="1.24695">
        <ele>406</ele>
        <time>2018-06-17T07:13:42.000Z</time>
      </trkpt>
      <trkpt lat="45.94691" lon="1.247">
        <ele>407</ele>
        <time>2018-06-17T07:13:46.000Z</time>
      </trkpt>
      <trkpt lat="45.94705" lon="1.24708">
        <ele>408</ele>
        <time>2018-06-17T07:13:54.000Z</time>
      </trkpt>
      <trkpt lat="45.94713" lon="1.24714">
        <ele>408</ele>
        <time>2018-06-17T07:13:58.000Z</time>
      </trkpt>
      <trkpt lat="45.94724" lon="1.24715">
        <ele>406</ele>
        <time>2018-06-17T07:14:04.000Z</time>
      </trkpt>
      <trkpt lat="45.94736" lon="1.24706">
        <ele>406</ele>
        <time>2018-06-17T07:14:12.000Z</time>
      </trkpt>
      <trkpt lat="45.94749" lon="1.24679">
        <ele>407</ele>
        <time>2018-06-17T07:14:22.000Z</time>
      </trkpt>
      <trkpt lat="45.94765" lon="1.2465">
        <ele>409</ele>
        <time>2018-06-17T07:14:33.000Z</time>
      </trkpt>
      <trkpt lat="45.94785" lon="1.24627">
        <ele>411</ele>
        <time>2018-06-17T07:14:44.000Z</time>
      </trkpt>
      <trkpt lat="45.94793" lon="1.24627">
        <ele>411</ele>
        <time>2018-06-17T07:14:47.000Z</time>
      </trkpt>
      <trkpt lat="45.9481" lon="1.2463">
        <ele>411</ele>
        <time>2018-06-17T07:14:54.000Z</time>
      </trkpt>
      <trkpt lat="45.94819" lon="1.24637">
        <ele>411</ele>
        <time>2018-06-17T07:14:58.000Z</time>
      </trkpt>
      <trkpt lat="45.94824" lon="1.24646">
        <ele>412</ele>
        <time>2018-06-17T07:15:01.000Z</time>
      </trkpt>
      <trkpt lat="45.94829" lon="1.24653">
        <ele>412</ele>
        <time>2018-06-17T07:15:03.000Z</time>
      </trkpt>
      <trkpt lat="45.94844" lon="1.24678">
        <ele>411</ele>
        <time>2018-06-17T07:15:09.000Z</time>
      </trkpt>
      <trkpt lat="45.94851" lon="1.24699">
        <ele>410</ele>
        <time>2018-06-17T07:15:13.000Z</time>
      </trkpt>
      <trkpt lat="45.94862" lon="1.24732">
        <ele>407</ele>
        <time>2018-06-17T07:15:17.000Z</time>
      </trkpt>
      <trkpt lat="45.94879" lon="1.248">
        <ele>405</ele>
        <time>2018-06-17T07:15:25.000Z</time>
      </trkpt>
      <trkpt lat="45.9488" lon="1.24807">
        <ele>405</ele>
        <time>2018-06-17T07:15:26.000Z</time>
      </trkpt>
      <trkpt lat="45.94883" lon="1.24828">
        <ele>405</ele>
        <time>2018-06-17T07:15:29.000Z</time>
      </trkpt>
      <trkpt lat="45.94888" lon="1.24855">
        <ele>406</ele>
        <time>2018-06-17T07:15:34.000Z</time>
      </trkpt>
      <trkpt lat="45.94895" lon="1.24859">
        <ele>406</ele>
        <time>2018-06-17T07:15:37.000Z</time>
      </trkpt>
      <trkpt lat="45.94911" lon="1.24861">
        <ele>408</ele>
        <time>2018-06-17T07:15:41.000Z</time>
      </trkpt>
      <trkpt lat="45.94926" lon="1.24871">
        <ele>408</ele>
        <time>2018-06-17T07:15:45.000Z</time>
      </trkpt>
      <trkpt lat="45.94938" lon="1.24879">
        <ele>409</ele>
        <time>2018-06-17T07:15:49.000Z</time>
      </trkpt>
      <trkpt lat="45.94979" lon="1.2491">
        <ele>412</ele>
        <time>2018-06-17T07:16:01.000Z</time>
      </trkpt>
      <trkpt lat="45.94983" lon="1.24913">
        <ele>413</ele>
        <time>2018-06-17T07:16:02.000Z</time>
      </trkpt>
      <trkpt lat="45.95028" lon="1.2494">
        <ele>413</ele>
        <time>2018-06-17T07:16:14.000Z</time>
      </trkpt>
      <trkpt lat="45.95032" lon="1.24942">
        <ele>413</ele>
        <time>2018-06-17T07:16:15.000Z</time>
      </trkpt>
      <trkpt lat="45.95061" lon="1.24969">
        <ele>413</ele>
        <time>2018-06-17T07:16:24.000Z</time>
      </trkpt>
      <trkpt lat="45.95077" lon="1.24993">
        <ele>413</ele>
        <time>2018-06-17T07:16:31.000Z</time>
      </trkpt>
      <trkpt lat="45.95091" lon="1.2502">
        <ele>415</ele>
        <time>2018-06-17T07:16:39.000Z</time>
      </trkpt>
      <trkpt lat="45.95102" lon="1.25037">
        <ele>416</ele>
        <time>2018-06-17T07:16:45.000Z</time>
      </trkpt>
      <trkpt lat="45.95121" lon="1.25073">
        <ele>417</ele>
        <time>2018-06-17T07:16:56.000Z</time>
      </trkpt>
      <trkpt lat="45.95131" lon="1.25089">
        <ele>418</ele>
        <time>2018-06-17T07:17:01.000Z</time>
      </trkpt>
      <trkpt lat="45.95135" lon="1.25096">
        <ele>417</ele>
        <time>2018-06-17T07:17:03.000Z</time>
      </trkpt>
      <trkpt lat="45.95165" lon="1.25142">
        <ele>414</ele>
        <time>2018-06-17T07:17:12.000Z</time>
      </trkpt>
      <trkpt lat="45.95171" lon="1.25146">
        <ele>414</ele>
        <time>2018-06-17T07:17:13.000Z</time>
      </trkpt>
      <trkpt lat="45.95211" lon="1.25182">
        <ele>414</ele>
        <time>2018-06-17T07:17:20.000Z</time>
      </trkpt>
      <trkpt lat="45.95217" lon="1.25187">
        <ele>413</ele>
        <time>2018-06-17T07:17:21.000Z</time>
      </trkpt>
      <trkpt lat="45.95259" lon="1.25223">
        <ele>411</ele>
        <time>2018-06-17T07:17:29.000Z</time>
      </trkpt>
      <trkpt lat="45.95264" lon="1.25227">
        <ele>411</ele>
        <time>2018-06-17T07:17:30.000Z</time>
      </trkpt>
      <trkpt lat="45.95308" lon="1.25261">
        <ele>412</ele>
        <time>2018-06-17T07:17:39.000Z</time>
      </trkpt>
      <trkpt lat="45.95313" lon="1.25266">
        <ele>412</ele>
        <time>2018-06-17T07:17:40.000Z</time>
      </trkpt>
      <trkpt lat="45.95355" lon="1.25302">
        <ele>414</ele>
        <time>2018-06-17T07:17:49.000Z</time>
      </trkpt>
      <trkpt lat="45.9536" lon="1.25306">
        <ele>414</ele>
        <time>2018-06-17T07:17:50.000Z</time>
      </trkpt>
      <trkpt lat="45.95384" lon="1.25321">
        <ele>414</ele>
        <time>2018-06-17T07:17:56.000Z</time>
      </trkpt>
      <trkpt lat="45.95404" lon="1.25326">
        <ele>414</ele>
        <time>2018-06-17T07:18:00.000Z</time>
      </trkpt>
      <trkpt lat="45.95433" lon="1.25337">
        <ele>415</ele>
        <time>2018-06-17T07:18:06.000Z</time>
      </trkpt>
      <trkpt lat="45.95447" lon="1.2533">
        <ele>414</ele>
        <time>2018-06-17T07:18:09.000Z</time>
      </trkpt>
      <trkpt lat="45.95482" lon="1.25285">
        <ele>415</ele>
        <time>2018-06-17T07:18:18.000Z</time>
      </trkpt>
      <trkpt lat="45.95486" lon="1.25279">
        <ele>415</ele>
        <time>2018-06-17T07:18:19.000Z</time>
      </trkpt>
      <trkpt lat="45.95528" lon="1.25243">
        <ele>415</ele>
        <time>2018-06-17T07:18:27.000Z</time>
      </trkpt>
      <trkpt lat="45.95534" lon="1.2524">
        <ele>415</ele>
        <time>2018-06-17T07:18:28.000Z</time>
      </trkpt>
      <trkpt lat="45.95575" lon="1.25211">
        <ele>416</ele>
        <time>2018-06-17T07:18:36.000Z</time>
      </trkpt>
      <trkpt lat="45.9558" lon="1.25207">
        <ele>416</ele>
        <time>2018-06-17T07:18:37.000Z</time>
      </trkpt>
      <trkpt lat="45.95621" lon="1.25177">
        <ele>415</ele>
        <time>2018-06-17T07:18:45.000Z</time>
      </trkpt>
      <trkpt lat="45.95628" lon="1.25173">
        <ele>415</ele>
        <time>2018-06-17T07:18:46.000Z</time>
      </trkpt>
      <trkpt lat="45.95658" lon="1.25155">
        <ele>413</ele>
        <time>2018-06-17T07:18:51.000Z</time>
      </trkpt>
      <trkpt lat="45.95693" lon="1.2517">
        <ele>413</ele>
        <time>2018-06-17T07:18:57.000Z</time>
      </trkpt>
      <trkpt lat="45.95734" lon="1.252">
        <ele>417</ele>
        <time>2018-06-17T07:19:13.000Z</time>
      </trkpt>
      <trkpt lat="45.95736" lon="1.25202">
        <ele>417</ele>
        <time>2018-06-17T07:19:14.000Z</time>
      </trkpt>
      <trkpt lat="45.95744" lon="1.2521">
        <ele>418</ele>
        <time>2018-06-17T07:19:18.000Z</time>
      </trkpt>
      <trkpt lat="45.95755" lon="1.25226">
        <ele>419</ele>
        <time>2018-06-17T07:19:24.000Z</time>
      </trkpt>
      <trkpt lat="45.95764" lon="1.25248">
        <ele>420</ele>
        <time>2018-06-17T07:19:29.000Z</time>
      </trkpt>
      <trkpt lat="45.95775" lon="1.25292">
        <ele>422</ele>
        <time>2018-06-17T07:19:39.000Z</time>
      </trkpt>
      <trkpt lat="45.95778" lon="1.25303">
        <ele>422</ele>
        <time>2018-06-17T07:19:42.000Z</time>
      </trkpt>
      <trkpt lat="45.95786" lon="1.25336">
        <ele>424</ele>
        <time>2018-06-17T07:19:49.000Z</time>
      </trkpt>
      <trkpt lat="45.95789" lon="1.25349">
        <ele>425</ele>
        <time>2018-06-17T07:19:52.000Z</time>
      </trkpt>
      <trkpt lat="45.9579" lon="1.25357">
        <ele>425</ele>
        <time>2018-06-17T07:19:54.000Z</time>
      </trkpt>
      <trkpt lat="45.95809" lon="1.25387">
        <ele>428</ele>
        <time>2018-06-17T07:20:05.000Z</time>
      </trkpt>
      <trkpt lat="45.95829" lon="1.25416">
        <ele>439</ele>
        <time>2018-06-17T07:20:19.000Z</time>
      </trkpt>
      <trkpt lat="45.95831" lon="1.25426">
        <ele>443</ele>
        <time>2018-06-17T07:20:23.000Z</time>
      </trkpt>
      <trkpt lat="45.95834" lon="1.25455">
        <ele>448</ele>
        <time>2018-06-17T07:20:33.000Z</time>
      </trkpt>
      <trkpt lat="45.9584" lon="1.2549">
        <ele>446</ele>
        <time>2018-06-17T07:20:48.000Z</time>
      </trkpt>
      <trkpt lat="45.95842" lon="1.25499">
        <ele>445</ele>
        <time>2018-06-17T07:20:52.000Z</time>
      </trkpt>
      <trkpt lat="45.95845" lon="1.25508">
        <ele>444</ele>
        <time>2018-06-17T07:20:56.000Z</time>
      </trkpt>
      <trkpt lat="45.95851" lon="1.2554">
        <ele>443</ele>
        <time>2018-06-17T07:21:08.000Z</time>
      </trkpt>
      <trkpt lat="45.95848" lon="1.25563">
        <ele>444</ele>
        <time>2018-06-17T07:21:18.000Z</time>
      </trkpt>
      <trkpt lat="45.95846" lon="1.25579">
        <ele>444</ele>
        <time>2018-06-17T07:21:23.000Z</time>
      </trkpt>
      <trkpt lat="45.95846" lon="1.25606">
        <ele>445</ele>
        <time>2018-06-17T07:21:29.000Z</time>
      </trkpt>
      <trkpt lat="45.95849" lon="1.25666">
        <ele>442</ele>
        <time>2018-06-17T07:21:38.000Z</time>
      </trkpt>
      <trkpt lat="45.9585" lon="1.25673">
        <ele>442</ele>
        <time>2018-06-17T07:21:39.000Z</time>
      </trkpt>
      <trkpt lat="45.9586" lon="1.25744">
        <ele>440</ele>
        <time>2018-06-17T07:21:48.000Z</time>
      </trkpt>
      <trkpt lat="45.9586" lon="1.25751">
        <ele>440</ele>
        <time>2018-06-17T07:21:49.000Z</time>
      </trkpt>
      <trkpt lat="45.9587" lon="1.25817">
        <ele>438</ele>
        <time>2018-06-17T07:21:59.000Z</time>
      </trkpt>
      <trkpt lat="45.95871" lon="1.25823">
        <ele>438</ele>
        <time>2018-06-17T07:22:00.000Z</time>
      </trkpt>
      <trkpt lat="45.95873" lon="1.2583">
        <ele>438</ele>
        <time>2018-06-17T07:22:01.000Z</time>
      </trkpt>
      <trkpt lat="45.95881" lon="1.25846">
        <ele>438</ele>
        <time>2018-06-17T07:22:04.000Z</time>
      </trkpt>
      <trkpt lat="45.95886" lon="1.25857">
        <ele>437</ele>
        <time>2018-06-17T07:22:06.000Z</time>
      </trkpt>
      <trkpt lat="45.95913" lon="1.25909">
        <ele>436</ele>
        <time>2018-06-17T07:22:15.000Z</time>
      </trkpt>
      <trkpt lat="45.95916" lon="1.25915">
        <ele>435</ele>
        <time>2018-06-17T07:22:16.000Z</time>
      </trkpt>
      <trkpt lat="45.95944" lon="1.2597">
        <ele>437</ele>
        <time>2018-06-17T07:22:27.000Z</time>
      </trkpt>
      <trkpt lat="45.95945" lon="1.25975">
        <ele>437</ele>
        <time>2018-06-17T07:22:28.000Z</time>
      </trkpt>
      <trkpt lat="45.95946" lon="1.25985">
        <ele>438</ele>
        <time>2018-06-17T07:22:30.000Z</time>
      </trkpt>
      <trkpt lat="45.95946" lon="1.25995">
        <ele>438</ele>
        <time>2018-06-17T07:22:32.000Z</time>
      </trkpt>
      <trkpt lat="45.95947" lon="1.26005">
        <ele>439</ele>
        <time>2018-06-17T07:22:34.000Z</time>
      </trkpt>
      <trkpt lat="45.9595" lon="1.26013">
        <ele>440</ele>
        <time>2018-06-17T07:22:36.000Z</time>
      </trkpt>
      <trkpt lat="45.95953" lon="1.2602">
        <ele>440</ele>
        <time>2018-06-17T07:22:38.000Z</time>
      </trkpt>
      <trkpt lat="45.95957" lon="1.26026">
        <ele>441</ele>
        <time>2018-06-17T07:22:40.000Z</time>
      </trkpt>
      <trkpt lat="45.95975" lon="1.26043">
        <ele>441</ele>
        <time>2018-06-17T07:22:48.000Z</time>
      </trkpt>
      <trkpt lat="45.95985" lon="1.26058">
        <ele>441</ele>
        <time>2018-06-17T07:22:52.000Z</time>
      </trkpt>
      <trkpt lat="45.96002" lon="1.26101">
        <ele>440</ele>
        <time>2018-06-17T07:23:01.000Z</time>
      </trkpt>
      <trkpt lat="45.96015" lon="1.26145">
        <ele>440</ele>
        <time>2018-06-17T07:23:10.000Z</time>
      </trkpt>
      <trkpt lat="45.96018" lon="1.26178">
        <ele>441</ele>
        <time>2018-06-17T07:23:17.000Z</time>
      </trkpt>
      <trkpt lat="45.96022" lon="1.26186">
        <ele>441</ele>
        <time>2018-06-17T07:23:19.000Z</time>
      </trkpt>
      <trkpt lat="45.96038" lon="1.26198">
        <ele>442</ele>
        <time>2018-06-17T07:23:24.000Z</time>
      </trkpt>
      <trkpt lat="45.9606" lon="1.26201">
        <ele>444</ele>
        <time>2018-06-17T07:23:32.000Z</time>
      </trkpt>
      <trkpt lat="45.96077" lon="1.26193">
        <ele>445</ele>
        <time>2018-06-17T07:23:38.000Z</time>
      </trkpt>
      <trkpt lat="45.96098" lon="1.26176">
        <ele>446</ele>
        <time>2018-06-17T07:23:46.000Z</time>
      </trkpt>
      <trkpt lat="45.96133" lon="1.26154">
        <ele>449</ele>
        <time>2018-06-17T07:23:57.000Z</time>
      </trkpt>
      <trkpt lat="45.96176" lon="1.26126">
        <ele>450</ele>
        <time>2018-06-17T07:24:10.000Z</time>
      </trkpt>
      <trkpt lat="45.96179" lon="1.26121">
        <ele>450</ele>
        <time>2018-06-17T07:24:11.000Z</time>
      </trkpt>
      <trkpt lat="45.96187" lon="1.26103">
        <ele>451</ele>
        <time>2018-06-17T07:24:14.000Z</time>
      </trkpt>
      <trkpt lat="45.96205" lon="1.26039">
        <ele>448</ele>
        <time>2018-06-17T07:24:22.000Z</time>
      </trkpt>
      <trkpt lat="45.96208" lon="1.2603">
        <ele>448</ele>
        <time>2018-06-17T07:24:23.000Z</time>
      </trkpt>
      <trkpt lat="45.96212" lon="1.26021">
        <ele>447</ele>
        <time>2018-06-17T07:24:24.000Z</time>
      </trkpt>
      <trkpt lat="45.96245" lon="1.25967">
        <ele>440</ele>
        <time>2018-06-17T07:24:31.000Z</time>
      </trkpt>
      <trkpt lat="45.96249" lon="1.25959">
        <ele>439</ele>
        <time>2018-06-17T07:24:32.000Z</time>
      </trkpt>
      <trkpt lat="45.96263" lon="1.25919">
        <ele>435</ele>
        <time>2018-06-17T07:24:36.000Z</time>
      </trkpt>
      <trkpt lat="45.96272" lon="1.25893">
        <ele>432</ele>
        <time>2018-06-17T07:24:39.000Z</time>
      </trkpt>
      <trkpt lat="45.96289" lon="1.25876">
        <ele>429</ele>
        <time>2018-06-17T07:24:42.000Z</time>
      </trkpt>
      <trkpt lat="45.96309" lon="1.25868">
        <ele>427</ele>
        <time>2018-06-17T07:24:45.000Z</time>
      </trkpt>
      <trkpt lat="45.96335" lon="1.25867">
        <ele>427</ele>
        <time>2018-06-17T07:24:49.000Z</time>
      </trkpt>
      <trkpt lat="45.9638" lon="1.25876">
        <ele>424</ele>
        <time>2018-06-17T07:24:56.000Z</time>
      </trkpt>
      <trkpt lat="45.96387" lon="1.25876">
        <ele>424</ele>
        <time>2018-06-17T07:24:57.000Z</time>
      </trkpt>
      <trkpt lat="45.96437" lon="1.25885">
        <ele>421</ele>
        <time>2018-06-17T07:25:05.000Z</time>
      </trkpt>
      <trkpt lat="45.96442" lon="1.25889">
        <ele>421</ele>
        <time>2018-06-17T07:25:06.000Z</time>
      </trkpt>
      <trkpt lat="45.96461" lon="1.25897">
        <ele>420</ele>
        <time>2018-06-17T07:25:09.000Z</time>
      </trkpt>
      <trkpt lat="45.96511" lon="1.25915">
        <ele>419</ele>
        <time>2018-06-17T07:25:15.000Z</time>
      </trkpt>
      <trkpt lat="45.96519" lon="1.25919">
        <ele>418</ele>
        <time>2018-06-17T07:25:16.000Z</time>
      </trkpt>
      <trkpt lat="45.96563" lon="1.25941">
        <ele>415</ele>
        <time>2018-06-17T07:25:22.000Z</time>
      </trkpt>
      <trkpt lat="45.9657" lon="1.25943">
        <ele>414</ele>
        <time>2018-06-17T07:25:23.000Z</time>
      </trkpt>
      <trkpt lat="45.96588" lon="1.25951">
        <ele>413</ele>
        <time>2018-06-17T07:25:27.000Z</time>
      </trkpt>
      <trkpt lat="45.96587" lon="1.25962">
        <ele>412</ele>
        <time>2018-06-17T07:25:29.000Z</time>
      </trkpt>
      <trkpt lat="45.96574" lon="1.26021">
        <ele>413</ele>
        <time>2018-06-17T07:25:40.000Z</time>
      </trkpt>
      <trkpt lat="45.96573" lon="1.26025">
        <ele>413</ele>
        <time>2018-06-17T07:25:41.000Z</time>
      </trkpt>
      <trkpt lat="45.96573" lon="1.26031">
        <ele>414</ele>
        <time>2018-06-17T07:25:43.000Z</time>
      </trkpt>
      <trkpt lat="45.96574" lon="1.26059">
        <ele>420</ele>
        <time>2018-06-17T07:25:53.000Z</time>
      </trkpt>
      <trkpt lat="45.96577" lon="1.2607">
        <ele>422</ele>
        <time>2018-06-17T07:25:57.000Z</time>
      </trkpt>
      <trkpt lat="45.96587" lon="1.26086">
        <ele>424</ele>
        <time>2018-06-17T07:26:02.000Z</time>
      </trkpt>
      <trkpt lat="45.96596" lon="1.26106">
        <ele>424</ele>
        <time>2018-06-17T07:26:07.000Z</time>
      </trkpt>
      <trkpt lat="45.96603" lon="1.26127">
        <ele>423</ele>
        <time>2018-06-17T07:26:11.000Z</time>
      </trkpt>
      <trkpt lat="45.96608" lon="1.26148">
        <ele>421</ele>
        <time>2018-06-17T07:26:15.000Z</time>
      </trkpt>
      <trkpt lat="45.9661" lon="1.26164">
        <ele>421</ele>
        <time>2018-06-17T07:26:18.000Z</time>
      </trkpt>
      <trkpt lat="45.96617" lon="1.26189">
        <ele>419</ele>
        <time>2018-06-17T07:26:23.000Z</time>
      </trkpt>
      <trkpt lat="45.96619" lon="1.26198">
        <ele>418</ele>
        <time>2018-06-17T07:26:25.000Z</time>
      </trkpt>
      <trkpt lat="45.96625" lon="1.26207">
        <ele>418</ele>
        <time>2018-06-17T07:26:28.000Z</time>
      </trkpt>
      <trkpt lat="45.96634" lon="1.26205">
        <ele>417</ele>
        <time>2018-06-17T07:26:32.000Z</time>
      </trkpt>
      <trkpt lat="45.96641" lon="1.26198">
        <ele>420</ele>
        <time>2018-06-17T07:26:36.000Z</time>
      </trkpt>
      <trkpt lat="45.96678" lon="1.26182">
        <ele>427</ele>
        <time>2018-06-17T07:26:52.000Z</time>
      </trkpt>
      <trkpt lat="45.96693" lon="1.26185">
        <ele>428</ele>
        <time>2018-06-17T07:26:55.000Z</time>
      </trkpt>
      <trkpt lat="45.96709" lon="1.26196">
        <ele>429</ele>
        <time>2018-06-17T07:26:58.000Z</time>
      </trkpt>
      <trkpt lat="45.96725" lon="1.26188">
        <ele>429</ele>
        <time>2018-06-17T07:27:01.000Z</time>
      </trkpt>
      <trkpt lat="45.9675" lon="1.26169">
        <ele>428</ele>
        <time>2018-06-17T07:27:07.000Z</time>
      </trkpt>
      <trkpt lat="45.96764" lon="1.2616">
        <ele>428</ele>
        <time>2018-06-17T07:27:12.000Z</time>
      </trkpt>
      <trkpt lat="45.96809" lon="1.26136">
        <ele>423</ele>
        <time>2018-06-17T07:27:26.000Z</time>
      </trkpt>
      <trkpt lat="45.96813" lon="1.26135">
        <ele>424</ele>
        <time>2018-06-17T07:27:27.000Z</time>
      </trkpt>
      <trkpt lat="45.96825" lon="1.26127">
        <ele>425</ele>
        <time>2018-06-17T07:27:30.000Z</time>
      </trkpt>
      <trkpt lat="45.96854" lon="1.26098">
        <ele>428</ele>
        <time>2018-06-17T07:27:38.000Z</time>
      </trkpt>
      <trkpt lat="45.96859" lon="1.26102">
        <ele>427</ele>
        <time>2018-06-17T07:27:40.000Z</time>
      </trkpt>
      <trkpt lat="45.96876" lon="1.26112">
        <ele>426</ele>
        <time>2018-06-17T07:27:45.000Z</time>
      </trkpt>
      <trkpt lat="45.96911" lon="1.26128">
        <ele>423</ele>
        <time>2018-06-17T07:27:54.000Z</time>
      </trkpt>
      <trkpt lat="45.9693" lon="1.26146">
        <ele>419</ele>
        <time>2018-06-17T07:28:00.000Z</time>
      </trkpt>
      <trkpt lat="45.96968" lon="1.26189">
        <ele>414</ele>
        <time>2018-06-17T07:28:12.000Z</time>
      </trkpt>
      <trkpt lat="45.96972" lon="1.2619">
        <ele>414</ele>
        <time>2018-06-17T07:28:13.000Z</time>
      </trkpt>
      <trkpt lat="45.96991" lon="1.26192">
        <ele>414</ele>
        <time>2018-06-17T07:28:18.000Z</time>
      </trkpt>
      <trkpt lat="45.97033" lon="1.26195">
        <ele>415</ele>
        <time>2018-06-17T07:28:30.000Z</time>
      </trkpt>
      <trkpt lat="45.97036" lon="1.26197">
        <ele>415</ele>
        <time>2018-06-17T07:28:31.000Z</time>
      </trkpt>
      <trkpt lat="45.97083" lon="1.26204">
        <ele>420</ele>
        <time>2018-06-17T07:28:50.000Z</time>
      </trkpt>
      <trkpt lat="45.97086" lon="1.26204">
        <ele>421</ele>
        <time>2018-06-17T07:28:51.000Z</time>
      </trkpt>
      <trkpt lat="45.97132" lon="1.26203">
        <ele>425</ele>
        <time>2018-06-17T07:29:03.000Z</time>
      </trkpt>
      <trkpt lat="45.97134" lon="1.26205">
        <ele>425</ele>
        <time>2018-06-17T07:29:04.000Z</time>
      </trkpt>
      <trkpt lat="45.97135" lon="1.26207">
        <ele>425</ele>
        <time>2018-06-17T07:29:05.000Z</time>
      </trkpt>
      <trkpt lat="45.97136" lon="1.26217">
        <ele>425</ele>
        <time>2018-06-17T07:29:10.000Z</time>
      </trkpt>
      <trkpt lat="45.97133" lon="1.2623">
        <ele>424</ele>
        <time>2018-06-17T07:29:15.000Z</time>
      </trkpt>
      <trkpt lat="45.97127" lon="1.26249">
        <ele>424</ele>
        <time>2018-06-17T07:29:23.000Z</time>
      </trkpt>
      <trkpt lat="45.971" lon="1.26301">
        <ele>425</ele>
        <time>2018-06-17T07:29:42.000Z</time>
      </trkpt>
      <trkpt lat="45.97099" lon="1.26303">
        <ele>426</ele>
        <time>2018-06-17T07:29:43.000Z</time>
      </trkpt>
      <trkpt lat="45.97078" lon="1.26336">
        <ele>434</ele>
        <time>2018-06-17T07:30:05.000Z</time>
      </trkpt>
      <trkpt lat="45.97065" lon="1.26354">
        <ele>436</ele>
        <time>2018-06-17T07:30:19.000Z</time>
      </trkpt>
      <trkpt lat="45.97058" lon="1.26358">
        <ele>437</ele>
        <time>2018-06-17T07:30:24.000Z</time>
      </trkpt>
      <trkpt lat="45.97018" lon="1.26388">
        <ele>437</ele>
        <time>2018-06-17T07:30:47.000Z</time>
      </trkpt>
      <trkpt lat="45.97016" lon="1.2639">
        <ele>437</ele>
        <time>2018-06-17T07:30:48.000Z</time>
      </trkpt>
      <trkpt lat="45.97002" lon="1.26401">
        <ele>437</ele>
        <time>2018-06-17T07:30:56.000Z</time>
      </trkpt>
      <trkpt lat="45.96967" lon="1.26445">
        <ele>443</ele>
        <time>2018-06-17T07:31:24.000Z</time>
      </trkpt>
      <trkpt lat="45.96966" lon="1.26446">
        <ele>443</ele>
        <time>2018-06-17T07:31:25.000Z</time>
      </trkpt>
      <trkpt lat="45.96943" lon="1.26481">
        <ele>447</ele>
        <time>2018-06-17T07:31:44.000Z</time>
      </trkpt>
      <trkpt lat="45.96936" lon="1.26494">
        <ele>448</ele>
        <time>2018-06-17T07:31:50.000Z</time>
      </trkpt>
      <trkpt lat="45.9693" lon="1.26505">
        <ele>450</ele>
        <time>2018-06-17T07:31:56.000Z</time>
      </trkpt>
      <trkpt lat="45.96927" lon="1.26515">
        <ele>450</ele>
        <time>2018-06-17T07:32:00.000Z</time>
      </trkpt>
      <trkpt lat="45.96915" lon="1.26546">
        <ele>452</ele>
        <time>2018-06-17T07:32:12.000Z</time>
      </trkpt>
      <trkpt lat="45.96907" lon="1.26588">
        <ele>451</ele>
        <time>2018-06-17T07:32:27.000Z</time>
      </trkpt>
      <trkpt lat="45.969" lon="1.26609">
        <ele>451</ele>
        <time>2018-06-17T07:32:34.000Z</time>
      </trkpt>
      <trkpt lat="45.96892" lon="1.26632">
        <ele>453</ele>
        <time>2018-06-17T07:32:42.000Z</time>
      </trkpt>
      <trkpt lat="45.96874" lon="1.26693">
        <ele>458</ele>
        <time>2018-06-17T07:33:01.000Z</time>
      </trkpt>
      <trkpt lat="45.96873" lon="1.26696">
        <ele>458</ele>
        <time>2018-06-17T07:33:02.000Z</time>
      </trkpt>
      <trkpt lat="45.96872" lon="1.26707">
        <ele>459</ele>
        <time>2018-06-17T07:33:05.000Z</time>
      </trkpt>
      <trkpt lat="45.96874" lon="1.26718">
        <ele>460</ele>
        <time>2018-06-17T07:33:08.000Z</time>
      </trkpt>
      <trkpt lat="45.9688" lon="1.26733">
        <ele>462</ele>
        <time>2018-06-17T07:33:13.000Z</time>
      </trkpt>
      <trkpt lat="45.96896" lon="1.26764">
        <ele>464</ele>
        <time>2018-06-17T07:33:24.000Z</time>
      </trkpt>
      <trkpt lat="45.96905" lon="1.26778">
        <ele>462</ele>
        <time>2018-06-17T07:33:30.000Z</time>
      </trkpt>
      <trkpt lat="45.96899" lon="1.26779">
        <ele>463</ele>
        <time>2018-06-17T07:33:35.000Z</time>
      </trkpt>
      <trkpt lat="45.96891" lon="1.2678">
        <ele>464</ele>
        <time>2018-06-17T07:33:39.000Z</time>
      </trkpt>
      <trkpt lat="45.96865" lon="1.26776">
        <ele>464</ele>
        <time>2018-06-17T07:33:51.000Z</time>
      </trkpt>
      <trkpt lat="45.9682" lon="1.26751">
        <ele>460</ele>
        <time>2018-06-17T07:34:05.000Z</time>
      </trkpt>
      <trkpt lat="45.96818" lon="1.26749">
        <ele>460</ele>
        <time>2018-06-17T07:34:06.000Z</time>
      </trkpt>
      <trkpt lat="45.96775" lon="1.26717">
        <ele>461</ele>
        <time>2018-06-17T07:34:18.000Z</time>
      </trkpt>
      <trkpt lat="45.96771" lon="1.26714">
        <ele>461</ele>
        <time>2018-06-17T07:34:19.000Z</time>
      </trkpt>
      <trkpt lat="45.96728" lon="1.26681">
        <ele>463</ele>
        <time>2018-06-17T07:34:29.000Z</time>
      </trkpt>
      <trkpt lat="45.96723" lon="1.26679">
        <ele>463</ele>
        <time>2018-06-17T07:34:30.000Z</time>
      </trkpt>
      <trkpt lat="45.96713" lon="1.26677">
        <ele>463</ele>
        <time>2018-06-17T07:34:32.000Z</time>
      </trkpt>
      <trkpt lat="45.96666" lon="1.26686">
        <ele>464</ele>
        <time>2018-06-17T07:34:44.000Z</time>
      </trkpt>
      <trkpt lat="45.96661" lon="1.26687">
        <ele>464</ele>
        <time>2018-06-17T07:34:45.000Z</time>
      </trkpt>
      <trkpt lat="45.96632" lon="1.26687">
        <ele>465</ele>
        <time>2018-06-17T07:34:51.000Z</time>
      </trkpt>
      <trkpt lat="45.96605" lon="1.26674">
        <ele>463</ele>
        <time>2018-06-17T07:34:56.000Z</time>
      </trkpt>
      <trkpt lat="45.96561" lon="1.26635">
        <ele>465</ele>
        <time>2018-06-17T07:35:03.000Z</time>
      </trkpt>
      <trkpt lat="45.96555" lon="1.26631">
        <ele>465</ele>
        <time>2018-06-17T07:35:04.000Z</time>
      </trkpt>
      <trkpt lat="45.96508" lon="1.26608">
        <ele>466</ele>
        <time>2018-06-17T07:35:10.000Z</time>
      </trkpt>
      <trkpt lat="45.965" lon="1.26605">
        <ele>465</ele>
        <time>2018-06-17T07:35:11.000Z</time>
      </trkpt>
      <trkpt lat="45.96492" lon="1.26603">
        <ele>465</ele>
        <time>2018-06-17T07:35:12.000Z</time>
      </trkpt>
      <trkpt lat="45.96463" lon="1.26605">
        <ele>462</ele>
        <time>2018-06-17T07:35:16.000Z</time>
      </trkpt>
      <trkpt lat="45.96428" lon="1.26606">
        <ele>456</ele>
        <time>2018-06-17T07:35:21.000Z</time>
      </trkpt>
      <trkpt lat="45.96398" lon="1.26597">
        <ele>450</ele>
        <time>2018-06-17T07:35:27.000Z</time>
      </trkpt>
      <trkpt lat="45.96366" lon="1.26559">
        <ele>445</ele>
        <time>2018-06-17T07:35:35.000Z</time>
      </trkpt>
      <trkpt lat="45.96365" lon="1.26553">
        <ele>445</ele>
        <time>2018-06-17T07:35:36.000Z</time>
      </trkpt>
      <trkpt lat="45.96365" lon="1.26548">
        <ele>445</ele>
        <time>2018-06-17T07:35:37.000Z</time>
      </trkpt>
      <trkpt lat="45.96363" lon="1.26528">
        <ele>445</ele>
        <time>2018-06-17T07:35:40.000Z</time>
      </trkpt>
      <trkpt lat="45.96354" lon="1.26512">
        <ele>444</ele>
        <time>2018-06-17T07:35:43.000Z</time>
      </trkpt>
      <trkpt lat="45.96341" lon="1.26499">
        <ele>444</ele>
        <time>2018-06-17T07:35:48.000Z</time>
      </trkpt>
      <trkpt lat="45.96324" lon="1.26491">
        <ele>444</ele>
        <time>2018-06-17T07:35:56.000Z</time>
      </trkpt>
      <trkpt lat="45.96294" lon="1.26491">
        <ele>443</ele>
        <time>2018-06-17T07:36:07.000Z</time>
      </trkpt>
      <trkpt lat="45.96249" lon="1.26484">
        <ele>442</ele>
        <time>2018-06-17T07:36:22.000Z</time>
      </trkpt>
      <trkpt lat="45.96246" lon="1.26483">
        <ele>442</ele>
        <time>2018-06-17T07:36:23.000Z</time>
      </trkpt>
      <trkpt lat="45.96236" lon="1.26483">
        <ele>442</ele>
        <time>2018-06-17T07:36:27.000Z</time>
      </trkpt>
      <trkpt lat="45.96233" lon="1.26495">
        <ele>443</ele>
        <time>2018-06-17T07:36:31.000Z</time>
      </trkpt>
      <trkpt lat="45.96229" lon="1.26544">
        <ele>444</ele>
        <time>2018-06-17T07:36:44.000Z</time>
      </trkpt>
      <trkpt lat="45.96226" lon="1.26556">
        <ele>445</ele>
        <time>2018-06-17T07:36:48.000Z</time>
      </trkpt>
      <trkpt lat="45.96218" lon="1.2657">
        <ele>446</ele>
        <time>2018-06-17T07:36:54.000Z</time>
      </trkpt>
      <trkpt lat="45.96189" lon="1.2661">
        <ele>447</ele>
        <time>2018-06-17T07:37:11.000Z</time>
      </trkpt>
      <trkpt lat="45.96168" lon="1.26663">
        <ele>451</ele>
        <time>2018-06-17T07:37:32.000Z</time>
      </trkpt>
      <trkpt lat="45.96165" lon="1.26679">
        <ele>455</ele>
        <time>2018-06-17T07:37:40.000Z</time>
      </trkpt>
      <trkpt lat="45.96168" lon="1.26698">
        <ele>457</ele>
        <time>2018-06-17T07:37:48.000Z</time>
      </trkpt>
      <trkpt lat="45.96174" lon="1.2671">
        <ele>459</ele>
        <time>2018-06-17T07:37:54.000Z</time>
      </trkpt>
      <trkpt lat="45.96178" lon="1.26715">
        <ele>461</ele>
        <time>2018-06-17T07:37:58.000Z</time>
      </trkpt>
      <trkpt lat="45.96184" lon="1.26732">
        <ele>463</ele>
        <time>2018-06-17T07:38:08.000Z</time>
      </trkpt>
      <trkpt lat="45.96186" lon="1.26739">
        <ele>464</ele>
        <time>2018-06-17T07:38:12.000Z</time>
      </trkpt>
      <trkpt lat="45.96194" lon="1.26754">
        <ele>462</ele>
        <time>2018-06-17T07:38:20.000Z</time>
      </trkpt>
      <trkpt lat="45.96198" lon="1.26763">
        <ele>462</ele>
        <time>2018-06-17T07:38:24.000Z</time>
      </trkpt>
      <trkpt lat="45.96201" lon="1.26774">
        <ele>462</ele>
        <time>2018-06-17T07:38:28.000Z</time>
      </trkpt>
      <trkpt lat="45.96215" lon="1.26792">
        <ele>465</ele>
        <time>2018-06-17T07:38:38.000Z</time>
      </trkpt>
      <trkpt lat="45.96221" lon="1.26797">
        <ele>466</ele>
        <time>2018-06-17T07:38:42.000Z</time>
      </trkpt>
      <trkpt lat="45.96225" lon="1.26804">
        <ele>468</ele>
        <time>2018-06-17T07:38:45.000Z</time>
      </trkpt>
      <trkpt lat="45.96235" lon="1.26816">
        <ele>470</ele>
        <time>2018-06-17T07:38:51.000Z</time>
      </trkpt>
      <trkpt lat="45.96262" lon="1.26845">
        <ele>471</ele>
        <time>2018-06-17T07:39:04.000Z</time>
      </trkpt>
      <trkpt lat="45.96288" lon="1.2688">
        <ele>470</ele>
        <time>2018-06-17T07:39:15.000Z</time>
      </trkpt>
      <trkpt lat="45.96308" lon="1.26918">
        <ele>469</ele>
        <time>2018-06-17T07:39:26.000Z</time>
      </trkpt>
      <trkpt lat="45.96315" lon="1.26938">
        <ele>470</ele>
        <time>2018-06-17T07:39:31.000Z</time>
      </trkpt>
      <trkpt lat="45.96329" lon="1.26978">
        <ele>472</ele>
        <time>2018-06-17T07:39:40.000Z</time>
      </trkpt>
      <trkpt lat="45.96344" lon="1.27044">
        <ele>476</ele>
        <time>2018-06-17T07:39:54.000Z</time>
      </trkpt>
      <trkpt lat="45.96345" lon="1.27049">
        <ele>476</ele>
        <time>2018-06-17T07:39:55.000Z</time>
      </trkpt>
      <trkpt lat="45.96348" lon="1.2708">
        <ele>477</ele>
        <time>2018-06-17T07:40:01.000Z</time>
      </trkpt>
      <trkpt lat="45.96352" lon="1.27149">
        <ele>480</ele>
        <time>2018-06-17T07:40:15.000Z</time>
      </trkpt>
      <trkpt lat="45.96352" lon="1.27154">
        <ele>480</ele>
        <time>2018-06-17T07:40:16.000Z</time>
      </trkpt>
      <trkpt lat="45.96351" lon="1.27164">
        <ele>480</ele>
        <time>2018-06-17T07:40:18.000Z</time>
      </trkpt>
      <trkpt lat="45.96347" lon="1.27188">
        <ele>482</ele>
        <time>2018-06-17T07:40:23.000Z</time>
      </trkpt>
      <trkpt lat="45.96348" lon="1.27201">
        <ele>483</ele>
        <time>2018-06-17T07:40:26.000Z</time>
      </trkpt>
      <trkpt lat="45.96354" lon="1.27246">
        <ele>486</ele>
        <time>2018-06-17T07:40:36.000Z</time>
      </trkpt>
      <trkpt lat="45.9636" lon="1.27299">
        <ele>487</ele>
        <time>2018-06-17T07:40:48.000Z</time>
      </trkpt>
      <trkpt lat="45.96372" lon="1.27362">
        <ele>489</ele>
        <time>2018-06-17T07:41:02.000Z</time>
      </trkpt>
      <trkpt lat="45.96373" lon="1.27366">
        <ele>489</ele>
        <time>2018-06-17T07:41:03.000Z</time>
      </trkpt>
      <trkpt lat="45.96373" lon="1.27379">
        <ele>489</ele>
        <time>2018-06-17T07:41:06.000Z</time>
      </trkpt>
      <trkpt lat="45.96376" lon="1.27425">
        <ele>490</ele>
        <time>2018-06-17T07:41:16.000Z</time>
      </trkpt>
      <trkpt lat="45.96381" lon="1.27456">
        <ele>490</ele>
        <time>2018-06-17T07:41:23.000Z</time>
      </trkpt>
      <trkpt lat="45.96385" lon="1.27481">
        <ele>491</ele>
        <time>2018-06-17T07:41:29.000Z</time>
      </trkpt>
      <trkpt lat="45.9639" lon="1.27496">
        <ele>491</ele>
        <time>2018-06-17T07:41:33.000Z</time>
      </trkpt>
      <trkpt lat="45.96392" lon="1.27503">
        <ele>492</ele>
        <time>2018-06-17T07:41:35.000Z</time>
      </trkpt>
      <trkpt lat="45.96407" lon="1.27541">
        <ele>494</ele>
        <time>2018-06-17T07:41:45.000Z</time>
      </trkpt>
      <trkpt lat="45.96428" lon="1.27602">
        <ele>496</ele>
        <time>2018-06-17T07:42:02.000Z</time>
      </trkpt>
      <trkpt lat="45.9643" lon="1.27606">
        <ele>496</ele>
        <time>2018-06-17T07:42:03.000Z</time>
      </trkpt>
      <trkpt lat="45.96439" lon="1.27646">
        <ele>496</ele>
        <time>2018-06-17T07:42:13.000Z</time>
      </trkpt>
      <trkpt lat="45.96441" lon="1.27711">
        <ele>499</ele>
        <time>2018-06-17T07:42:30.000Z</time>
      </trkpt>
      <trkpt lat="45.96441" lon="1.27715">
        <ele>499</ele>
        <time>2018-06-17T07:42:31.000Z</time>
      </trkpt>
      <trkpt lat="45.96444" lon="1.2778">
        <ele>503</ele>
        <time>2018-06-17T07:42:48.000Z</time>
      </trkpt>
      <trkpt lat="45.96444" lon="1.27784">
        <ele>503</ele>
        <time>2018-06-17T07:42:49.000Z</time>
      </trkpt>
      <trkpt lat="45.96442" lon="1.27822">
        <ele>506</ele>
        <time>2018-06-17T07:43:00.000Z</time>
      </trkpt>
      <trkpt lat="45.96432" lon="1.27843">
        <ele>508</ele>
        <time>2018-06-17T07:43:08.000Z</time>
      </trkpt>
      <trkpt lat="45.96405" lon="1.27878">
        <ele>510</ele>
        <time>2018-06-17T07:43:24.000Z</time>
      </trkpt>
      <trkpt lat="45.96381" lon="1.27902">
        <ele>512</ele>
        <time>2018-06-17T07:43:36.000Z</time>
      </trkpt>
      <trkpt lat="45.96343" lon="1.27941">
        <ele>519</ele>
        <time>2018-06-17T07:43:54.000Z</time>
      </trkpt>
      <trkpt lat="45.9634" lon="1.27944">
        <ele>519</ele>
        <time>2018-06-17T07:43:55.000Z</time>
      </trkpt>
      <trkpt lat="45.96302" lon="1.27984">
        <ele>523</ele>
        <time>2018-06-17T07:44:10.000Z</time>
      </trkpt>
      <trkpt lat="45.963" lon="1.27984">
        <ele>523</ele>
        <time>2018-06-17T07:44:11.000Z</time>
      </trkpt>
      <trkpt lat="45.96298" lon="1.27984">
        <ele>523</ele>
        <time>2018-06-17T07:44:12.000Z</time>
      </trkpt>
      <trkpt lat="45.96292" lon="1.27978">
        <ele>523</ele>
        <time>2018-06-17T07:44:15.000Z</time>
      </trkpt>
      <trkpt lat="45.96287" lon="1.27965">
        <ele>525</ele>
        <time>2018-06-17T07:44:23.000Z</time>
      </trkpt>
      <trkpt lat="45.9628" lon="1.27961">
        <ele>527</ele>
        <time>2018-06-17T07:44:28.000Z</time>
      </trkpt>
      <trkpt lat="45.96271" lon="1.27958">
        <ele>528</ele>
        <time>2018-06-17T07:44:32.000Z</time>
      </trkpt>
      <trkpt lat="45.96231" lon="1.27962">
        <ele>529</ele>
        <time>2018-06-17T07:44:50.000Z</time>
      </trkpt>
      <trkpt lat="45.96216" lon="1.27966">
        <ele>532</ele>
        <time>2018-06-17T07:44:58.000Z</time>
      </trkpt>
      <trkpt lat="45.9621" lon="1.27972">
        <ele>533</ele>
        <time>2018-06-17T07:45:01.000Z</time>
      </trkpt>
      <trkpt lat="45.9619" lon="1.27992">
        <ele>537</ele>
        <time>2018-06-17T07:45:10.000Z</time>
      </trkpt>
      <trkpt lat="45.96178" lon="1.28002">
        <ele>538</ele>
        <time>2018-06-17T07:45:16.000Z</time>
      </trkpt>
      <trkpt lat="45.96166" lon="1.28007">
        <ele>538</ele>
        <time>2018-06-17T07:45:20.000Z</time>
      </trkpt>
      <trkpt lat="45.96158" lon="1.28015">
        <ele>537</ele>
        <time>2018-06-17T07:45:23.000Z</time>
      </trkpt>
      <trkpt lat="45.96151" lon="1.28026">
        <ele>536</ele>
        <time>2018-06-17T07:45:26.000Z</time>
      </trkpt>
      <trkpt lat="45.9614" lon="1.28038">
        <ele>535</ele>
        <time>2018-06-17T07:45:30.000Z</time>
      </trkpt>
      <trkpt lat="45.9613" lon="1.28041">
        <ele>534</ele>
        <time>2018-06-17T07:45:32.000Z</time>
      </trkpt>
      <trkpt lat="45.96079" lon="1.28028">
        <ele>529</ele>
        <time>2018-06-17T07:45:40.000Z</time>
      </trkpt>
      <trkpt lat="45.96074" lon="1.28024">
        <ele>528</ele>
        <time>2018-06-17T07:45:41.000Z</time>
      </trkpt>
      <trkpt lat="45.96054" lon="1.28005">
        <ele>524</ele>
        <time>2018-06-17T07:45:46.000Z</time>
      </trkpt>
      <trkpt lat="45.96042" lon="1.28007">
        <ele>522</ele>
        <time>2018-06-17T07:45:49.000Z</time>
      </trkpt>
      <trkpt lat="45.96031" lon="1.28003">
        <ele>521</ele>
        <time>2018-06-17T07:45:53.000Z</time>
      </trkpt>
      <trkpt lat="45.96018" lon="1.27996">
        <ele>521</ele>
        <time>2018-06-17T07:46:00.000Z</time>
      </trkpt>
      <trkpt lat="45.96009" lon="1.27988">
        <ele>526</ele>
        <time>2018-06-17T07:46:07.000Z</time>
      </trkpt>
      <trkpt lat="45.96003" lon="1.27983">
        <ele>529</ele>
        <time>2018-06-17T07:46:11.000Z</time>
      </trkpt>
      <trkpt lat="45.95998" lon="1.27981">
        <ele>533</ele>
        <time>2018-06-17T07:46:15.000Z</time>
      </trkpt>
      <trkpt lat="45.95991" lon="1.2798">
        <ele>536</ele>
        <time>2018-06-17T07:46:19.000Z</time>
      </trkpt>
      <trkpt lat="45.95984" lon="1.27978">
        <ele>538</ele>
        <time>2018-06-17T07:46:23.000Z</time>
      </trkpt>
      <trkpt lat="45.95967" lon="1.27972">
        <ele>538</ele>
        <time>2018-06-17T07:46:33.000Z</time>
      </trkpt>
      <trkpt lat="45.95954" lon="1.27965">
        <ele>536</ele>
        <time>2018-06-17T07:46:41.000Z</time>
      </trkpt>
      <trkpt lat="45.95951" lon="1.27956">
        <ele>537</ele>
        <time>2018-06-17T07:46:45.000Z</time>
      </trkpt>
      <trkpt lat="45.9594" lon="1.27952">
        <ele>538</ele>
        <time>2018-06-17T07:46:51.000Z</time>
      </trkpt>
      <trkpt lat="45.95921" lon="1.27935">
        <ele>538</ele>
        <time>2018-06-17T07:47:00.000Z</time>
      </trkpt>
      <trkpt lat="45.95896" lon="1.27916">
        <ele>543</ele>
        <time>2018-06-17T07:47:09.000Z</time>
      </trkpt>
      <trkpt lat="45.95886" lon="1.27903">
        <ele>544</ele>
        <time>2018-06-17T07:47:13.000Z</time>
      </trkpt>
      <trkpt lat="45.95884" lon="1.27894">
        <ele>545</ele>
        <time>2018-06-17T07:47:15.000Z</time>
      </trkpt>
      <trkpt lat="45.95881" lon="1.27886">
        <ele>545</ele>
        <time>2018-06-17T07:47:18.000Z</time>
      </trkpt>
      <trkpt lat="45.95847" lon="1.27843">
        <ele>545</ele>
        <time>2018-06-17T07:47:29.000Z</time>
      </trkpt>
      <trkpt lat="45.95843" lon="1.27838">
        <ele>545</ele>
        <time>2018-06-17T07:47:30.000Z</time>
      </trkpt>
      <trkpt lat="45.95809" lon="1.27793">
        <ele>545</ele>
        <time>2018-06-17T07:47:40.000Z</time>
      </trkpt>
      <trkpt lat="45.95805" lon="1.27787">
        <ele>545</ele>
        <time>2018-06-17T07:47:41.000Z</time>
      </trkpt>
      <trkpt lat="45.95797" lon="1.2778">
        <ele>544</ele>
        <time>2018-06-17T07:47:43.000Z</time>
      </trkpt>
      <trkpt lat="45.95787" lon="1.27773">
        <ele>544</ele>
        <time>2018-06-17T07:47:46.000Z</time>
      </trkpt>
      <trkpt lat="45.95779" lon="1.27761">
        <ele>543</ele>
        <time>2018-06-17T07:47:49.000Z</time>
      </trkpt>
      <trkpt lat="45.95765" lon="1.27754">
        <ele>541</ele>
        <time>2018-06-17T07:47:52.000Z</time>
      </trkpt>
      <trkpt lat="45.95718" lon="1.27734">
        <ele>532</ele>
        <time>2018-06-17T07:48:01.000Z</time>
      </trkpt>
      <trkpt lat="45.95715" lon="1.27732">
        <ele>531</ele>
        <time>2018-06-17T07:48:02.000Z</time>
      </trkpt>
      <trkpt lat="45.95709" lon="1.27731">
        <ele>528</ele>
        <time>2018-06-17T07:48:04.000Z</time>
      </trkpt>
      <trkpt lat="45.95705" lon="1.27737">
        <ele>523</ele>
        <time>2018-06-17T07:48:09.000Z</time>
      </trkpt>
      <trkpt lat="45.95702" lon="1.27743">
        <ele>521</ele>
        <time>2018-06-17T07:48:14.000Z</time>
      </trkpt>
      <trkpt lat="45.95691" lon="1.27755">
        <ele>523</ele>
        <time>2018-06-17T07:48:21.000Z</time>
      </trkpt>
      <trkpt lat="45.95671" lon="1.27765">
        <ele>523</ele>
        <time>2018-06-17T07:48:44.000Z</time>
      </trkpt>
      <trkpt lat="45.95666" lon="1.27768">
        <ele>519</ele>
        <time>2018-06-17T07:50:29.000Z</time>
      </trkpt>
      <trkpt lat="45.95659" lon="1.27783">
        <ele>517</ele>
        <time>2018-06-17T07:50:34.000Z</time>
      </trkpt>
      <trkpt lat="45.95649" lon="1.27796">
        <ele>515</ele>
        <time>2018-06-17T07:50:38.000Z</time>
      </trkpt>
      <trkpt lat="45.9563" lon="1.27813">
        <ele>510</ele>
        <time>2018-06-17T07:50:44.000Z</time>
      </trkpt>
      <trkpt lat="45.95595" lon="1.27827">
        <ele>502</ele>
        <time>2018-06-17T07:50:53.000Z</time>
      </trkpt>
      <trkpt lat="45.95552" lon="1.27853">
        <ele>490</ele>
        <time>2018-06-17T07:51:03.000Z</time>
      </trkpt>
      <trkpt lat="45.95547" lon="1.27856">
        <ele>489</ele>
        <time>2018-06-17T07:51:04.000Z</time>
      </trkpt>
      <trkpt lat="45.95526" lon="1.27868">
        <ele>482</ele>
        <time>2018-06-17T07:51:12.000Z</time>
      </trkpt>
      <trkpt lat="45.95523" lon="1.27883">
        <ele>479</ele>
        <time>2018-06-17T07:51:18.000Z</time>
      </trkpt>
      <trkpt lat="45.95519" lon="1.27889">
        <ele>477</ele>
        <time>2018-06-17T07:51:22.000Z</time>
      </trkpt>
      <trkpt lat="45.95512" lon="1.27887">
        <ele>476</ele>
        <time>2018-06-17T07:51:26.000Z</time>
      </trkpt>
      <trkpt lat="45.95507" lon="1.27887">
        <ele>474</ele>
        <time>2018-06-17T07:51:30.000Z</time>
      </trkpt>
      <trkpt lat="45.95506" lon="1.27895">
        <ele>474</ele>
        <time>2018-06-17T07:51:35.000Z</time>
      </trkpt>
      <trkpt lat="45.95507" lon="1.27904">
        <ele>474</ele>
        <time>2018-06-17T07:51:40.000Z</time>
      </trkpt>
      <trkpt lat="45.95509" lon="1.27914">
        <ele>474</ele>
        <time>2018-06-17T07:51:43.000Z</time>
      </trkpt>
      <trkpt lat="45.95513" lon="1.2792">
        <ele>473</ele>
        <time>2018-06-17T07:51:46.000Z</time>
      </trkpt>
      <trkpt lat="45.95518" lon="1.27926">
        <ele>476</ele>
        <time>2018-06-17T07:52:00.000Z</time>
      </trkpt>
      <trkpt lat="45.95524" lon="1.27927">
        <ele>480</ele>
        <time>2018-06-17T07:52:10.000Z</time>
      </trkpt>
      <trkpt lat="45.9553" lon="1.27928">
        <ele>485</ele>
        <time>2018-06-17T07:52:19.000Z</time>
      </trkpt>
      <trkpt lat="45.95535" lon="1.27933">
        <ele>488</ele>
        <time>2018-06-17T07:52:26.000Z</time>
      </trkpt>
      <trkpt lat="45.9554" lon="1.27936">
        <ele>491</ele>
        <time>2018-06-17T07:52:33.000Z</time>
      </trkpt>
      <trkpt lat="45.95546" lon="1.27939">
        <ele>493</ele>
        <time>2018-06-17T07:52:39.000Z</time>
      </trkpt>
      <trkpt lat="45.95553" lon="1.2794">
        <ele>493</ele>
        <time>2018-06-17T07:52:44.000Z</time>
      </trkpt>
      <trkpt lat="45.95588" lon="1.27955">
        <ele>497</ele>
        <time>2018-06-17T07:53:16.000Z</time>
      </trkpt>
      <trkpt lat="45.95594" lon="1.27957">
        <ele>496</ele>
        <time>2018-06-17T07:53:20.000Z</time>
      </trkpt>
      <trkpt lat="45.956" lon="1.27957">
        <ele>496</ele>
        <time>2018-06-17T07:53:24.000Z</time>
      </trkpt>
      <trkpt lat="45.95624" lon="1.2796">
        <ele>499</ele>
        <time>2018-06-17T07:53:39.000Z</time>
      </trkpt>
      <trkpt lat="45.95652" lon="1.27965">
        <ele>502</ele>
        <time>2018-06-17T07:53:55.000Z</time>
      </trkpt>
      <trkpt lat="45.95661" lon="1.27967">
        <ele>504</ele>
        <time>2018-06-17T07:54:02.000Z</time>
      </trkpt>
      <trkpt lat="45.95671" lon="1.27968">
        <ele>506</ele>
        <time>2018-06-17T07:54:08.000Z</time>
      </trkpt>
      <trkpt lat="45.95718" lon="1.27974">
        <ele>512</ele>
        <time>2018-06-17T07:54:34.000Z</time>
      </trkpt>
      <trkpt lat="45.95719" lon="1.27974">
        <ele>512</ele>
        <time>2018-06-17T07:54:35.000Z</time>
      </trkpt>
      <trkpt lat="45.95736" lon="1.27979">
        <ele>514</ele>
        <time>2018-06-17T07:54:45.000Z</time>
      </trkpt>
      <trkpt lat="45.95752" lon="1.27989">
        <ele>514</ele>
        <time>2018-06-17T07:54:53.000Z</time>
      </trkpt>
      <trkpt lat="45.9576" lon="1.27992">
        <ele>513</ele>
        <time>2018-06-17T07:54:57.000Z</time>
      </trkpt>
      <trkpt lat="45.95771" lon="1.27997">
        <ele>512</ele>
        <time>2018-06-17T07:55:03.000Z</time>
      </trkpt>
      <trkpt lat="45.95814" lon="1.28016">
        <ele>510</ele>
        <time>2018-06-17T07:55:29.000Z</time>
      </trkpt>
      <trkpt lat="45.95815" lon="1.28016">
        <ele>509</ele>
        <time>2018-06-17T07:55:30.000Z</time>
      </trkpt>
      <trkpt lat="45.95818" lon="1.28017">
        <ele>509</ele>
        <time>2018-06-17T07:55:32.000Z</time>
      </trkpt>
      <trkpt lat="45.95832" lon="1.28021">
        <ele>508</ele>
        <time>2018-06-17T07:55:42.000Z</time>
      </trkpt>
      <trkpt lat="45.95877" lon="1.28029">
        <ele>516</ele>
        <time>2018-06-17T07:56:06.000Z</time>
      </trkpt>
      <trkpt lat="45.9588" lon="1.28029">
        <ele>516</ele>
        <time>2018-06-17T07:56:07.000Z</time>
      </trkpt>
      <trkpt lat="45.95925" lon="1.28036">
        <ele>522</ele>
        <time>2018-06-17T07:56:26.000Z</time>
      </trkpt>
      <trkpt lat="45.95927" lon="1.28036">
        <ele>522</ele>
        <time>2018-06-17T07:56:27.000Z</time>
      </trkpt>
      <trkpt lat="45.95945" lon="1.28033">
        <ele>521</ele>
        <time>2018-06-17T07:56:36.000Z</time>
      </trkpt>
      <trkpt lat="45.95969" lon="1.28028">
        <ele>524</ele>
        <time>2018-06-17T07:56:48.000Z</time>
      </trkpt>
      <trkpt lat="45.96006" lon="1.28037">
        <ele>533</ele>
        <time>2018-06-17T07:57:09.000Z</time>
      </trkpt>
      <trkpt lat="45.96023" lon="1.28051">
        <ele>535</ele>
        <time>2018-06-17T07:57:17.000Z</time>
      </trkpt>
      <trkpt lat="45.96046" lon="1.2808">
        <ele>534</ele>
        <time>2018-06-17T07:57:25.000Z</time>
      </trkpt>
      <trkpt lat="45.9607" lon="1.28129">
        <ele>532</ele>
        <time>2018-06-17T07:57:34.000Z</time>
      </trkpt>
      <trkpt lat="45.96073" lon="1.28133">
        <ele>531</ele>
        <time>2018-06-17T07:57:35.000Z</time>
      </trkpt>
      <trkpt lat="45.96091" lon="1.2815">
        <ele>530</ele>
        <time>2018-06-17T07:57:39.000Z</time>
      </trkpt>
      <trkpt lat="45.96112" lon="1.28163">
        <ele>528</ele>
        <time>2018-06-17T07:57:43.000Z</time>
      </trkpt>
      <trkpt lat="45.96153" lon="1.28167">
        <ele>524</ele>
        <time>2018-06-17T07:57:50.000Z</time>
      </trkpt>
      <trkpt lat="45.96159" lon="1.28175">
        <ele>523</ele>
        <time>2018-06-17T07:57:52.000Z</time>
      </trkpt>
      <trkpt lat="45.96161" lon="1.28187">
        <ele>522</ele>
        <time>2018-06-17T07:57:54.000Z</time>
      </trkpt>
      <trkpt lat="45.96166" lon="1.28221">
        <ele>522</ele>
        <time>2018-06-17T07:57:59.000Z</time>
      </trkpt>
      <trkpt lat="45.96179" lon="1.28269">
        <ele>524</ele>
        <time>2018-06-17T07:58:08.000Z</time>
      </trkpt>
      <trkpt lat="45.96181" lon="1.28277">
        <ele>524</ele>
        <time>2018-06-17T07:58:10.000Z</time>
      </trkpt>
      <trkpt lat="45.96189" lon="1.28307">
        <ele>523</ele>
        <time>2018-06-17T07:58:17.000Z</time>
      </trkpt>
      <trkpt lat="45.96199" lon="1.28338">
        <ele>521</ele>
        <time>2018-06-17T07:58:24.000Z</time>
      </trkpt>
      <trkpt lat="45.96208" lon="1.28362">
        <ele>520</ele>
        <time>2018-06-17T07:58:31.000Z</time>
      </trkpt>
      <trkpt lat="45.9621" lon="1.2837">
        <ele>520</ele>
        <time>2018-06-17T07:58:33.000Z</time>
      </trkpt>
      <trkpt lat="45.96218" lon="1.28389">
        <ele>521</ele>
        <time>2018-06-17T07:58:39.000Z</time>
      </trkpt>
      <trkpt lat="45.96225" lon="1.284">
        <ele>521</ele>
        <time>2018-06-17T07:58:42.000Z</time>
      </trkpt>
      <trkpt lat="45.96246" lon="1.28422">
        <ele>523</ele>
        <time>2018-06-17T07:58:49.000Z</time>
      </trkpt>
      <trkpt lat="45.96261" lon="1.28431">
        <ele>524</ele>
        <time>2018-06-17T07:58:53.000Z</time>
      </trkpt>
      <trkpt lat="45.96267" lon="1.28438">
        <ele>524</ele>
        <time>2018-06-17T07:58:55.000Z</time>
      </trkpt>
      <trkpt lat="45.96298" lon="1.28482">
        <ele>522</ele>
        <time>2018-06-17T07:59:01.000Z</time>
      </trkpt>
      <trkpt lat="45.96305" lon="1.28485">
        <ele>522</ele>
        <time>2018-06-17T07:59:02.000Z</time>
      </trkpt>
      <trkpt lat="45.9635" lon="1.28503">
        <ele>522</ele>
        <time>2018-06-17T07:59:11.000Z</time>
      </trkpt>
      <trkpt lat="45.96354" lon="1.28504">
        <ele>522</ele>
        <time>2018-06-17T07:59:12.000Z</time>
      </trkpt>
      <trkpt lat="45.96358" lon="1.28503">
        <ele>524</ele>
        <time>2018-06-17T07:59:14.000Z</time>
      </trkpt>
      <trkpt lat="45.96371" lon="1.285">
        <ele>530</ele>
        <time>2018-06-17T07:59:20.000Z</time>
      </trkpt>
      <trkpt lat="45.96402" lon="1.28482">
        <ele>539</ele>
        <time>2018-06-17T07:59:31.000Z</time>
      </trkpt>
      <trkpt lat="45.96447" lon="1.28448">
        <ele>538</ele>
        <time>2018-06-17T07:59:39.000Z</time>
      </trkpt>
      <trkpt lat="45.96453" lon="1.28444">
        <ele>537</ele>
        <time>2018-06-17T07:59:40.000Z</time>
      </trkpt>
      <trkpt lat="45.9646" lon="1.28441">
        <ele>536</ele>
        <time>2018-06-17T07:59:41.000Z</time>
      </trkpt>
      <trkpt lat="45.96508" lon="1.28429">
        <ele>529</ele>
        <time>2018-06-17T07:59:47.000Z</time>
      </trkpt>
      <trkpt lat="45.96516" lon="1.28429">
        <ele>528</ele>
        <time>2018-06-17T07:59:48.000Z</time>
      </trkpt>
      <trkpt lat="45.96562" lon="1.28433">
        <ele>521</ele>
        <time>2018-06-17T07:59:53.000Z</time>
      </trkpt>
      <trkpt lat="45.96571" lon="1.28434">
        <ele>520</ele>
        <time>2018-06-17T07:59:54.000Z</time>
      </trkpt>
      <trkpt lat="45.96606" lon="1.28442">
        <ele>514</ele>
        <time>2018-06-17T07:59:58.000Z</time>
      </trkpt>
      <trkpt lat="45.96653" lon="1.28461">
        <ele>507</ele>
        <time>2018-06-17T08:00:04.000Z</time>
      </trkpt>
      <trkpt lat="45.96661" lon="1.28463">
        <ele>507</ele>
        <time>2018-06-17T08:00:05.000Z</time>
      </trkpt>
      <trkpt lat="45.96705" lon="1.28474">
        <ele>502</ele>
        <time>2018-06-17T08:00:15.000Z</time>
      </trkpt>
      <trkpt lat="45.9671" lon="1.28474">
        <ele>501</ele>
        <time>2018-06-17T08:00:16.000Z</time>
      </trkpt>
      <trkpt lat="45.96733" lon="1.28477">
        <ele>498</ele>
        <time>2018-06-17T08:00:20.000Z</time>
      </trkpt>
      <trkpt lat="45.96779" lon="1.28504">
        <ele>494</ele>
        <time>2018-06-17T08:00:28.000Z</time>
      </trkpt>
      <trkpt lat="45.96786" lon="1.28503">
        <ele>494</ele>
        <time>2018-06-17T08:00:29.000Z</time>
      </trkpt>
      <trkpt lat="45.96834" lon="1.28493">
        <ele>492</ele>
        <time>2018-06-17T08:00:35.000Z</time>
      </trkpt>
      <trkpt lat="45.96842" lon="1.28492">
        <ele>492</ele>
        <time>2018-06-17T08:00:36.000Z</time>
      </trkpt>
      <trkpt lat="45.96879" lon="1.28492">
        <ele>491</ele>
        <time>2018-06-17T08:00:42.000Z</time>
      </trkpt>
      <trkpt lat="45.96894" lon="1.28496">
        <ele>493</ele>
        <time>2018-06-17T08:00:46.000Z</time>
      </trkpt>
      <trkpt lat="45.96914" lon="1.2849">
        <ele>498</ele>
        <time>2018-06-17T08:00:53.000Z</time>
      </trkpt>
      <trkpt lat="45.96938" lon="1.28477">
        <ele>503</ele>
        <time>2018-06-17T08:01:01.000Z</time>
      </trkpt>
      <trkpt lat="45.96983" lon="1.28462">
        <ele>506</ele>
        <time>2018-06-17T08:01:14.000Z</time>
      </trkpt>
      <trkpt lat="45.96988" lon="1.28461">
        <ele>506</ele>
        <time>2018-06-17T08:01:15.000Z</time>
      </trkpt>
      <trkpt lat="45.97021" lon="1.28445">
        <ele>505</ele>
        <time>2018-06-17T08:01:22.000Z</time>
      </trkpt>
      <trkpt lat="45.97066" lon="1.28418">
        <ele>500</ele>
        <time>2018-06-17T08:01:30.000Z</time>
      </trkpt>
      <trkpt lat="45.97072" lon="1.28415">
        <ele>500</ele>
        <time>2018-06-17T08:01:31.000Z</time>
      </trkpt>
      <trkpt lat="45.97105" lon="1.28394">
        <ele>497</ele>
        <time>2018-06-17T08:01:38.000Z</time>
      </trkpt>
      <trkpt lat="45.97111" lon="1.28398">
        <ele>498</ele>
        <time>2018-06-17T08:01:41.000Z</time>
      </trkpt>
      <trkpt lat="45.97109" lon="1.28418">
        <ele>498</ele>
        <time>2018-06-17T08:01:47.000Z</time>
      </trkpt>
      <trkpt lat="45.97111" lon="1.28429">
        <ele>497</ele>
        <time>2018-06-17T08:01:51.000Z</time>
      </trkpt>
      <trkpt lat="45.97121" lon="1.28454">
        <ele>493</ele>
        <time>2018-06-17T08:02:01.000Z</time>
      </trkpt>
      <trkpt lat="45.97122" lon="1.28495">
        <ele>491</ele>
        <time>2018-06-17T08:02:09.000Z</time>
      </trkpt>
      <trkpt lat="45.97124" lon="1.28533">
        <ele>494</ele>
        <time>2018-06-17T08:02:17.000Z</time>
      </trkpt>
      <trkpt lat="45.97124" lon="1.28543">
        <ele>496</ele>
        <time>2018-06-17T08:02:20.000Z</time>
      </trkpt>
      <trkpt lat="45.97126" lon="1.28563">
        <ele>501</ele>
        <time>2018-06-17T08:02:26.000Z</time>
      </trkpt>
      <trkpt lat="45.97121" lon="1.28566">
        <ele>505</ele>
        <time>2018-06-17T08:02:43.000Z</time>
      </trkpt>
      <trkpt lat="45.97115" lon="1.28572">
        <ele>497</ele>
        <time>2018-06-17T08:02:58.000Z</time>
      </trkpt>
      <trkpt lat="45.97119" lon="1.28579">
        <ele>488</ele>
        <time>2018-06-17T08:03:08.000Z</time>
      </trkpt>
      <trkpt lat="45.97126" lon="1.28591">
        <ele>487</ele>
        <time>2018-06-17T08:03:14.000Z</time>
      </trkpt>
      <trkpt lat="45.97131" lon="1.286">
        <ele>488</ele>
        <time>2018-06-17T08:03:17.000Z</time>
      </trkpt>
      <trkpt lat="45.97134" lon="1.28613">
        <ele>488</ele>
        <time>2018-06-17T08:03:20.000Z</time>
      </trkpt>
      <trkpt lat="45.9714" lon="1.2866">
        <ele>486</ele>
        <time>2018-06-17T08:03:27.000Z</time>
      </trkpt>
      <trkpt lat="45.97147" lon="1.28672">
        <ele>486</ele>
        <time>2018-06-17T08:03:29.000Z</time>
      </trkpt>
      <trkpt lat="45.97156" lon="1.28674">
        <ele>485</ele>
        <time>2018-06-17T08:03:31.000Z</time>
      </trkpt>
      <trkpt lat="45.97178" lon="1.28659">
        <ele>481</ele>
        <time>2018-06-17T08:03:36.000Z</time>
      </trkpt>
      <trkpt lat="45.97198" lon="1.28659">
        <ele>477</ele>
        <time>2018-06-17T08:03:41.000Z</time>
      </trkpt>
      <trkpt lat="45.97199" lon="1.2867">
        <ele>475</ele>
        <time>2018-06-17T08:03:44.000Z</time>
      </trkpt>
      <trkpt lat="45.97194" lon="1.28685">
        <ele>474</ele>
        <time>2018-06-17T08:03:46.000Z</time>
      </trkpt>
      <trkpt lat="45.97186" lon="1.28707">
        <ele>472</ele>
        <time>2018-06-17T08:03:50.000Z</time>
      </trkpt>
      <trkpt lat="45.97192" lon="1.2871">
        <ele>471</ele>
        <time>2018-06-17T08:03:56.000Z</time>
      </trkpt>
      <trkpt lat="45.97199" lon="1.28712">
        <ele>481</ele>
        <time>2018-06-17T08:04:06.000Z</time>
      </trkpt>
      <trkpt lat="45.97205" lon="1.28712">
        <ele>489</ele>
        <time>2018-06-17T08:04:16.000Z</time>
      </trkpt>
      <trkpt lat="45.9721" lon="1.28718">
        <ele>487</ele>
        <time>2018-06-17T08:04:24.000Z</time>
      </trkpt>
      <trkpt lat="45.97214" lon="1.28722">
        <ele>487</ele>
        <time>2018-06-17T08:04:29.000Z</time>
      </trkpt>
      <trkpt lat="45.97221" lon="1.28728">
        <ele>490</ele>
        <time>2018-06-17T08:04:39.000Z</time>
      </trkpt>
      <trkpt lat="45.97227" lon="1.28731">
        <ele>492</ele>
        <time>2018-06-17T08:04:48.000Z</time>
      </trkpt>
      <trkpt lat="45.9727" lon="1.28757">
        <ele>489</ele>
        <time>2018-06-17T08:05:09.000Z</time>
      </trkpt>
      <trkpt lat="45.97271" lon="1.28758">
        <ele>488</ele>
        <time>2018-06-17T08:05:10.000Z</time>
      </trkpt>
      <trkpt lat="45.97287" lon="1.28764">
        <ele>489</ele>
        <time>2018-06-17T08:05:16.000Z</time>
      </trkpt>
      <trkpt lat="45.97298" lon="1.2877">
        <ele>489</ele>
        <time>2018-06-17T08:05:19.000Z</time>
      </trkpt>
      <trkpt lat="45.9734" lon="1.28802">
        <ele>491</ele>
        <time>2018-06-17T08:05:29.000Z</time>
      </trkpt>
      <trkpt lat="45.97345" lon="1.28805">
        <ele>491</ele>
        <time>2018-06-17T08:05:30.000Z</time>
      </trkpt>
      <trkpt lat="45.97374" lon="1.28825">
        <ele>493</ele>
        <time>2018-06-17T08:05:37.000Z</time>
      </trkpt>
      <trkpt lat="45.9738" lon="1.28832">
        <ele>494</ele>
        <time>2018-06-17T08:05:39.000Z</time>
      </trkpt>
      <trkpt lat="45.97397" lon="1.28893">
        <ele>493</ele>
        <time>2018-06-17T08:05:51.000Z</time>
      </trkpt>
      <trkpt lat="45.974" lon="1.289">
        <ele>493</ele>
        <time>2018-06-17T08:05:52.000Z</time>
      </trkpt>
      <trkpt lat="45.97411" lon="1.28919">
        <ele>493</ele>
        <time>2018-06-17T08:05:55.000Z</time>
      </trkpt>
      <trkpt lat="45.97426" lon="1.28942">
        <ele>497</ele>
        <time>2018-06-17T08:06:04.000Z</time>
      </trkpt>
      <trkpt lat="45.97433" lon="1.28945">
        <ele>499</ele>
        <time>2018-06-17T08:06:09.000Z</time>
      </trkpt>
      <trkpt lat="45.97441" lon="1.28942">
        <ele>503</ele>
        <time>2018-06-17T08:06:28.000Z</time>
      </trkpt>
      <trkpt lat="45.9746" lon="1.28922">
        <ele>498</ele>
        <time>2018-06-17T08:06:59.000Z</time>
      </trkpt>
      <trkpt lat="45.97466" lon="1.28919">
        <ele>497</ele>
        <time>2018-06-17T08:07:03.000Z</time>
      </trkpt>
      <trkpt lat="45.97475" lon="1.2892">
        <ele>498</ele>
        <time>2018-06-17T08:07:11.000Z</time>
      </trkpt>
      <trkpt lat="45.97492" lon="1.28923">
        <ele>506</ele>
        <time>2018-06-17T08:07:24.000Z</time>
      </trkpt>
      <trkpt lat="45.97516" lon="1.28945">
        <ele>506</ele>
        <time>2018-06-17T08:07:34.000Z</time>
      </trkpt>
      <trkpt lat="45.97519" lon="1.28953">
        <ele>505</ele>
        <time>2018-06-17T08:07:36.000Z</time>
      </trkpt>
      <trkpt lat="45.9752" lon="1.28963">
        <ele>505</ele>
        <time>2018-06-17T08:07:39.000Z</time>
      </trkpt>
      <trkpt lat="45.97513" lon="1.28977">
        <ele>506</ele>
        <time>2018-06-17T08:07:45.000Z</time>
      </trkpt>
      <trkpt lat="45.975" lon="1.28998">
        <ele>507</ele>
        <time>2018-06-17T08:07:55.000Z</time>
      </trkpt>
      <trkpt lat="45.97496" lon="1.29009">
        <ele>507</ele>
        <time>2018-06-17T08:08:01.000Z</time>
      </trkpt>
      <trkpt lat="45.97489" lon="1.29023">
        <ele>504</ele>
        <time>2018-06-17T08:08:17.000Z</time>
      </trkpt>
      <trkpt lat="45.97488" lon="1.29025">
        <ele>502</ele>
        <time>2018-06-17T08:12:11.000Z</time>
      </trkpt>
      <trkpt lat="45.97494" lon="1.29022">
        <ele>512</ele>
        <time>2018-06-17T08:13:15.000Z</time>
      </trkpt>
      <trkpt lat="45.97497" lon="1.29017">
        <ele>510</ele>
        <time>2018-06-17T08:13:23.000Z</time>
      </trkpt>
      <trkpt lat="45.97527" lon="1.29055">
        <ele>498</ele>
        <time>2018-06-17T08:13:51.000Z</time>
      </trkpt>
      <trkpt lat="45.9757" lon="1.29092">
        <ele>493</ele>
        <time>2018-06-17T08:14:01.000Z</time>
      </trkpt>
      <trkpt lat="45.97574" lon="1.29101">
        <ele>492</ele>
        <time>2018-06-17T08:14:02.000Z</time>
      </trkpt>
      <trkpt lat="45.97577" lon="1.29109">
        <ele>491</ele>
        <time>2018-06-17T08:14:03.000Z</time>
      </trkpt>
      <trkpt lat="45.97583" lon="1.29149">
        <ele>489</ele>
        <time>2018-06-17T08:14:07.000Z</time>
      </trkpt>
      <trkpt lat="45.97583" lon="1.29216">
        <ele>486</ele>
        <time>2018-06-17T08:14:13.000Z</time>
      </trkpt>
      <trkpt lat="45.97584" lon="1.29227">
        <ele>486</ele>
        <time>2018-06-17T08:14:14.000Z</time>
      </trkpt>
      <trkpt lat="45.97589" lon="1.29257">
        <ele>485</ele>
        <time>2018-06-17T08:14:17.000Z</time>
      </trkpt>
      <trkpt lat="45.97598" lon="1.2927">
        <ele>484</ele>
        <time>2018-06-17T08:14:19.000Z</time>
      </trkpt>
      <trkpt lat="45.97638" lon="1.29302">
        <ele>482</ele>
        <time>2018-06-17T08:14:24.000Z</time>
      </trkpt>
      <trkpt lat="45.97646" lon="1.2931">
        <ele>482</ele>
        <time>2018-06-17T08:14:25.000Z</time>
      </trkpt>
      <trkpt lat="45.97685" lon="1.29352">
        <ele>481</ele>
        <time>2018-06-17T08:14:30.000Z</time>
      </trkpt>
      <trkpt lat="45.97691" lon="1.29358">
        <ele>481</ele>
        <time>2018-06-17T08:14:31.000Z</time>
      </trkpt>
      <trkpt lat="45.97729" lon="1.29382">
        <ele>481</ele>
        <time>2018-06-17T08:14:39.000Z</time>
      </trkpt>
      <trkpt lat="45.9775" lon="1.29378">
        <ele>480</ele>
        <time>2018-06-17T08:14:43.000Z</time>
      </trkpt>
      <trkpt lat="45.97771" lon="1.29373">
        <ele>476</ele>
        <time>2018-06-17T08:14:47.000Z</time>
      </trkpt>
      <trkpt lat="45.97798" lon="1.29377">
        <ele>467</ele>
        <time>2018-06-17T08:14:53.000Z</time>
      </trkpt>
      <trkpt lat="45.9782" lon="1.29369">
        <ele>462</ele>
        <time>2018-06-17T08:14:57.000Z</time>
      </trkpt>
      <trkpt lat="45.97855" lon="1.29356">
        <ele>457</ele>
        <time>2018-06-17T08:15:02.000Z</time>
      </trkpt>
      <trkpt lat="45.97894" lon="1.29348">
        <ele>449</ele>
        <time>2018-06-17T08:15:08.000Z</time>
      </trkpt>
      <trkpt lat="45.979" lon="1.29345">
        <ele>448</ele>
        <time>2018-06-17T08:15:09.000Z</time>
      </trkpt>
      <trkpt lat="45.97914" lon="1.29343">
        <ele>445</ele>
        <time>2018-06-17T08:15:12.000Z</time>
      </trkpt>
      <trkpt lat="45.97944" lon="1.29339">
        <ele>441</ele>
        <time>2018-06-17T08:15:18.000Z</time>
      </trkpt>
      <trkpt lat="45.97964" lon="1.29347">
        <ele>436</ele>
        <time>2018-06-17T08:15:23.000Z</time>
      </trkpt>
      <trkpt lat="45.97979" lon="1.29373">
        <ele>428</ele>
        <time>2018-06-17T08:15:31.000Z</time>
      </trkpt>
      <trkpt lat="45.97983" lon="1.29381">
        <ele>426</ele>
        <time>2018-06-17T08:15:34.000Z</time>
      </trkpt>
      <trkpt lat="45.97988" lon="1.29389">
        <ele>427</ele>
        <time>2018-06-17T08:15:39.000Z</time>
      </trkpt>
      <trkpt lat="45.97996" lon="1.29392">
        <ele>440</ele>
        <time>2018-06-17T08:15:48.000Z</time>
      </trkpt>
      <trkpt lat="45.98005" lon="1.29389">
        <ele>452</ele>
        <time>2018-06-17T08:15:56.000Z</time>
      </trkpt>
      <trkpt lat="45.9801" lon="1.29386">
        <ele>458</ele>
        <time>2018-06-17T08:16:04.000Z</time>
      </trkpt>
      <trkpt lat="45.98017" lon="1.2938">
        <ele>458</ele>
        <time>2018-06-17T08:16:08.000Z</time>
      </trkpt>
      <trkpt lat="45.98033" lon="1.2936">
        <ele>454</ele>
        <time>2018-06-17T08:16:16.000Z</time>
      </trkpt>
      <trkpt lat="45.98079" lon="1.29351">
        <ele>452</ele>
        <time>2018-06-17T08:16:27.000Z</time>
      </trkpt>
      <trkpt lat="45.98084" lon="1.29349">
        <ele>452</ele>
        <time>2018-06-17T08:16:28.000Z</time>
      </trkpt>
      <trkpt lat="45.98108" lon="1.29343">
        <ele>449</ele>
        <time>2018-06-17T08:16:34.000Z</time>
      </trkpt>
      <trkpt lat="45.98129" lon="1.29332">
        <ele>443</ele>
        <time>2018-06-17T08:16:43.000Z</time>
      </trkpt>
      <trkpt lat="45.98157" lon="1.29309">
        <ele>435</ele>
        <time>2018-06-17T08:16:51.000Z</time>
      </trkpt>
      <trkpt lat="45.98164" lon="1.29309">
        <ele>434</ele>
        <time>2018-06-17T08:16:53.000Z</time>
      </trkpt>
      <trkpt lat="45.9818" lon="1.29311">
        <ele>433</ele>
        <time>2018-06-17T08:16:57.000Z</time>
      </trkpt>
      <trkpt lat="45.98197" lon="1.29309">
        <ele>433</ele>
        <time>2018-06-17T08:17:00.000Z</time>
      </trkpt>
      <trkpt lat="45.98212" lon="1.29313">
        <ele>432</ele>
        <time>2018-06-17T08:17:03.000Z</time>
      </trkpt>
      <trkpt lat="45.98226" lon="1.2933">
        <ele>429</ele>
        <time>2018-06-17T08:17:08.000Z</time>
      </trkpt>
      <trkpt lat="45.98248" lon="1.29362">
        <ele>425</ele>
        <time>2018-06-17T08:17:19.000Z</time>
      </trkpt>
      <trkpt lat="45.98261" lon="1.29374">
        <ele>426</ele>
        <time>2018-06-17T08:17:24.000Z</time>
      </trkpt>
      <trkpt lat="45.98276" lon="1.29385">
        <ele>433</ele>
        <time>2018-06-17T08:17:31.000Z</time>
      </trkpt>
      <trkpt lat="45.9832" lon="1.29405">
        <ele>476</ele>
        <time>2018-06-17T08:17:57.000Z</time>
      </trkpt>
      <trkpt lat="45.98321" lon="1.29405">
        <ele>477</ele>
        <time>2018-06-17T08:17:58.000Z</time>
      </trkpt>
      <trkpt lat="45.98363" lon="1.2943">
        <ele>474</ele>
        <time>2018-06-17T08:18:26.000Z</time>
      </trkpt>
      <trkpt lat="45.98365" lon="1.29431">
        <ele>473</ele>
        <time>2018-06-17T08:18:27.000Z</time>
      </trkpt>
      <trkpt lat="45.98368" lon="1.29433">
        <ele>470</ele>
        <time>2018-06-17T08:18:29.000Z</time>
      </trkpt>
      <trkpt lat="45.98397" lon="1.29445">
        <ele>457</ele>
        <time>2018-06-17T08:18:47.000Z</time>
      </trkpt>
      <trkpt lat="45.98421" lon="1.29458">
        <ele>452</ele>
        <time>2018-06-17T08:19:03.000Z</time>
      </trkpt>
      <trkpt lat="45.98441" lon="1.29477">
        <ele>452</ele>
        <time>2018-06-17T08:19:18.000Z</time>
      </trkpt>
      <trkpt lat="45.98483" lon="1.29505">
        <ele>456</ele>
        <time>2018-06-17T08:19:49.000Z</time>
      </trkpt>
      <trkpt lat="45.98484" lon="1.29506">
        <ele>456</ele>
        <time>2018-06-17T08:19:50.000Z</time>
      </trkpt>
      <trkpt lat="45.98504" lon="1.29516">
        <ele>458</ele>
        <time>2018-06-17T08:20:07.000Z</time>
      </trkpt>
      <trkpt lat="45.98511" lon="1.29513">
        <ele>460</ele>
        <time>2018-06-17T08:20:12.000Z</time>
      </trkpt>
      <trkpt lat="45.98519" lon="1.29497">
        <ele>460</ele>
        <time>2018-06-17T08:20:20.000Z</time>
      </trkpt>
      <trkpt lat="45.98528" lon="1.29489">
        <ele>460</ele>
        <time>2018-06-17T08:20:26.000Z</time>
      </trkpt>
      <trkpt lat="45.98547" lon="1.29474">
        <ele>457</ele>
        <time>2018-06-17T08:20:38.000Z</time>
      </trkpt>
      <trkpt lat="45.9855" lon="1.29466">
        <ele>457</ele>
        <time>2018-06-17T08:20:42.000Z</time>
      </trkpt>
      <trkpt lat="45.98559" lon="1.29444">
        <ele>459</ele>
        <time>2018-06-17T08:20:52.000Z</time>
      </trkpt>
      <trkpt lat="45.98562" lon="1.29437">
        <ele>462</ele>
        <time>2018-06-17T08:20:56.000Z</time>
      </trkpt>
      <trkpt lat="45.98565" lon="1.29423">
        <ele>469</ele>
        <time>2018-06-17T08:21:03.000Z</time>
      </trkpt>
      <trkpt lat="45.98568" lon="1.29412">
        <ele>473</ele>
        <time>2018-06-17T08:21:09.000Z</time>
      </trkpt>
      <trkpt lat="45.98581" lon="1.29399">
        <ele>476</ele>
        <time>2018-06-17T08:21:19.000Z</time>
      </trkpt>
      <trkpt lat="45.9861" lon="1.29379">
        <ele>478</ele>
        <time>2018-06-17T08:21:34.000Z</time>
      </trkpt>
      <trkpt lat="45.98654" lon="1.29366">
        <ele>474</ele>
        <time>2018-06-17T08:21:45.000Z</time>
      </trkpt>
      <trkpt lat="45.9866" lon="1.29364">
        <ele>474</ele>
        <time>2018-06-17T08:21:46.000Z</time>
      </trkpt>
      <trkpt lat="45.98705" lon="1.29355">
        <ele>470</ele>
        <time>2018-06-17T08:21:53.000Z</time>
      </trkpt>
      <trkpt lat="45.98713" lon="1.29351">
        <ele>470</ele>
        <time>2018-06-17T08:21:54.000Z</time>
      </trkpt>
      <trkpt lat="45.98761" lon="1.2932">
        <ele>465</ele>
        <time>2018-06-17T08:22:00.000Z</time>
      </trkpt>
      <trkpt lat="45.9877" lon="1.29313">
        <ele>464</ele>
        <time>2018-06-17T08:22:01.000Z</time>
      </trkpt>
      <trkpt lat="45.98808" lon="1.29271">
        <ele>461</ele>
        <time>2018-06-17T08:22:06.000Z</time>
      </trkpt>
      <trkpt lat="45.98813" lon="1.29263">
        <ele>460</ele>
        <time>2018-06-17T08:22:07.000Z</time>
      </trkpt>
      <trkpt lat="45.98827" lon="1.2925">
        <ele>457</ele>
        <time>2018-06-17T08:22:11.000Z</time>
      </trkpt>
      <trkpt lat="45.98875" lon="1.2924">
        <ele>455</ele>
        <time>2018-06-17T08:22:23.000Z</time>
      </trkpt>
      <trkpt lat="45.9888" lon="1.29239">
        <ele>455</ele>
        <time>2018-06-17T08:22:24.000Z</time>
      </trkpt>
      <trkpt lat="45.98927" lon="1.29225">
        <ele>457</ele>
        <time>2018-06-17T08:22:35.000Z</time>
      </trkpt>
      <trkpt lat="45.98932" lon="1.29224">
        <ele>457</ele>
        <time>2018-06-17T08:22:36.000Z</time>
      </trkpt>
      <trkpt lat="45.9896" lon="1.29224">
        <ele>459</ele>
        <time>2018-06-17T08:22:42.000Z</time>
      </trkpt>
      <trkpt lat="45.98992" lon="1.29224">
        <ele>460</ele>
        <time>2018-06-17T08:22:49.000Z</time>
      </trkpt>
      <trkpt lat="45.99024" lon="1.29223">
        <ele>461</ele>
        <time>2018-06-17T08:22:55.000Z</time>
      </trkpt>
      <trkpt lat="45.99071" lon="1.29228">
        <ele>461</ele>
        <time>2018-06-17T08:23:03.000Z</time>
      </trkpt>
      <trkpt lat="45.99077" lon="1.29229">
        <ele>461</ele>
        <time>2018-06-17T08:23:04.000Z</time>
      </trkpt>
      <trkpt lat="45.99127" lon="1.29236">
        <ele>460</ele>
        <time>2018-06-17T08:23:12.000Z</time>
      </trkpt>
      <trkpt lat="45.99133" lon="1.29238">
        <ele>460</ele>
        <time>2018-06-17T08:23:13.000Z</time>
      </trkpt>
      <trkpt lat="45.99183" lon="1.2925">
        <ele>457</ele>
        <time>2018-06-17T08:23:21.000Z</time>
      </trkpt>
      <trkpt lat="45.9919" lon="1.29248">
        <ele>456</ele>
        <time>2018-06-17T08:23:22.000Z</time>
      </trkpt>
      <trkpt lat="45.99227" lon="1.2923">
        <ele>451</ele>
        <time>2018-06-17T08:23:28.000Z</time>
      </trkpt>
      <trkpt lat="45.99234" lon="1.2923">
        <ele>450</ele>
        <time>2018-06-17T08:23:29.000Z</time>
      </trkpt>
      <trkpt lat="45.99286" lon="1.29239">
        <ele>448</ele>
        <time>2018-06-17T08:23:36.000Z</time>
      </trkpt>
      <trkpt lat="45.99294" lon="1.29241">
        <ele>448</ele>
        <time>2018-06-17T08:23:37.000Z</time>
      </trkpt>
      <trkpt lat="45.99322" lon="1.29238">
        <ele>448</ele>
        <time>2018-06-17T08:23:41.000Z</time>
      </trkpt>
      <trkpt lat="45.9935" lon="1.29228">
        <ele>448</ele>
        <time>2018-06-17T08:23:46.000Z</time>
      </trkpt>
      <trkpt lat="45.99396" lon="1.29232">
        <ele>444</ele>
        <time>2018-06-17T08:23:54.000Z</time>
      </trkpt>
      <trkpt lat="45.99402" lon="1.29235">
        <ele>443</ele>
        <time>2018-06-17T08:23:55.000Z</time>
      </trkpt>
      <trkpt lat="45.99413" lon="1.29245">
        <ele>442</ele>
        <time>2018-06-17T08:23:57.000Z</time>
      </trkpt>
      <trkpt lat="45.99442" lon="1.29265">
        <ele>436</ele>
        <time>2018-06-17T08:24:04.000Z</time>
      </trkpt>
      <trkpt lat="45.99451" lon="1.29263">
        <ele>434</ele>
        <time>2018-06-17T08:24:07.000Z</time>
      </trkpt>
      <trkpt lat="45.99464" lon="1.2926">
        <ele>432</ele>
        <time>2018-06-17T08:24:10.000Z</time>
      </trkpt>
      <trkpt lat="45.99489" lon="1.29264">
        <ele>430</ele>
        <time>2018-06-17T08:24:16.000Z</time>
      </trkpt>
      <trkpt lat="45.99498" lon="1.29275">
        <ele>430</ele>
        <time>2018-06-17T08:24:19.000Z</time>
      </trkpt>
      <trkpt lat="45.99505" lon="1.29293">
        <ele>430</ele>
        <time>2018-06-17T08:24:22.000Z</time>
      </trkpt>
      <trkpt lat="45.99508" lon="1.29314">
        <ele>430</ele>
        <time>2018-06-17T08:24:25.000Z</time>
      </trkpt>
      <trkpt lat="45.99502" lon="1.29343">
        <ele>430</ele>
        <time>2018-06-17T08:24:29.000Z</time>
      </trkpt>
      <trkpt lat="45.99493" lon="1.29365">
        <ele>430</ele>
        <time>2018-06-17T08:24:32.000Z</time>
      </trkpt>
      <trkpt lat="45.99488" lon="1.29378">
        <ele>430</ele>
        <time>2018-06-17T08:24:34.000Z</time>
      </trkpt>
      <trkpt lat="45.99487" lon="1.29387">
        <ele>430</ele>
        <time>2018-06-17T08:24:36.000Z</time>
      </trkpt>
      <trkpt lat="45.99488" lon="1.29414">
        <ele>430</ele>
        <time>2018-06-17T08:24:40.000Z</time>
      </trkpt>
      <trkpt lat="45.99487" lon="1.29447">
        <ele>428</ele>
        <time>2018-06-17T08:24:45.000Z</time>
      </trkpt>
      <trkpt lat="45.99484" lon="1.29467">
        <ele>426</ele>
        <time>2018-06-17T08:24:48.000Z</time>
      </trkpt>
      <trkpt lat="45.99478" lon="1.29497">
        <ele>423</ele>
        <time>2018-06-17T08:24:53.000Z</time>
      </trkpt>
      <trkpt lat="45.99484" lon="1.29516">
        <ele>419</ele>
        <time>2018-06-17T08:24:58.000Z</time>
      </trkpt>
      <trkpt lat="45.99488" lon="1.29525">
        <ele>417</ele>
        <time>2018-06-17T08:25:01.000Z</time>
      </trkpt>
      <trkpt lat="45.99517" lon="1.29581">
        <ele>410</ele>
        <time>2018-06-17T08:25:12.000Z</time>
      </trkpt>
      <trkpt lat="45.9952" lon="1.29587">
        <ele>410</ele>
        <time>2018-06-17T08:25:13.000Z</time>
      </trkpt>
      <trkpt lat="45.99525" lon="1.2959">
        <ele>409</ele>
        <time>2018-06-17T08:25:14.000Z</time>
      </trkpt>
      <trkpt lat="45.99539" lon="1.29603">
        <ele>408</ele>
        <time>2018-06-17T08:25:17.000Z</time>
      </trkpt>
      <trkpt lat="45.9955" lon="1.2963">
        <ele>408</ele>
        <time>2018-06-17T08:25:21.000Z</time>
      </trkpt>
      <trkpt lat="45.99557" lon="1.29651">
        <ele>408</ele>
        <time>2018-06-17T08:25:24.000Z</time>
      </trkpt>
      <trkpt lat="45.99561" lon="1.29659">
        <ele>408</ele>
        <time>2018-06-17T08:25:26.000Z</time>
      </trkpt>
      <trkpt lat="45.99584" lon="1.29672">
        <ele>409</ele>
        <time>2018-06-17T08:25:33.000Z</time>
      </trkpt>
      <trkpt lat="45.9959" lon="1.29679">
        <ele>410</ele>
        <time>2018-06-17T08:25:35.000Z</time>
      </trkpt>
      <trkpt lat="45.99605" lon="1.2971">
        <ele>412</ele>
        <time>2018-06-17T08:25:46.000Z</time>
      </trkpt>
      <trkpt lat="45.99611" lon="1.29708">
        <ele>411</ele>
        <time>2018-06-17T08:25:49.000Z</time>
      </trkpt>
      <trkpt lat="45.9965" lon="1.29701">
        <ele>414</ele>
        <time>2018-06-17T08:26:00.000Z</time>
      </trkpt>
      <trkpt lat="45.99675" lon="1.29701">
        <ele>414</ele>
        <time>2018-06-17T08:26:09.000Z</time>
      </trkpt>
      <trkpt lat="45.99704" lon="1.29717">
        <ele>425</ele>
        <time>2018-06-17T08:26:30.000Z</time>
      </trkpt>
      <trkpt lat="45.99711" lon="1.29721">
        <ele>430</ele>
        <time>2018-06-17T08:26:36.000Z</time>
      </trkpt>
      <trkpt lat="45.99754" lon="1.29741">
        <ele>447</ele>
        <time>2018-06-17T08:27:02.000Z</time>
      </trkpt>
      <trkpt lat="45.99756" lon="1.29742">
        <ele>448</ele>
        <time>2018-06-17T08:27:03.000Z</time>
      </trkpt>
      <trkpt lat="45.99799" lon="1.29762">
        <ele>445</ele>
        <time>2018-06-17T08:27:29.000Z</time>
      </trkpt>
      <trkpt lat="45.99801" lon="1.29763">
        <ele>445</ele>
        <time>2018-06-17T08:27:30.000Z</time>
      </trkpt>
      <trkpt lat="45.99835" lon="1.29784">
        <ele>444</ele>
        <time>2018-06-17T08:27:50.000Z</time>
      </trkpt>
      <trkpt lat="45.99879" lon="1.29799">
        <ele>437</ele>
        <time>2018-06-17T08:28:11.000Z</time>
      </trkpt>
      <trkpt lat="45.99882" lon="1.29801">
        <ele>437</ele>
        <time>2018-06-17T08:28:12.000Z</time>
      </trkpt>
      <trkpt lat="45.99891" lon="1.29802">
        <ele>437</ele>
        <time>2018-06-17T08:28:15.000Z</time>
      </trkpt>
      <trkpt lat="45.9994" lon="1.29806">
        <ele>435</ele>
        <time>2018-06-17T08:28:27.000Z</time>
      </trkpt>
      <trkpt lat="45.99946" lon="1.29806">
        <ele>435</ele>
        <time>2018-06-17T08:28:28.000Z</time>
      </trkpt>
      <trkpt lat="45.99968" lon="1.29809">
        <ele>433</ele>
        <time>2018-06-17T08:28:32.000Z</time>
      </trkpt>
      <trkpt lat="45.99996" lon="1.29815">
        <ele>426</ele>
        <time>2018-06-17T08:28:40.000Z</time>
      </trkpt>
      <trkpt lat="46.00001" lon="1.29822">
        <ele>423</ele>
        <time>2018-06-17T08:28:47.000Z</time>
      </trkpt>
      <trkpt lat="46.00004" lon="1.29831">
        <ele>424</ele>
        <time>2018-06-17T08:28:52.000Z</time>
      </trkpt>
      <trkpt lat="46.00023" lon="1.29836">
        <ele>424</ele>
        <time>2018-06-17T08:29:03.000Z</time>
      </trkpt>
      <trkpt lat="46.00049" lon="1.29839">
        <ele>423</ele>
        <time>2018-06-17T08:29:09.000Z</time>
      </trkpt>
      <trkpt lat="46.00071" lon="1.2985">
        <ele>422</ele>
        <time>2018-06-17T08:29:15.000Z</time>
      </trkpt>
      <trkpt lat="46.00077" lon="1.29845">
        <ele>421</ele>
        <time>2018-06-17T08:29:18.000Z</time>
      </trkpt>
      <trkpt lat="46.0008" lon="1.29837">
        <ele>421</ele>
        <time>2018-06-17T08:29:24.000Z</time>
      </trkpt>
      <trkpt lat="46.00074" lon="1.29831">
        <ele>420</ele>
        <time>2018-06-17T08:29:28.000Z</time>
      </trkpt>
      <trkpt lat="46.00059" lon="1.29814">
        <ele>418</ele>
        <time>2018-06-17T08:29:34.000Z</time>
      </trkpt>
      <trkpt lat="46.00057" lon="1.29804">
        <ele>418</ele>
        <time>2018-06-17T08:29:36.000Z</time>
      </trkpt>
      <trkpt lat="46.00059" lon="1.2978">
        <ele>419</ele>
        <time>2018-06-17T08:29:41.000Z</time>
      </trkpt>
      <trkpt lat="46.00055" lon="1.29774">
        <ele>419</ele>
        <time>2018-06-17T08:29:43.000Z</time>
      </trkpt>
      <trkpt lat="46.00037" lon="1.29751">
        <ele>417</ele>
        <time>2018-06-17T08:29:54.000Z</time>
      </trkpt>
      <trkpt lat="46.00026" lon="1.29735">
        <ele>417</ele>
        <time>2018-06-17T08:30:01.000Z</time>
      </trkpt>
      <trkpt lat="46" lon="1.29695">
        <ele>419</ele>
        <time>2018-06-17T08:30:13.000Z</time>
      </trkpt>
      <trkpt lat="45.99988" lon="1.29682">
        <ele>420</ele>
        <time>2018-06-17T08:30:17.000Z</time>
      </trkpt>
      <trkpt lat="45.9998" lon="1.29672">
        <ele>420</ele>
        <time>2018-06-17T08:30:20.000Z</time>
      </trkpt>
      <trkpt lat="45.99945" lon="1.29632">
        <ele>417</ele>
        <time>2018-06-17T08:30:30.000Z</time>
      </trkpt>
      <trkpt lat="45.99941" lon="1.29628">
        <ele>417</ele>
        <time>2018-06-17T08:30:31.000Z</time>
      </trkpt>
      <trkpt lat="45.99929" lon="1.29611">
        <ele>416</ele>
        <time>2018-06-17T08:30:35.000Z</time>
      </trkpt>
      <trkpt lat="45.99912" lon="1.29547">
        <ele>417</ele>
        <time>2018-06-17T08:30:45.000Z</time>
      </trkpt>
      <trkpt lat="45.99911" lon="1.2954">
        <ele>417</ele>
        <time>2018-06-17T08:30:46.000Z</time>
      </trkpt>
      <trkpt lat="45.99902" lon="1.29508">
        <ele>416</ele>
        <time>2018-06-17T08:30:51.000Z</time>
      </trkpt>
      <trkpt lat="45.99894" lon="1.29475">
        <ele>412</ele>
        <time>2018-06-17T08:30:57.000Z</time>
      </trkpt>
      <trkpt lat="45.99901" lon="1.29453">
        <ele>406</ele>
        <time>2018-06-17T08:31:02.000Z</time>
      </trkpt>
      <trkpt lat="45.99905" lon="1.29429">
        <ele>404</ele>
        <time>2018-06-17T08:31:07.000Z</time>
      </trkpt>
      <trkpt lat="45.99913" lon="1.29396">
        <ele>399</ele>
        <time>2018-06-17T08:31:14.000Z</time>
      </trkpt>
      <trkpt lat="45.99929" lon="1.29363">
        <ele>390</ele>
        <time>2018-06-17T08:31:19.000Z</time>
      </trkpt>
      <trkpt lat="45.99949" lon="1.29311">
        <ele>378</ele>
        <time>2018-06-17T08:31:26.000Z</time>
      </trkpt>
      <trkpt lat="45.99952" lon="1.29305">
        <ele>377</ele>
        <time>2018-06-17T08:31:27.000Z</time>
      </trkpt>
      <trkpt lat="45.99965" lon="1.29284">
        <ele>373</ele>
        <time>2018-06-17T08:31:33.000Z</time>
      </trkpt>
      <trkpt lat="45.99975" lon="1.29275">
        <ele>379</ele>
        <time>2018-06-17T08:31:39.000Z</time>
      </trkpt>
      <trkpt lat="45.99982" lon="1.29273">
        <ele>388</ele>
        <time>2018-06-17T08:31:44.000Z</time>
      </trkpt>
      <trkpt lat="45.99988" lon="1.29273">
        <ele>398</ele>
        <time>2018-06-17T08:31:50.000Z</time>
      </trkpt>
      <trkpt lat="45.99994" lon="1.29275">
        <ele>404</ele>
        <time>2018-06-17T08:31:54.000Z</time>
      </trkpt>
      <trkpt lat="46.00012" lon="1.29275">
        <ele>414</ele>
        <time>2018-06-17T08:32:08.000Z</time>
      </trkpt>
      <trkpt lat="46.00026" lon="1.29284">
        <ele>420</ele>
        <time>2018-06-17T08:32:20.000Z</time>
      </trkpt>
      <trkpt lat="46.00037" lon="1.29295">
        <ele>424</ele>
        <time>2018-06-17T08:32:29.000Z</time>
      </trkpt>
      <trkpt lat="46.00058" lon="1.29319">
        <ele>429</ele>
        <time>2018-06-17T08:32:46.000Z</time>
      </trkpt>
      <trkpt lat="46.00062" lon="1.29331">
        <ele>429</ele>
        <time>2018-06-17T08:32:50.000Z</time>
      </trkpt>
      <trkpt lat="46.00066" lon="1.29338">
        <ele>430</ele>
        <time>2018-06-17T08:32:52.000Z</time>
      </trkpt>
      <trkpt lat="46.00071" lon="1.29343">
        <ele>431</ele>
        <time>2018-06-17T08:32:54.000Z</time>
      </trkpt>
      <trkpt lat="46.00082" lon="1.29354">
        <ele>431</ele>
        <time>2018-06-17T08:32:59.000Z</time>
      </trkpt>
      <trkpt lat="46.00092" lon="1.29361">
        <ele>431</ele>
        <time>2018-06-17T08:33:03.000Z</time>
      </trkpt>
      <trkpt lat="46.00107" lon="1.29352">
        <ele>430</ele>
        <time>2018-06-17T08:33:06.000Z</time>
      </trkpt>
      <trkpt lat="46.00126" lon="1.2934">
        <ele>427</ele>
        <time>2018-06-17T08:33:09.000Z</time>
      </trkpt>
      <trkpt lat="46.00167" lon="1.29318">
        <ele>419</ele>
        <time>2018-06-17T08:33:16.000Z</time>
      </trkpt>
      <trkpt lat="46.00172" lon="1.29313">
        <ele>417</ele>
        <time>2018-06-17T08:33:17.000Z</time>
      </trkpt>
      <trkpt lat="46.00191" lon="1.293">
        <ele>413</ele>
        <time>2018-06-17T08:33:20.000Z</time>
      </trkpt>
      <trkpt lat="46.00206" lon="1.29294">
        <ele>410</ele>
        <time>2018-06-17T08:33:23.000Z</time>
      </trkpt>
      <trkpt lat="46.00224" lon="1.2929">
        <ele>408</ele>
        <time>2018-06-17T08:33:30.000Z</time>
      </trkpt>
      <trkpt lat="46.00236" lon="1.29281">
        <ele>408</ele>
        <time>2018-06-17T08:33:35.000Z</time>
      </trkpt>
      <trkpt lat="46.00261" lon="1.2926">
        <ele>403</ele>
        <time>2018-06-17T08:33:42.000Z</time>
      </trkpt>
      <trkpt lat="46.00272" lon="1.29244">
        <ele>400</ele>
        <time>2018-06-17T08:33:46.000Z</time>
      </trkpt>
      <trkpt lat="46.00278" lon="1.29238">
        <ele>400</ele>
        <time>2018-06-17T08:33:48.000Z</time>
      </trkpt>
      <trkpt lat="46.00284" lon="1.29222">
        <ele>400</ele>
        <time>2018-06-17T08:33:53.000Z</time>
      </trkpt>
      <trkpt lat="46.00291" lon="1.29207">
        <ele>398</ele>
        <time>2018-06-17T08:33:56.000Z</time>
      </trkpt>
      <trkpt lat="46.00303" lon="1.29176">
        <ele>396</ele>
        <time>2018-06-17T08:34:02.000Z</time>
      </trkpt>
      <trkpt lat="46.00319" lon="1.29151">
        <ele>393</ele>
        <time>2018-06-17T08:34:06.000Z</time>
      </trkpt>
      <trkpt lat="46.00339" lon="1.29141">
        <ele>389</ele>
        <time>2018-06-17T08:34:09.000Z</time>
      </trkpt>
      <trkpt lat="46.00386" lon="1.29118">
        <ele>384</ele>
        <time>2018-06-17T08:34:15.000Z</time>
      </trkpt>
      <trkpt lat="46.00393" lon="1.29112">
        <ele>383</ele>
        <time>2018-06-17T08:34:16.000Z</time>
      </trkpt>
      <trkpt lat="46.00432" lon="1.29065">
        <ele>381</ele>
        <time>2018-06-17T08:34:22.000Z</time>
      </trkpt>
      <trkpt lat="46.00439" lon="1.29057">
        <ele>380</ele>
        <time>2018-06-17T08:34:23.000Z</time>
      </trkpt>
      <trkpt lat="46.00475" lon="1.29016">
        <ele>377</ele>
        <time>2018-06-17T08:34:29.000Z</time>
      </trkpt>
      <trkpt lat="46.0048" lon="1.29014">
        <ele>377</ele>
        <time>2018-06-17T08:34:30.000Z</time>
      </trkpt>
      <trkpt lat="46.00486" lon="1.29015">
        <ele>377</ele>
        <time>2018-06-17T08:34:31.000Z</time>
      </trkpt>
      <trkpt lat="46.00504" lon="1.29022">
        <ele>378</ele>
        <time>2018-06-17T08:34:35.000Z</time>
      </trkpt>
      <trkpt lat="46.00546" lon="1.29049">
        <ele>407</ele>
        <time>2018-06-17T08:35:01.000Z</time>
      </trkpt>
      <trkpt lat="46.00547" lon="1.2905">
        <ele>407</ele>
        <time>2018-06-17T08:35:02.000Z</time>
      </trkpt>
      <trkpt lat="46.00553" lon="1.29055">
        <ele>408</ele>
        <time>2018-06-17T08:35:06.000Z</time>
      </trkpt>
      <trkpt lat="46.0058" lon="1.29078">
        <ele>406</ele>
        <time>2018-06-17T08:35:24.000Z</time>
      </trkpt>
      <trkpt lat="46.00612" lon="1.29128">
        <ele>402</ele>
        <time>2018-06-17T08:35:37.000Z</time>
      </trkpt>
      <trkpt lat="46.00615" lon="1.29136">
        <ele>402</ele>
        <time>2018-06-17T08:35:38.000Z</time>
      </trkpt>
      <trkpt lat="46.00645" lon="1.29188">
        <ele>398</ele>
        <time>2018-06-17T08:35:45.000Z</time>
      </trkpt>
      <trkpt lat="46.0065" lon="1.29194">
        <ele>398</ele>
        <time>2018-06-17T08:35:46.000Z</time>
      </trkpt>
      <trkpt lat="46.00684" lon="1.29242">
        <ele>396</ele>
        <time>2018-06-17T08:35:54.000Z</time>
      </trkpt>
      <trkpt lat="46.00688" lon="1.29247">
        <ele>396</ele>
        <time>2018-06-17T08:35:55.000Z</time>
      </trkpt>
      <trkpt lat="46.00697" lon="1.29257">
        <ele>396</ele>
        <time>2018-06-17T08:35:57.000Z</time>
      </trkpt>
      <trkpt lat="46.00739" lon="1.29297">
        <ele>395</ele>
        <time>2018-06-17T08:36:06.000Z</time>
      </trkpt>
      <trkpt lat="46.00744" lon="1.293">
        <ele>395</ele>
        <time>2018-06-17T08:36:07.000Z</time>
      </trkpt>
      <trkpt lat="46.00779" lon="1.29323">
        <ele>394</ele>
        <time>2018-06-17T08:36:14.000Z</time>
      </trkpt>
      <trkpt lat="46.00793" lon="1.29332">
        <ele>393</ele>
        <time>2018-06-17T08:36:17.000Z</time>
      </trkpt>
      <trkpt lat="46.00799" lon="1.29343">
        <ele>393</ele>
        <time>2018-06-17T08:36:19.000Z</time>
      </trkpt>
      <trkpt lat="46.00803" lon="1.29353">
        <ele>395</ele>
        <time>2018-06-17T08:36:37.000Z</time>
      </trkpt>
      <trkpt lat="46.00795" lon="1.29353">
        <ele>395</ele>
        <time>2018-06-17T08:36:41.000Z</time>
      </trkpt>
      <trkpt lat="46.00758" lon="1.29378">
        <ele>401</ele>
        <time>2018-06-17T08:37:07.000Z</time>
      </trkpt>
      <trkpt lat="46.0075" lon="1.29385">
        <ele>405</ele>
        <time>2018-06-17T08:37:13.000Z</time>
      </trkpt>
      <trkpt lat="46.00742" lon="1.29395">
        <ele>412</ele>
        <time>2018-06-17T08:37:19.000Z</time>
      </trkpt>
      <trkpt lat="46.00726" lon="1.29421">
        <ele>422</ele>
        <time>2018-06-17T08:37:36.000Z</time>
      </trkpt>
      <trkpt lat="46.00724" lon="1.29429">
        <ele>422</ele>
        <time>2018-06-17T08:37:42.000Z</time>
      </trkpt>
      <trkpt lat="46.00723" lon="1.29438">
        <ele>422</ele>
        <time>2018-06-17T08:37:47.000Z</time>
      </trkpt>
      <trkpt lat="46.00716" lon="1.29481">
        <ele>422</ele>
        <time>2018-06-17T08:38:09.000Z</time>
      </trkpt>
      <trkpt lat="46.00716" lon="1.29489">
        <ele>422</ele>
        <time>2018-06-17T08:38:13.000Z</time>
      </trkpt>
      <trkpt lat="46.00716" lon="1.29501">
        <ele>422</ele>
        <time>2018-06-17T08:38:19.000Z</time>
      </trkpt>
      <trkpt lat="46.00714" lon="1.29519">
        <ele>422</ele>
        <time>2018-06-17T08:38:27.000Z</time>
      </trkpt>
      <trkpt lat="46.0071" lon="1.29545">
        <ele>421</ele>
        <time>2018-06-17T08:38:37.000Z</time>
      </trkpt>
      <trkpt lat="46.00711" lon="1.29555">
        <ele>422</ele>
        <time>2018-06-17T08:38:41.000Z</time>
      </trkpt>
      <trkpt lat="46.00713" lon="1.29564">
        <ele>423</ele>
        <time>2018-06-17T08:38:45.000Z</time>
      </trkpt>
      <trkpt lat="46.00719" lon="1.29578">
        <ele>423</ele>
        <time>2018-06-17T08:38:51.000Z</time>
      </trkpt>
      <trkpt lat="46.0072" lon="1.29588">
        <ele>423</ele>
        <time>2018-06-17T08:38:55.000Z</time>
      </trkpt>
      <trkpt lat="46.00727" lon="1.29608">
        <ele>424</ele>
        <time>2018-06-17T08:39:03.000Z</time>
      </trkpt>
      <trkpt lat="46.00734" lon="1.29621">
        <ele>423</ele>
        <time>2018-06-17T08:39:09.000Z</time>
      </trkpt>
      <trkpt lat="46.00739" lon="1.29639">
        <ele>424</ele>
        <time>2018-06-17T08:39:17.000Z</time>
      </trkpt>
      <trkpt lat="46.00742" lon="1.29678">
        <ele>424</ele>
        <time>2018-06-17T08:39:30.000Z</time>
      </trkpt>
      <trkpt lat="46.00739" lon="1.29687">
        <ele>424</ele>
        <time>2018-06-17T08:39:32.000Z</time>
      </trkpt>
      <trkpt lat="46.0071" lon="1.29738">
        <ele>422</ele>
        <time>2018-06-17T08:39:42.000Z</time>
      </trkpt>
      <trkpt lat="46.00707" lon="1.29743">
        <ele>422</ele>
        <time>2018-06-17T08:39:43.000Z</time>
      </trkpt>
      <trkpt lat="46.00699" lon="1.29751">
        <ele>422</ele>
        <time>2018-06-17T08:39:45.000Z</time>
      </trkpt>
      <trkpt lat="46.00678" lon="1.29761">
        <ele>422</ele>
        <time>2018-06-17T08:39:50.000Z</time>
      </trkpt>
      <trkpt lat="46.00638" lon="1.29768">
        <ele>424</ele>
        <time>2018-06-17T08:40:03.000Z</time>
      </trkpt>
      <trkpt lat="46.00594" lon="1.29791">
        <ele>424</ele>
        <time>2018-06-17T08:40:19.000Z</time>
      </trkpt>
      <trkpt lat="46.00592" lon="1.29793">
        <ele>424</ele>
        <time>2018-06-17T08:40:20.000Z</time>
      </trkpt>
      <trkpt lat="46.00585" lon="1.29799">
        <ele>424</ele>
        <time>2018-06-17T08:40:23.000Z</time>
      </trkpt>
      <trkpt lat="46.00581" lon="1.29812">
        <ele>426</ele>
        <time>2018-06-17T08:40:27.000Z</time>
      </trkpt>
      <trkpt lat="46.00577" lon="1.29849">
        <ele>431</ele>
        <time>2018-06-17T08:40:37.000Z</time>
      </trkpt>
      <trkpt lat="46.00574" lon="1.29855">
        <ele>433</ele>
        <time>2018-06-17T08:40:39.000Z</time>
      </trkpt>
      <trkpt lat="46.00571" lon="1.29867">
        <ele>434</ele>
        <time>2018-06-17T08:40:42.000Z</time>
      </trkpt>
      <trkpt lat="46.00569" lon="1.29883">
        <ele>435</ele>
        <time>2018-06-17T08:40:46.000Z</time>
      </trkpt>
      <trkpt lat="46.00568" lon="1.29895">
        <ele>435</ele>
        <time>2018-06-17T08:40:48.000Z</time>
      </trkpt>
      <trkpt lat="46.00566" lon="1.29909">
        <ele>435</ele>
        <time>2018-06-17T08:40:50.000Z</time>
      </trkpt>
      <trkpt lat="46.00559" lon="1.29922">
        <ele>435</ele>
        <time>2018-06-17T08:40:52.000Z</time>
      </trkpt>
      <trkpt lat="46.00541" lon="1.2994">
        <ele>435</ele>
        <time>2018-06-17T08:40:55.000Z</time>
      </trkpt>
      <trkpt lat="46.00508" lon="1.29948">
        <ele>435</ele>
        <time>2018-06-17T08:40:59.000Z</time>
      </trkpt>
      <trkpt lat="46.00477" lon="1.29945">
        <ele>432</ele>
        <time>2018-06-17T08:41:03.000Z</time>
      </trkpt>
      <trkpt lat="46.00447" lon="1.29935">
        <ele>426</ele>
        <time>2018-06-17T08:41:08.000Z</time>
      </trkpt>
      <trkpt lat="46.0045" lon="1.29947">
        <ele>423</ele>
        <time>2018-06-17T08:41:12.000Z</time>
      </trkpt>
      <trkpt lat="46.00485" lon="1.29994">
        <ele>420</ele>
        <time>2018-06-17T08:41:21.000Z</time>
      </trkpt>
      <trkpt lat="46.0049" lon="1.3">
        <ele>420</ele>
        <time>2018-06-17T08:41:22.000Z</time>
      </trkpt>
      <trkpt lat="46.00519" lon="1.30038">
        <ele>419</ele>
        <time>2018-06-17T08:41:29.000Z</time>
      </trkpt>
      <trkpt lat="46.00521" lon="1.3005">
        <ele>419</ele>
        <time>2018-06-17T08:41:31.000Z</time>
      </trkpt>
      <trkpt lat="46.00523" lon="1.30119">
        <ele>415</ele>
        <time>2018-06-17T08:41:40.000Z</time>
      </trkpt>
      <trkpt lat="46.00525" lon="1.30127">
        <ele>415</ele>
        <time>2018-06-17T08:41:41.000Z</time>
      </trkpt>
      <trkpt lat="46.00529" lon="1.3014">
        <ele>414</ele>
        <time>2018-06-17T08:41:43.000Z</time>
      </trkpt>
      <trkpt lat="46.00555" lon="1.30185">
        <ele>411</ele>
        <time>2018-06-17T08:41:50.000Z</time>
      </trkpt>
      <trkpt lat="46.00557" lon="1.30194">
        <ele>410</ele>
        <time>2018-06-17T08:41:51.000Z</time>
      </trkpt>
      <trkpt lat="46.00573" lon="1.30247">
        <ele>408</ele>
        <time>2018-06-17T08:41:57.000Z</time>
      </trkpt>
      <trkpt lat="46.00584" lon="1.30257">
        <ele>406</ele>
        <time>2018-06-17T08:42:00.000Z</time>
      </trkpt>
      <trkpt lat="46.00607" lon="1.30257">
        <ele>404</ele>
        <time>2018-06-17T08:42:06.000Z</time>
      </trkpt>
      <trkpt lat="46.00654" lon="1.30272">
        <ele>401</ele>
        <time>2018-06-17T08:42:15.000Z</time>
      </trkpt>
      <trkpt lat="46.0066" lon="1.30273">
        <ele>401</ele>
        <time>2018-06-17T08:42:16.000Z</time>
      </trkpt>
      <trkpt lat="46.00673" lon="1.30271">
        <ele>400</ele>
        <time>2018-06-17T08:42:18.000Z</time>
      </trkpt>
      <trkpt lat="46.0069" lon="1.30261">
        <ele>399</ele>
        <time>2018-06-17T08:42:21.000Z</time>
      </trkpt>
      <trkpt lat="46.0071" lon="1.30242">
        <ele>397</ele>
        <time>2018-06-17T08:42:26.000Z</time>
      </trkpt>
      <trkpt lat="46.00716" lon="1.30246">
        <ele>397</ele>
        <time>2018-06-17T08:42:28.000Z</time>
      </trkpt>
      <trkpt lat="46.00719" lon="1.30253">
        <ele>397</ele>
        <time>2018-06-17T08:42:30.000Z</time>
      </trkpt>
      <trkpt lat="46.0072" lon="1.30261">
        <ele>398</ele>
        <time>2018-06-17T08:42:32.000Z</time>
      </trkpt>
      <trkpt lat="46.00719" lon="1.3027">
        <ele>399</ele>
        <time>2018-06-17T08:42:34.000Z</time>
      </trkpt>
      <trkpt lat="46.00713" lon="1.30281">
        <ele>401</ele>
        <time>2018-06-17T08:42:37.000Z</time>
      </trkpt>
      <trkpt lat="46.00712" lon="1.30303">
        <ele>405</ele>
        <time>2018-06-17T08:42:43.000Z</time>
      </trkpt>
      <trkpt lat="46.00715" lon="1.30317">
        <ele>407</ele>
        <time>2018-06-17T08:42:47.000Z</time>
      </trkpt>
      <trkpt lat="46.0072" lon="1.30323">
        <ele>407</ele>
        <time>2018-06-17T08:42:49.000Z</time>
      </trkpt>
      <trkpt lat="46.00732" lon="1.30336">
        <ele>405</ele>
        <time>2018-06-17T08:42:55.000Z</time>
      </trkpt>
      <trkpt lat="46.00774" lon="1.30365">
        <ele>402</ele>
        <time>2018-06-17T08:43:12.000Z</time>
      </trkpt>
      <trkpt lat="46.00777" lon="1.30367">
        <ele>402</ele>
        <time>2018-06-17T08:43:13.000Z</time>
      </trkpt>
      <trkpt lat="46.00819" lon="1.30398">
        <ele>410</ele>
        <time>2018-06-17T08:43:30.000Z</time>
      </trkpt>
      <trkpt lat="46.00822" lon="1.30402">
        <ele>410</ele>
        <time>2018-06-17T08:43:31.000Z</time>
      </trkpt>
      <trkpt lat="46.00827" lon="1.30422">
        <ele>413</ele>
        <time>2018-06-17T08:43:35.000Z</time>
      </trkpt>
      <trkpt lat="46.00833" lon="1.30487">
        <ele>414</ele>
        <time>2018-06-17T08:43:50.000Z</time>
      </trkpt>
      <trkpt lat="46.00833" lon="1.30491">
        <ele>414</ele>
        <time>2018-06-17T08:43:51.000Z</time>
      </trkpt>
      <trkpt lat="46.00835" lon="1.30558">
        <ele>413</ele>
        <time>2018-06-17T08:44:09.000Z</time>
      </trkpt>
      <trkpt lat="46.00835" lon="1.30561">
        <ele>414</ele>
        <time>2018-06-17T08:44:10.000Z</time>
      </trkpt>
      <trkpt lat="46.00837" lon="1.30578">
        <ele>414</ele>
        <time>2018-06-17T08:44:16.000Z</time>
      </trkpt>
      <trkpt lat="46.00842" lon="1.30595">
        <ele>414</ele>
        <time>2018-06-17T08:44:22.000Z</time>
      </trkpt>
      <trkpt lat="46.00843" lon="1.30606">
        <ele>414</ele>
        <time>2018-06-17T08:44:26.000Z</time>
      </trkpt>
      <trkpt lat="46.00848" lon="1.30615">
        <ele>415</ele>
        <time>2018-06-17T08:44:30.000Z</time>
      </trkpt>
      <trkpt lat="46.00867" lon="1.3064">
        <ele>417</ele>
        <time>2018-06-17T08:44:42.000Z</time>
      </trkpt>
      <trkpt lat="46.00901" lon="1.30685">
        <ele>419</ele>
        <time>2018-06-17T08:45:02.000Z</time>
      </trkpt>
      <trkpt lat="46.00903" lon="1.30688">
        <ele>419</ele>
        <time>2018-06-17T08:45:03.000Z</time>
      </trkpt>
      <trkpt lat="46.00925" lon="1.30712">
        <ele>420</ele>
        <time>2018-06-17T08:45:16.000Z</time>
      </trkpt>
      <trkpt lat="46.00937" lon="1.30714">
        <ele>421</ele>
        <time>2018-06-17T08:45:22.000Z</time>
      </trkpt>
      <trkpt lat="46.00951" lon="1.30719">
        <ele>426</ele>
        <time>2018-06-17T08:45:30.000Z</time>
      </trkpt>
      <trkpt lat="46.00959" lon="1.3073">
        <ele>430</ele>
        <time>2018-06-17T08:45:36.000Z</time>
      </trkpt>
      <trkpt lat="46.00959" lon="1.3074">
        <ele>431</ele>
        <time>2018-06-17T08:45:40.000Z</time>
      </trkpt>
      <trkpt lat="46.00954" lon="1.30748">
        <ele>432</ele>
        <time>2018-06-17T08:45:44.000Z</time>
      </trkpt>
      <trkpt lat="46.00924" lon="1.30797">
        <ele>435</ele>
        <time>2018-06-17T08:46:04.000Z</time>
      </trkpt>
      <trkpt lat="46.00922" lon="1.30799">
        <ele>435</ele>
        <time>2018-06-17T08:46:05.000Z</time>
      </trkpt>
      <trkpt lat="46.00917" lon="1.30802">
        <ele>435</ele>
        <time>2018-06-17T08:46:07.000Z</time>
      </trkpt>
      <trkpt lat="46.00876" lon="1.30832">
        <ele>435</ele>
        <time>2018-06-17T08:46:24.000Z</time>
      </trkpt>
      <trkpt lat="46.00874" lon="1.30835">
        <ele>435</ele>
        <time>2018-06-17T08:46:25.000Z</time>
      </trkpt>
      <trkpt lat="46.00835" lon="1.30874">
        <ele>432</ele>
        <time>2018-06-17T08:46:35.000Z</time>
      </trkpt>
      <trkpt lat="46.00831" lon="1.30879">
        <ele>432</ele>
        <time>2018-06-17T08:46:36.000Z</time>
      </trkpt>
      <trkpt lat="46.00812" lon="1.30894">
        <ele>430</ele>
        <time>2018-06-17T08:46:40.000Z</time>
      </trkpt>
      <trkpt lat="46.00768" lon="1.30913">
        <ele>422</ele>
        <time>2018-06-17T08:46:47.000Z</time>
      </trkpt>
      <trkpt lat="46.00762" lon="1.30917">
        <ele>421</ele>
        <time>2018-06-17T08:46:48.000Z</time>
      </trkpt>
      <trkpt lat="46.00757" lon="1.30922">
        <ele>420</ele>
        <time>2018-06-17T08:46:49.000Z</time>
      </trkpt>
      <trkpt lat="46.00735" lon="1.30938">
        <ele>416</ele>
        <time>2018-06-17T08:46:53.000Z</time>
      </trkpt>
      <trkpt lat="46.00684" lon="1.30946">
        <ele>410</ele>
        <time>2018-06-17T08:47:00.000Z</time>
      </trkpt>
      <trkpt lat="46.00678" lon="1.30947">
        <ele>410</ele>
        <time>2018-06-17T08:47:01.000Z</time>
      </trkpt>
      <trkpt lat="46.00661" lon="1.30951">
        <ele>410</ele>
        <time>2018-06-17T08:47:05.000Z</time>
      </trkpt>
      <trkpt lat="46.00659" lon="1.3096">
        <ele>411</ele>
        <time>2018-06-17T08:47:08.000Z</time>
      </trkpt>
      <trkpt lat="46.00658" lon="1.30976">
        <ele>412</ele>
        <time>2018-06-17T08:47:14.000Z</time>
      </trkpt>
      <trkpt lat="46.00657" lon="1.3099">
        <ele>412</ele>
        <time>2018-06-17T08:47:17.000Z</time>
      </trkpt>
      <trkpt lat="46.0066" lon="1.31008">
        <ele>412</ele>
        <time>2018-06-17T08:47:20.000Z</time>
      </trkpt>
      <trkpt lat="46.00669" lon="1.31034">
        <ele>412</ele>
        <time>2018-06-17T08:47:24.000Z</time>
      </trkpt>
      <trkpt lat="46.00699" lon="1.3109">
        <ele>410</ele>
        <time>2018-06-17T08:47:32.000Z</time>
      </trkpt>
      <trkpt lat="46.00704" lon="1.31098">
        <ele>410</ele>
        <time>2018-06-17T08:47:33.000Z</time>
      </trkpt>
      <trkpt lat="46.00731" lon="1.31155">
        <ele>412</ele>
        <time>2018-06-17T08:47:41.000Z</time>
      </trkpt>
      <trkpt lat="46.00734" lon="1.31161">
        <ele>413</ele>
        <time>2018-06-17T08:47:42.000Z</time>
      </trkpt>
      <trkpt lat="46.00742" lon="1.31183">
        <ele>414</ele>
        <time>2018-06-17T08:47:46.000Z</time>
      </trkpt>
      <trkpt lat="46.00764" lon="1.31244">
        <ele>417</ele>
        <time>2018-06-17T08:47:58.000Z</time>
      </trkpt>
      <trkpt lat="46.00766" lon="1.31249">
        <ele>417</ele>
        <time>2018-06-17T08:47:59.000Z</time>
      </trkpt>
      <trkpt lat="46.0078" lon="1.31284">
        <ele>419</ele>
        <time>2018-06-17T08:48:06.000Z</time>
      </trkpt>
      <trkpt lat="46.00801" lon="1.3131">
        <ele>420</ele>
        <time>2018-06-17T08:48:13.000Z</time>
      </trkpt>
      <trkpt lat="46.00845" lon="1.31343">
        <ele>420</ele>
        <time>2018-06-17T08:48:24.000Z</time>
      </trkpt>
      <trkpt lat="46.0085" lon="1.31346">
        <ele>420</ele>
        <time>2018-06-17T08:48:25.000Z</time>
      </trkpt>
      <trkpt lat="46.0089" lon="1.31376">
        <ele>420</ele>
        <time>2018-06-17T08:48:34.000Z</time>
      </trkpt>
      <trkpt lat="46.00894" lon="1.31379">
        <ele>420</ele>
        <time>2018-06-17T08:48:35.000Z</time>
      </trkpt>
      <trkpt lat="46.00917" lon="1.31403">
        <ele>420</ele>
        <time>2018-06-17T08:48:41.000Z</time>
      </trkpt>
      <trkpt lat="46.00932" lon="1.31438">
        <ele>422</ele>
        <time>2018-06-17T08:48:48.000Z</time>
      </trkpt>
      <trkpt lat="46.00949" lon="1.31486">
        <ele>425</ele>
        <time>2018-06-17T08:48:58.000Z</time>
      </trkpt>
      <trkpt lat="46.00948" lon="1.31496">
        <ele>425</ele>
        <time>2018-06-17T08:49:00.000Z</time>
      </trkpt>
      <trkpt lat="46.00945" lon="1.31506">
        <ele>426</ele>
        <time>2018-06-17T08:49:02.000Z</time>
      </trkpt>
      <trkpt lat="46.00938" lon="1.31516">
        <ele>426</ele>
        <time>2018-06-17T08:49:04.000Z</time>
      </trkpt>
      <trkpt lat="46.00902" lon="1.31566">
        <ele>425</ele>
        <time>2018-06-17T08:49:12.000Z</time>
      </trkpt>
      <trkpt lat="46.00897" lon="1.31571">
        <ele>424</ele>
        <time>2018-06-17T08:49:13.000Z</time>
      </trkpt>
      <trkpt lat="46.00891" lon="1.31576">
        <ele>424</ele>
        <time>2018-06-17T08:49:14.000Z</time>
      </trkpt>
      <trkpt lat="46.00846" lon="1.31594">
        <ele>423</ele>
        <time>2018-06-17T08:49:22.000Z</time>
      </trkpt>
      <trkpt lat="46.0084" lon="1.31597">
        <ele>423</ele>
        <time>2018-06-17T08:49:23.000Z</time>
      </trkpt>
      <trkpt lat="46.00797" lon="1.31622">
        <ele>419</ele>
        <time>2018-06-17T08:49:32.000Z</time>
      </trkpt>
      <trkpt lat="46.00793" lon="1.31624">
        <ele>418</ele>
        <time>2018-06-17T08:49:33.000Z</time>
      </trkpt>
      <trkpt lat="46.00755" lon="1.31648">
        <ele>414</ele>
        <time>2018-06-17T08:49:42.000Z</time>
      </trkpt>
      <trkpt lat="46.00735" lon="1.31647">
        <ele>411</ele>
        <time>2018-06-17T08:49:47.000Z</time>
      </trkpt>
      <trkpt lat="46.00714" lon="1.31636">
        <ele>407</ele>
        <time>2018-06-17T08:49:54.000Z</time>
      </trkpt>
      <trkpt lat="46.00696" lon="1.31637">
        <ele>403</ele>
        <time>2018-06-17T08:50:00.000Z</time>
      </trkpt>
      <trkpt lat="46.00684" lon="1.31638">
        <ele>402</ele>
        <time>2018-06-17T08:50:06.000Z</time>
      </trkpt>
      <trkpt lat="46.00674" lon="1.31635">
        <ele>402</ele>
        <time>2018-06-17T08:50:11.000Z</time>
      </trkpt>
      <trkpt lat="46.0066" lon="1.31632">
        <ele>405</ele>
        <time>2018-06-17T08:50:20.000Z</time>
      </trkpt>
      <trkpt lat="46.00652" lon="1.31622">
        <ele>408</ele>
        <time>2018-06-17T08:50:27.000Z</time>
      </trkpt>
      <trkpt lat="46.00644" lon="1.31608">
        <ele>410</ele>
        <time>2018-06-17T08:50:36.000Z</time>
      </trkpt>
      <trkpt lat="46.00635" lon="1.31602">
        <ele>412</ele>
        <time>2018-06-17T08:50:42.000Z</time>
      </trkpt>
      <trkpt lat="46.00628" lon="1.31596">
        <ele>413</ele>
        <time>2018-06-17T08:50:49.000Z</time>
      </trkpt>
      <trkpt lat="46.00618" lon="1.31584">
        <ele>417</ele>
        <time>2018-06-17T08:50:57.000Z</time>
      </trkpt>
      <trkpt lat="46.00579" lon="1.31549">
        <ele>416</ele>
        <time>2018-06-17T08:51:23.000Z</time>
      </trkpt>
      <trkpt lat="46.00577" lon="1.31547">
        <ele>416</ele>
        <time>2018-06-17T08:51:24.000Z</time>
      </trkpt>
      <trkpt lat="46.00575" lon="1.31546">
        <ele>416</ele>
        <time>2018-06-17T08:51:25.000Z</time>
      </trkpt>
      <trkpt lat="46.00565" lon="1.31536">
        <ele>416</ele>
        <time>2018-06-17T08:51:31.000Z</time>
      </trkpt>
      <trkpt lat="46.0054" lon="1.31519">
        <ele>415</ele>
        <time>2018-06-17T08:51:46.000Z</time>
      </trkpt>
      <trkpt lat="46.00538" lon="1.31503">
        <ele>417</ele>
        <time>2018-06-17T08:51:52.000Z</time>
      </trkpt>
      <trkpt lat="46.00538" lon="1.31489">
        <ele>421</ele>
        <time>2018-06-17T08:51:58.000Z</time>
      </trkpt>
      <trkpt lat="46.00539" lon="1.31479">
        <ele>423</ele>
        <time>2018-06-17T08:52:02.000Z</time>
      </trkpt>
      <trkpt lat="46.00541" lon="1.31457">
        <ele>427</ele>
        <time>2018-06-17T08:52:10.000Z</time>
      </trkpt>
      <trkpt lat="46.00536" lon="1.31446">
        <ele>430</ele>
        <time>2018-06-17T08:52:16.000Z</time>
      </trkpt>
      <trkpt lat="46.00531" lon="1.31448">
        <ele>432</ele>
        <time>2018-06-17T08:52:20.000Z</time>
      </trkpt>
      <trkpt lat="46.0052" lon="1.3149">
        <ele>435</ele>
        <time>2018-06-17T08:52:32.000Z</time>
      </trkpt>
      <trkpt lat="46.00514" lon="1.31499">
        <ele>436</ele>
        <time>2018-06-17T08:52:35.000Z</time>
      </trkpt>
      <trkpt lat="46.00507" lon="1.31508">
        <ele>436</ele>
        <time>2018-06-17T08:52:38.000Z</time>
      </trkpt>
      <trkpt lat="46.00487" lon="1.31527">
        <ele>436</ele>
        <time>2018-06-17T08:52:46.000Z</time>
      </trkpt>
      <trkpt lat="46.00455" lon="1.31545">
        <ele>437</ele>
        <time>2018-06-17T08:53:00.000Z</time>
      </trkpt>
      <trkpt lat="46.00438" lon="1.31555">
        <ele>436</ele>
        <time>2018-06-17T08:53:07.000Z</time>
      </trkpt>
      <trkpt lat="46.00402" lon="1.31595">
        <ele>432</ele>
        <time>2018-06-17T08:53:26.000Z</time>
      </trkpt>
      <trkpt lat="46.00399" lon="1.31597">
        <ele>432</ele>
        <time>2018-06-17T08:53:27.000Z</time>
      </trkpt>
      <trkpt lat="46.00389" lon="1.31604">
        <ele>434</ele>
        <time>2018-06-17T08:53:33.000Z</time>
      </trkpt>
      <trkpt lat="46.00371" lon="1.31611">
        <ele>438</ele>
        <time>2018-06-17T08:53:42.000Z</time>
      </trkpt>
      <trkpt lat="46.00339" lon="1.31616">
        <ele>443</ele>
        <time>2018-06-17T08:53:56.000Z</time>
      </trkpt>
      <trkpt lat="46.00331" lon="1.31614">
        <ele>443</ele>
        <time>2018-06-17T08:54:00.000Z</time>
      </trkpt>
      <trkpt lat="46.0031" lon="1.31594">
        <ele>445</ele>
        <time>2018-06-17T08:54:10.000Z</time>
      </trkpt>
      <trkpt lat="46.0031" lon="1.31581">
        <ele>447</ele>
        <time>2018-06-17T08:54:14.000Z</time>
      </trkpt>
      <trkpt lat="46.00308" lon="1.3157">
        <ele>449</ele>
        <time>2018-06-17T08:54:17.000Z</time>
      </trkpt>
      <trkpt lat="46.00306" lon="1.31562">
        <ele>449</ele>
        <time>2018-06-17T08:54:19.000Z</time>
      </trkpt>
      <trkpt lat="46.00276" lon="1.31505">
        <ele>452</ele>
        <time>2018-06-17T08:54:32.000Z</time>
      </trkpt>
      <trkpt lat="46.00274" lon="1.315">
        <ele>452</ele>
        <time>2018-06-17T08:54:33.000Z</time>
      </trkpt>
      <trkpt lat="46.00268" lon="1.31494">
        <ele>452</ele>
        <time>2018-06-17T08:54:35.000Z</time>
      </trkpt>
      <trkpt lat="46.0026" lon="1.31494">
        <ele>452</ele>
        <time>2018-06-17T08:54:38.000Z</time>
      </trkpt>
      <trkpt lat="46.00255" lon="1.31495">
        <ele>452</ele>
        <time>2018-06-17T08:54:40.000Z</time>
      </trkpt>
      <trkpt lat="46.00243" lon="1.31493">
        <ele>451</ele>
        <time>2018-06-17T08:54:43.000Z</time>
      </trkpt>
      <trkpt lat="46.00233" lon="1.31499">
        <ele>451</ele>
        <time>2018-06-17T08:54:46.000Z</time>
      </trkpt>
      <trkpt lat="46.00217" lon="1.31521">
        <ele>451</ele>
        <time>2018-06-17T08:54:54.000Z</time>
      </trkpt>
      <trkpt lat="46.00211" lon="1.31527">
        <ele>451</ele>
        <time>2018-06-17T08:54:56.000Z</time>
      </trkpt>
      <trkpt lat="46.002" lon="1.31533">
        <ele>451</ele>
        <time>2018-06-17T08:54:59.000Z</time>
      </trkpt>
      <trkpt lat="46.00157" lon="1.31567">
        <ele>446</ele>
        <time>2018-06-17T08:55:09.000Z</time>
      </trkpt>
      <trkpt lat="46.00151" lon="1.3157">
        <ele>446</ele>
        <time>2018-06-17T08:55:10.000Z</time>
      </trkpt>
      <trkpt lat="46.0012" lon="1.3159">
        <ele>443</ele>
        <time>2018-06-17T08:55:16.000Z</time>
      </trkpt>
      <trkpt lat="46.00095" lon="1.31628">
        <ele>440</ele>
        <time>2018-06-17T08:55:23.000Z</time>
      </trkpt>
      <trkpt lat="46.00074" lon="1.31644">
        <ele>440</ele>
        <time>2018-06-17T08:55:30.000Z</time>
      </trkpt>
      <trkpt lat="46.00044" lon="1.31664">
        <ele>443</ele>
        <time>2018-06-17T08:55:39.000Z</time>
      </trkpt>
      <trkpt lat="46.00006" lon="1.31701">
        <ele>443</ele>
        <time>2018-06-17T08:55:48.000Z</time>
      </trkpt>
      <trkpt lat="46.00002" lon="1.31705">
        <ele>443</ele>
        <time>2018-06-17T08:55:49.000Z</time>
      </trkpt>
      <trkpt lat="45.99994" lon="1.31718">
        <ele>442</ele>
        <time>2018-06-17T08:55:51.000Z</time>
      </trkpt>
      <trkpt lat="45.99973" lon="1.31766">
        <ele>440</ele>
        <time>2018-06-17T08:55:58.000Z</time>
      </trkpt>
      <trkpt lat="45.99972" lon="1.3178">
        <ele>440</ele>
        <time>2018-06-17T08:56:00.000Z</time>
      </trkpt>
      <trkpt lat="45.9997" lon="1.31811">
        <ele>439</ele>
        <time>2018-06-17T08:56:04.000Z</time>
      </trkpt>
      <trkpt lat="45.99964" lon="1.31832">
        <ele>438</ele>
        <time>2018-06-17T08:56:07.000Z</time>
      </trkpt>
      <trkpt lat="45.99949" lon="1.31869">
        <ele>438</ele>
        <time>2018-06-17T08:56:13.000Z</time>
      </trkpt>
      <trkpt lat="45.99937" lon="1.31874">
        <ele>438</ele>
        <time>2018-06-17T08:56:15.000Z</time>
      </trkpt>
      <trkpt lat="45.99916" lon="1.3187">
        <ele>438</ele>
        <time>2018-06-17T08:56:19.000Z</time>
      </trkpt>
      <trkpt lat="45.99897" lon="1.31858">
        <ele>437</ele>
        <time>2018-06-17T08:56:23.000Z</time>
      </trkpt>
      <trkpt lat="45.99889" lon="1.31841">
        <ele>435</ele>
        <time>2018-06-17T08:56:26.000Z</time>
      </trkpt>
      <trkpt lat="45.99881" lon="1.31824">
        <ele>434</ele>
        <time>2018-06-17T08:56:29.000Z</time>
      </trkpt>
      <trkpt lat="45.99873" lon="1.31817">
        <ele>433</ele>
        <time>2018-06-17T08:56:31.000Z</time>
      </trkpt>
      <trkpt lat="45.99859" lon="1.31814">
        <ele>432</ele>
        <time>2018-06-17T08:56:34.000Z</time>
      </trkpt>
      <trkpt lat="45.99829" lon="1.3182">
        <ele>432</ele>
        <time>2018-06-17T08:56:40.000Z</time>
      </trkpt>
      <trkpt lat="45.99812" lon="1.31825">
        <ele>432</ele>
        <time>2018-06-17T08:56:44.000Z</time>
      </trkpt>
      <trkpt lat="45.99795" lon="1.31826">
        <ele>431</ele>
        <time>2018-06-17T08:56:47.000Z</time>
      </trkpt>
      <trkpt lat="45.9978" lon="1.3182">
        <ele>431</ele>
        <time>2018-06-17T08:56:50.000Z</time>
      </trkpt>
      <trkpt lat="45.99764" lon="1.31813">
        <ele>431</ele>
        <time>2018-06-17T08:56:54.000Z</time>
      </trkpt>
      <trkpt lat="45.99752" lon="1.31822">
        <ele>431</ele>
        <time>2018-06-17T08:56:57.000Z</time>
      </trkpt>
      <trkpt lat="45.99743" lon="1.31838">
        <ele>431</ele>
        <time>2018-06-17T08:57:00.000Z</time>
      </trkpt>
      <trkpt lat="45.99729" lon="1.31876">
        <ele>431</ele>
        <time>2018-06-17T08:57:06.000Z</time>
      </trkpt>
      <trkpt lat="45.99719" lon="1.31875">
        <ele>431</ele>
        <time>2018-06-17T08:57:09.000Z</time>
      </trkpt>
      <trkpt lat="45.99687" lon="1.3187">
        <ele>429</ele>
        <time>2018-06-17T08:57:15.000Z</time>
      </trkpt>
      <trkpt lat="45.99641" lon="1.31871">
        <ele>428</ele>
        <time>2018-06-17T08:57:22.000Z</time>
      </trkpt>
      <trkpt lat="45.99635" lon="1.31867">
        <ele>428</ele>
        <time>2018-06-17T08:57:23.000Z</time>
      </trkpt>
      <trkpt lat="45.9963" lon="1.31859">
        <ele>427</ele>
        <time>2018-06-17T08:57:24.000Z</time>
      </trkpt>
      <trkpt lat="45.99612" lon="1.31829">
        <ele>425</ele>
        <time>2018-06-17T08:57:28.000Z</time>
      </trkpt>
      <trkpt lat="45.99568" lon="1.31814">
        <ele>421</ele>
        <time>2018-06-17T08:57:33.000Z</time>
      </trkpt>
      <trkpt lat="45.99558" lon="1.3181">
        <ele>421</ele>
        <time>2018-06-17T08:57:34.000Z</time>
      </trkpt>
      <trkpt lat="45.9954" lon="1.31805">
        <ele>420</ele>
        <time>2018-06-17T08:57:36.000Z</time>
      </trkpt>
      <trkpt lat="45.99528" lon="1.31814">
        <ele>421</ele>
        <time>2018-06-17T08:57:38.000Z</time>
      </trkpt>
      <trkpt lat="45.99517" lon="1.31828">
        <ele>423</ele>
        <time>2018-06-17T08:57:41.000Z</time>
      </trkpt>
      <trkpt lat="45.99508" lon="1.31835">
        <ele>425</ele>
        <time>2018-06-17T08:57:44.000Z</time>
      </trkpt>
      <trkpt lat="45.995" lon="1.31837">
        <ele>426</ele>
        <time>2018-06-17T08:57:47.000Z</time>
      </trkpt>
      <trkpt lat="45.99493" lon="1.31836">
        <ele>426</ele>
        <time>2018-06-17T08:57:49.000Z</time>
      </trkpt>
      <trkpt lat="45.99452" lon="1.31808">
        <ele>431</ele>
        <time>2018-06-17T08:58:07.000Z</time>
      </trkpt>
      <trkpt lat="45.99449" lon="1.31808">
        <ele>431</ele>
        <time>2018-06-17T08:58:08.000Z</time>
      </trkpt>
      <trkpt lat="45.99424" lon="1.31807">
        <ele>433</ele>
        <time>2018-06-17T08:58:17.000Z</time>
      </trkpt>
      <trkpt lat="45.99379" lon="1.31805">
        <ele>431</ele>
        <time>2018-06-17T08:58:29.000Z</time>
      </trkpt>
      <trkpt lat="45.99372" lon="1.31805">
        <ele>431</ele>
        <time>2018-06-17T08:58:30.000Z</time>
      </trkpt>
      <trkpt lat="45.99332" lon="1.31798">
        <ele>428</ele>
        <time>2018-06-17T08:58:36.000Z</time>
      </trkpt>
      <trkpt lat="45.99326" lon="1.31794">
        <ele>428</ele>
        <time>2018-06-17T08:58:37.000Z</time>
      </trkpt>
      <trkpt lat="45.99312" lon="1.31782">
        <ele>428</ele>
        <time>2018-06-17T08:58:40.000Z</time>
      </trkpt>
      <trkpt lat="45.99303" lon="1.31763">
        <ele>428</ele>
        <time>2018-06-17T08:58:44.000Z</time>
      </trkpt>
      <trkpt lat="45.99298" lon="1.31739">
        <ele>429</ele>
        <time>2018-06-17T08:58:49.000Z</time>
      </trkpt>
      <trkpt lat="45.99292" lon="1.31703">
        <ele>430</ele>
        <time>2018-06-17T08:58:55.000Z</time>
      </trkpt>
      <trkpt lat="45.9929" lon="1.31694">
        <ele>430</ele>
        <time>2018-06-17T08:58:57.000Z</time>
      </trkpt>
      <trkpt lat="45.99291" lon="1.31681">
        <ele>429</ele>
        <time>2018-06-17T08:59:00.000Z</time>
      </trkpt>
      <trkpt lat="45.99296" lon="1.31674">
        <ele>428</ele>
        <time>2018-06-17T08:59:02.000Z</time>
      </trkpt>
      <trkpt lat="45.99303" lon="1.31665">
        <ele>429</ele>
        <time>2018-06-17T08:59:05.000Z</time>
      </trkpt>
      <trkpt lat="45.99305" lon="1.31657">
        <ele>429</ele>
        <time>2018-06-17T08:59:07.000Z</time>
      </trkpt>
      <trkpt lat="45.993" lon="1.3165">
        <ele>429</ele>
        <time>2018-06-17T08:59:11.000Z</time>
      </trkpt>
      <trkpt lat="45.99287" lon="1.31644">
        <ele>429</ele>
        <time>2018-06-17T08:59:17.000Z</time>
      </trkpt>
      <trkpt lat="45.99263" lon="1.31629">
        <ele>429</ele>
        <time>2018-06-17T08:59:28.000Z</time>
      </trkpt>
      <trkpt lat="45.99256" lon="1.31624">
        <ele>435</ele>
        <time>2018-06-17T08:59:45.000Z</time>
      </trkpt>
      <trkpt lat="45.99249" lon="1.31616">
        <ele>438</ele>
        <time>2018-06-17T08:59:54.000Z</time>
      </trkpt>
      <trkpt lat="45.99246" lon="1.31607">
        <ele>439</ele>
        <time>2018-06-17T09:00:02.000Z</time>
      </trkpt>
      <trkpt lat="45.99245" lon="1.31599">
        <ele>440</ele>
        <time>2018-06-17T09:00:09.000Z</time>
      </trkpt>
      <trkpt lat="45.99247" lon="1.31591">
        <ele>442</ele>
        <time>2018-06-17T09:00:16.000Z</time>
      </trkpt>
      <trkpt lat="45.99252" lon="1.31587">
        <ele>445</ele>
        <time>2018-06-17T09:00:23.000Z</time>
      </trkpt>
      <trkpt lat="45.99261" lon="1.31578">
        <ele>446</ele>
        <time>2018-06-17T09:00:35.000Z</time>
      </trkpt>
      <trkpt lat="45.99271" lon="1.31569">
        <ele>448</ele>
        <time>2018-06-17T09:00:49.000Z</time>
      </trkpt>
      <trkpt lat="45.99282" lon="1.31553">
        <ele>459</ele>
        <time>2018-06-17T09:01:21.000Z</time>
      </trkpt>
      <trkpt lat="45.99282" lon="1.31545">
        <ele>459</ele>
        <time>2018-06-17T09:01:31.000Z</time>
      </trkpt>
      <trkpt lat="45.99278" lon="1.31531">
        <ele>457</ele>
        <time>2018-06-17T09:01:48.000Z</time>
      </trkpt>
      <trkpt lat="45.99273" lon="1.31529">
        <ele>456</ele>
        <time>2018-06-17T09:01:54.000Z</time>
      </trkpt>
      <trkpt lat="45.99263" lon="1.31525">
        <ele>454</ele>
        <time>2018-06-17T09:02:06.000Z</time>
      </trkpt>
      <trkpt lat="45.99246" lon="1.31524">
        <ele>450</ele>
        <time>2018-06-17T09:02:16.000Z</time>
      </trkpt>
      <trkpt lat="45.99201" lon="1.31533">
        <ele>454</ele>
        <time>2018-06-17T09:02:45.000Z</time>
      </trkpt>
      <trkpt lat="45.99199" lon="1.31533">
        <ele>453</ele>
        <time>2018-06-17T09:02:46.000Z</time>
      </trkpt>
      <trkpt lat="45.99195" lon="1.31533">
        <ele>453</ele>
        <time>2018-06-17T09:02:49.000Z</time>
      </trkpt>
      <trkpt lat="45.99185" lon="1.31534">
        <ele>454</ele>
        <time>2018-06-17T09:02:56.000Z</time>
      </trkpt>
      <trkpt lat="45.99176" lon="1.31531">
        <ele>454</ele>
        <time>2018-06-17T09:03:00.000Z</time>
      </trkpt>
      <trkpt lat="45.99132" lon="1.31509">
        <ele>454</ele>
        <time>2018-06-17T09:03:14.000Z</time>
      </trkpt>
      <trkpt lat="45.99128" lon="1.31507">
        <ele>454</ele>
        <time>2018-06-17T09:03:15.000Z</time>
      </trkpt>
      <trkpt lat="45.99115" lon="1.31505">
        <ele>454</ele>
        <time>2018-06-17T09:03:18.000Z</time>
      </trkpt>
      <trkpt lat="45.99072" lon="1.31524">
        <ele>454</ele>
        <time>2018-06-17T09:03:28.000Z</time>
      </trkpt>
      <trkpt lat="45.99069" lon="1.31528">
        <ele>454</ele>
        <time>2018-06-17T09:03:29.000Z</time>
      </trkpt>
      <trkpt lat="45.99062" lon="1.31536">
        <ele>453</ele>
        <time>2018-06-17T09:03:31.000Z</time>
      </trkpt>
      <trkpt lat="45.99049" lon="1.31541">
        <ele>451</ele>
        <time>2018-06-17T09:03:34.000Z</time>
      </trkpt>
      <trkpt lat="45.99015" lon="1.31539">
        <ele>448</ele>
        <time>2018-06-17T09:03:41.000Z</time>
      </trkpt>
      <trkpt lat="45.99" lon="1.31537">
        <ele>446</ele>
        <time>2018-06-17T09:03:45.000Z</time>
      </trkpt>
      <trkpt lat="45.98987" lon="1.31538">
        <ele>444</ele>
        <time>2018-06-17T09:03:48.000Z</time>
      </trkpt>
      <trkpt lat="45.9898" lon="1.31537">
        <ele>443</ele>
        <time>2018-06-17T09:03:50.000Z</time>
      </trkpt>
      <trkpt lat="45.98972" lon="1.31543">
        <ele>442</ele>
        <time>2018-06-17T09:03:53.000Z</time>
      </trkpt>
      <trkpt lat="45.98965" lon="1.31551">
        <ele>441</ele>
        <time>2018-06-17T09:03:57.000Z</time>
      </trkpt>
      <trkpt lat="45.98958" lon="1.31562">
        <ele>440</ele>
        <time>2018-06-17T09:04:03.000Z</time>
      </trkpt>
      <trkpt lat="45.98947" lon="1.31562">
        <ele>440</ele>
        <time>2018-06-17T09:04:09.000Z</time>
      </trkpt>
      <trkpt lat="45.98904" lon="1.31556">
        <ele>443</ele>
        <time>2018-06-17T09:04:33.000Z</time>
      </trkpt>
      <trkpt lat="45.98902" lon="1.31556">
        <ele>443</ele>
        <time>2018-06-17T09:04:34.000Z</time>
      </trkpt>
      <trkpt lat="45.98879" lon="1.31551">
        <ele>443</ele>
        <time>2018-06-17T09:04:51.000Z</time>
      </trkpt>
      <trkpt lat="45.98857" lon="1.31555">
        <ele>443</ele>
        <time>2018-06-17T09:05:08.000Z</time>
      </trkpt>
      <trkpt lat="45.98845" lon="1.31557">
        <ele>445</ele>
        <time>2018-06-17T09:05:18.000Z</time>
      </trkpt>
      <trkpt lat="45.98833" lon="1.31555">
        <ele>451</ele>
        <time>2018-06-17T09:05:28.000Z</time>
      </trkpt>
      <trkpt lat="45.98823" lon="1.31552">
        <ele>454</ele>
        <time>2018-06-17T09:05:35.000Z</time>
      </trkpt>
      <trkpt lat="45.98817" lon="1.31551">
        <ele>455</ele>
        <time>2018-06-17T09:05:39.000Z</time>
      </trkpt>
      <trkpt lat="45.98801" lon="1.3155">
        <ele>455</ele>
        <time>2018-06-17T09:05:50.000Z</time>
      </trkpt>
      <trkpt lat="45.98773" lon="1.31545">
        <ele>454</ele>
        <time>2018-06-17T09:06:06.000Z</time>
      </trkpt>
      <trkpt lat="45.98762" lon="1.31543">
        <ele>453</ele>
        <time>2018-06-17T09:06:12.000Z</time>
      </trkpt>
      <trkpt lat="45.98752" lon="1.31541">
        <ele>454</ele>
        <time>2018-06-17T09:06:18.000Z</time>
      </trkpt>
      <trkpt lat="45.98731" lon="1.31543">
        <ele>454</ele>
        <time>2018-06-17T09:06:27.000Z</time>
      </trkpt>
      <trkpt lat="45.98684" lon="1.31544">
        <ele>460</ele>
        <time>2018-06-17T09:06:45.000Z</time>
      </trkpt>
      <trkpt lat="45.98682" lon="1.31544">
        <ele>460</ele>
        <time>2018-06-17T09:06:46.000Z</time>
      </trkpt>
      <trkpt lat="45.98672" lon="1.31542">
        <ele>459</ele>
        <time>2018-06-17T09:06:51.000Z</time>
      </trkpt>
      <trkpt lat="45.98659" lon="1.3154">
        <ele>457</ele>
        <time>2018-06-17T09:06:56.000Z</time>
      </trkpt>
      <trkpt lat="45.98653" lon="1.31539">
        <ele>457</ele>
        <time>2018-06-17T09:06:58.000Z</time>
      </trkpt>
      <trkpt lat="45.98608" lon="1.31525">
        <ele>455</ele>
        <time>2018-06-17T09:07:14.000Z</time>
      </trkpt>
      <trkpt lat="45.98606" lon="1.31524">
        <ele>455</ele>
        <time>2018-06-17T09:07:15.000Z</time>
      </trkpt>
      <trkpt lat="45.9856" lon="1.31512">
        <ele>455</ele>
        <time>2018-06-17T09:07:35.000Z</time>
      </trkpt>
      <trkpt lat="45.98556" lon="1.31511">
        <ele>455</ele>
        <time>2018-06-17T09:07:36.000Z</time>
      </trkpt>
      <trkpt lat="45.9855" lon="1.31509">
        <ele>457</ele>
        <time>2018-06-17T09:07:38.000Z</time>
      </trkpt>
      <trkpt lat="45.98542" lon="1.31507">
        <ele>459</ele>
        <time>2018-06-17T09:07:41.000Z</time>
      </trkpt>
      <trkpt lat="45.98506" lon="1.31492">
        <ele>463</ele>
        <time>2018-06-17T09:07:52.000Z</time>
      </trkpt>
      <trkpt lat="45.98484" lon="1.31478">
        <ele>463</ele>
        <time>2018-06-17T09:08:00.000Z</time>
      </trkpt>
      <trkpt lat="45.98468" lon="1.31465">
        <ele>464</ele>
        <time>2018-06-17T09:08:06.000Z</time>
      </trkpt>
      <trkpt lat="45.98455" lon="1.31451">
        <ele>464</ele>
        <time>2018-06-17T09:08:13.000Z</time>
      </trkpt>
      <trkpt lat="45.9846" lon="1.31441">
        <ele>464</ele>
        <time>2018-06-17T09:08:16.000Z</time>
      </trkpt>
      <trkpt lat="45.98488" lon="1.31391">
        <ele>469</ele>
        <time>2018-06-17T09:08:29.000Z</time>
      </trkpt>
      <trkpt lat="45.9849" lon="1.31386">
        <ele>469</ele>
        <time>2018-06-17T09:08:30.000Z</time>
      </trkpt>
      <trkpt lat="45.98514" lon="1.31328">
        <ele>470</ele>
        <time>2018-06-17T09:08:39.000Z</time>
      </trkpt>
      <trkpt lat="45.98517" lon="1.31323">
        <ele>470</ele>
        <time>2018-06-17T09:08:40.000Z</time>
      </trkpt>
      <trkpt lat="45.98537" lon="1.31283">
        <ele>473</ele>
        <time>2018-06-17T09:08:47.000Z</time>
      </trkpt>
      <trkpt lat="45.98544" lon="1.31245">
        <ele>478</ele>
        <time>2018-06-17T09:08:55.000Z</time>
      </trkpt>
      <trkpt lat="45.98545" lon="1.31228">
        <ele>480</ele>
        <time>2018-06-17T09:09:00.000Z</time>
      </trkpt>
      <trkpt lat="45.98545" lon="1.31218">
        <ele>482</ele>
        <time>2018-06-17T09:09:04.000Z</time>
      </trkpt>
      <trkpt lat="45.98545" lon="1.31201">
        <ele>483</ele>
        <time>2018-06-17T09:09:09.000Z</time>
      </trkpt>
      <trkpt lat="45.98545" lon="1.31183">
        <ele>483</ele>
        <time>2018-06-17T09:09:14.000Z</time>
      </trkpt>
      <trkpt lat="45.98545" lon="1.31167">
        <ele>483</ele>
        <time>2018-06-17T09:09:18.000Z</time>
      </trkpt>
      <trkpt lat="45.98545" lon="1.31132">
        <ele>483</ele>
        <time>2018-06-17T09:09:27.000Z</time>
      </trkpt>
      <trkpt lat="45.98548" lon="1.31125">
        <ele>483</ele>
        <time>2018-06-17T09:09:29.000Z</time>
      </trkpt>
      <trkpt lat="45.98559" lon="1.31102">
        <ele>483</ele>
        <time>2018-06-17T09:09:35.000Z</time>
      </trkpt>
      <trkpt lat="45.98588" lon="1.31063">
        <ele>486</ele>
        <time>2018-06-17T09:09:47.000Z</time>
      </trkpt>
      <trkpt lat="45.98601" lon="1.31058">
        <ele>486</ele>
        <time>2018-06-17T09:09:50.000Z</time>
      </trkpt>
      <trkpt lat="45.98648" lon="1.31052">
        <ele>489</ele>
        <time>2018-06-17T09:10:05.000Z</time>
      </trkpt>
      <trkpt lat="45.9865" lon="1.3105">
        <ele>490</ele>
        <time>2018-06-17T09:10:06.000Z</time>
      </trkpt>
      <trkpt lat="45.98658" lon="1.31044">
        <ele>490</ele>
        <time>2018-06-17T09:10:09.000Z</time>
      </trkpt>
      <trkpt lat="45.98687" lon="1.31003">
        <ele>494</ele>
        <time>2018-06-17T09:10:26.000Z</time>
      </trkpt>
      <trkpt lat="45.98697" lon="1.30994">
        <ele>496</ele>
        <time>2018-06-17T09:10:32.000Z</time>
      </trkpt>
      <trkpt lat="45.98711" lon="1.30979">
        <ele>497</ele>
        <time>2018-06-17T09:10:42.000Z</time>
      </trkpt>
      <trkpt lat="45.98732" lon="1.30975">
        <ele>500</ele>
        <time>2018-06-17T09:10:54.000Z</time>
      </trkpt>
      <trkpt lat="45.98777" lon="1.30973">
        <ele>504</ele>
        <time>2018-06-17T09:11:16.000Z</time>
      </trkpt>
      <trkpt lat="45.9878" lon="1.30972">
        <ele>504</ele>
        <time>2018-06-17T09:11:17.000Z</time>
      </trkpt>
      <trkpt lat="45.98782" lon="1.30971">
        <ele>504</ele>
        <time>2018-06-17T09:11:18.000Z</time>
      </trkpt>
      <trkpt lat="45.98788" lon="1.30967">
        <ele>506</ele>
        <time>2018-06-17T09:11:22.000Z</time>
      </trkpt>
      <trkpt lat="45.98792" lon="1.30961">
        <ele>507</ele>
        <time>2018-06-17T09:11:27.000Z</time>
      </trkpt>
      <trkpt lat="45.98796" lon="1.30945">
        <ele>510</ele>
        <time>2018-06-17T09:11:36.000Z</time>
      </trkpt>
      <trkpt lat="45.98795" lon="1.30936">
        <ele>514</ele>
        <time>2018-06-17T09:11:42.000Z</time>
      </trkpt>
      <trkpt lat="45.98792" lon="1.30922">
        <ele>518</ele>
        <time>2018-06-17T09:11:49.000Z</time>
      </trkpt>
      <trkpt lat="45.98789" lon="1.30914">
        <ele>520</ele>
        <time>2018-06-17T09:11:53.000Z</time>
      </trkpt>
      <trkpt lat="45.9879" lon="1.30886">
        <ele>520</ele>
        <time>2018-06-17T09:12:05.000Z</time>
      </trkpt>
      <trkpt lat="45.9879" lon="1.30855">
        <ele>516</ele>
        <time>2018-06-17T09:12:17.000Z</time>
      </trkpt>
      <trkpt lat="45.98791" lon="1.30844">
        <ele>514</ele>
        <time>2018-06-17T09:12:21.000Z</time>
      </trkpt>
      <trkpt lat="45.98791" lon="1.30815">
        <ele>507</ele>
        <time>2018-06-17T09:12:31.000Z</time>
      </trkpt>
      <trkpt lat="45.98789" lon="1.30784">
        <ele>501</ele>
        <time>2018-06-17T09:12:43.000Z</time>
      </trkpt>
      <trkpt lat="45.98772" lon="1.30776">
        <ele>503</ele>
        <time>2018-06-17T09:12:51.000Z</time>
      </trkpt>
      <trkpt lat="45.98761" lon="1.30771">
        <ele>503</ele>
        <time>2018-06-17T09:12:56.000Z</time>
      </trkpt>
      <trkpt lat="45.98722" lon="1.30753">
        <ele>511</ele>
        <time>2018-06-17T09:13:18.000Z</time>
      </trkpt>
      <trkpt lat="45.98705" lon="1.30747">
        <ele>517</ele>
        <time>2018-06-17T09:13:29.000Z</time>
      </trkpt>
      <trkpt lat="45.98682" lon="1.30745">
        <ele>520</ele>
        <time>2018-06-17T09:13:43.000Z</time>
      </trkpt>
      <trkpt lat="45.98661" lon="1.30748">
        <ele>524</ele>
        <time>2018-06-17T09:13:53.000Z</time>
      </trkpt>
      <trkpt lat="45.98614" lon="1.30741">
        <ele>529</ele>
        <time>2018-06-17T09:14:14.000Z</time>
      </trkpt>
      <trkpt lat="45.98611" lon="1.3074">
        <ele>529</ele>
        <time>2018-06-17T09:14:15.000Z</time>
      </trkpt>
      <trkpt lat="45.98564" lon="1.30741">
        <ele>530</ele>
        <time>2018-06-17T09:14:32.000Z</time>
      </trkpt>
      <trkpt lat="45.98561" lon="1.30741">
        <ele>530</ele>
        <time>2018-06-17T09:14:33.000Z</time>
      </trkpt>
      <trkpt lat="45.98516" lon="1.30751">
        <ele>532</ele>
        <time>2018-06-17T09:14:49.000Z</time>
      </trkpt>
      <trkpt lat="45.98513" lon="1.30752">
        <ele>532</ele>
        <time>2018-06-17T09:14:50.000Z</time>
      </trkpt>
      <trkpt lat="45.98469" lon="1.30767">
        <ele>536</ele>
        <time>2018-06-17T09:15:06.000Z</time>
      </trkpt>
      <trkpt lat="45.98466" lon="1.30768">
        <ele>537</ele>
        <time>2018-06-17T09:15:07.000Z</time>
      </trkpt>
      <trkpt lat="45.98452" lon="1.3077">
        <ele>538</ele>
        <time>2018-06-17T09:15:12.000Z</time>
      </trkpt>
      <trkpt lat="45.98439" lon="1.30767">
        <ele>540</ele>
        <time>2018-06-17T09:15:17.000Z</time>
      </trkpt>
      <trkpt lat="45.984" lon="1.30738">
        <ele>541</ele>
        <time>2018-06-17T09:15:35.000Z</time>
      </trkpt>
      <trkpt lat="45.98398" lon="1.30736">
        <ele>541</ele>
        <time>2018-06-17T09:15:36.000Z</time>
      </trkpt>
      <trkpt lat="45.98395" lon="1.30734">
        <ele>541</ele>
        <time>2018-06-17T09:15:37.000Z</time>
      </trkpt>
      <trkpt lat="45.9838" lon="1.3071">
        <ele>540</ele>
        <time>2018-06-17T09:15:44.000Z</time>
      </trkpt>
      <trkpt lat="45.98367" lon="1.30692">
        <ele>540</ele>
        <time>2018-06-17T09:15:49.000Z</time>
      </trkpt>
      <trkpt lat="45.98358" lon="1.30688">
        <ele>541</ele>
        <time>2018-06-17T09:15:52.000Z</time>
      </trkpt>
      <trkpt lat="45.98352" lon="1.30694">
        <ele>542</ele>
        <time>2018-06-17T09:15:55.000Z</time>
      </trkpt>
      <trkpt lat="45.98346" lon="1.30707">
        <ele>543</ele>
        <time>2018-06-17T09:15:59.000Z</time>
      </trkpt>
      <trkpt lat="45.98344" lon="1.30714">
        <ele>544</ele>
        <time>2018-06-17T09:16:01.000Z</time>
      </trkpt>
      <trkpt lat="45.98326" lon="1.30776">
        <ele>547</ele>
        <time>2018-06-17T09:16:18.000Z</time>
      </trkpt>
      <trkpt lat="45.98325" lon="1.30781">
        <ele>547</ele>
        <time>2018-06-17T09:16:19.000Z</time>
      </trkpt>
      <trkpt lat="45.98316" lon="1.30855">
        <ele>544</ele>
        <time>2018-06-17T09:16:30.000Z</time>
      </trkpt>
      <trkpt lat="45.98315" lon="1.30865">
        <ele>544</ele>
        <time>2018-06-17T09:16:31.000Z</time>
      </trkpt>
      <trkpt lat="45.98314" lon="1.30875">
        <ele>544</ele>
        <time>2018-06-17T09:16:32.000Z</time>
      </trkpt>
      <trkpt lat="45.98308" lon="1.30908">
        <ele>545</ele>
        <time>2018-06-17T09:16:36.000Z</time>
      </trkpt>
      <trkpt lat="45.98302" lon="1.3091">
        <ele>545</ele>
        <time>2018-06-17T09:16:38.000Z</time>
      </trkpt>
      <trkpt lat="45.98297" lon="1.30904">
        <ele>546</ele>
        <time>2018-06-17T09:16:41.000Z</time>
      </trkpt>
      <trkpt lat="45.98287" lon="1.3088">
        <ele>545</ele>
        <time>2018-06-17T09:16:47.000Z</time>
      </trkpt>
      <trkpt lat="45.98259" lon="1.30826">
        <ele>549</ele>
        <time>2018-06-17T09:16:59.000Z</time>
      </trkpt>
      <trkpt lat="45.98256" lon="1.3082">
        <ele>549</ele>
        <time>2018-06-17T09:17:00.000Z</time>
      </trkpt>
      <trkpt lat="45.98223" lon="1.30766">
        <ele>546</ele>
        <time>2018-06-17T09:17:09.000Z</time>
      </trkpt>
      <trkpt lat="45.98219" lon="1.30759">
        <ele>546</ele>
        <time>2018-06-17T09:17:10.000Z</time>
      </trkpt>
      <trkpt lat="45.98189" lon="1.30703">
        <ele>542</ele>
        <time>2018-06-17T09:17:17.000Z</time>
      </trkpt>
      <trkpt lat="45.98186" lon="1.30693">
        <ele>541</ele>
        <time>2018-06-17T09:17:18.000Z</time>
      </trkpt>
      <trkpt lat="45.98178" lon="1.30673">
        <ele>540</ele>
        <time>2018-06-17T09:17:20.000Z</time>
      </trkpt>
      <trkpt lat="45.98159" lon="1.30614">
        <ele>535</ele>
        <time>2018-06-17T09:17:26.000Z</time>
      </trkpt>
      <trkpt lat="45.98155" lon="1.30606">
        <ele>534</ele>
        <time>2018-06-17T09:17:27.000Z</time>
      </trkpt>
      <trkpt lat="45.98131" lon="1.3058">
        <ele>532</ele>
        <time>2018-06-17T09:17:32.000Z</time>
      </trkpt>
      <trkpt lat="45.98121" lon="1.30571">
        <ele>531</ele>
        <time>2018-06-17T09:17:36.000Z</time>
      </trkpt>
      <trkpt lat="45.98097" lon="1.30555">
        <ele>528</ele>
        <time>2018-06-17T09:17:44.000Z</time>
      </trkpt>
      <trkpt lat="45.98054" lon="1.30529">
        <ele>528</ele>
        <time>2018-06-17T09:17:55.000Z</time>
      </trkpt>
      <trkpt lat="45.9805" lon="1.30526">
        <ele>528</ele>
        <time>2018-06-17T09:17:56.000Z</time>
      </trkpt>
      <trkpt lat="45.98008" lon="1.30499">
        <ele>532</ele>
        <time>2018-06-17T09:18:07.000Z</time>
      </trkpt>
      <trkpt lat="45.98005" lon="1.30497">
        <ele>532</ele>
        <time>2018-06-17T09:18:08.000Z</time>
      </trkpt>
      <trkpt lat="45.97982" lon="1.30491">
        <ele>533</ele>
        <time>2018-06-17T09:18:15.000Z</time>
      </trkpt>
      <trkpt lat="45.97948" lon="1.30492">
        <ele>536</ele>
        <time>2018-06-17T09:18:27.000Z</time>
      </trkpt>
      <trkpt lat="45.97935" lon="1.30487">
        <ele>537</ele>
        <time>2018-06-17T09:18:32.000Z</time>
      </trkpt>
      <trkpt lat="45.97914" lon="1.30476">
        <ele>540</ele>
        <time>2018-06-17T09:18:41.000Z</time>
      </trkpt>
      <trkpt lat="45.97879" lon="1.30432">
        <ele>544</ele>
        <time>2018-06-17T09:19:00.000Z</time>
      </trkpt>
      <trkpt lat="45.97876" lon="1.3043">
        <ele>544</ele>
        <time>2018-06-17T09:19:01.000Z</time>
      </trkpt>
      <trkpt lat="45.97863" lon="1.30419">
        <ele>545</ele>
        <time>2018-06-17T09:19:06.000Z</time>
      </trkpt>
      <trkpt lat="45.97836" lon="1.30405">
        <ele>546</ele>
        <time>2018-06-17T09:19:15.000Z</time>
      </trkpt>
      <trkpt lat="45.97821" lon="1.30402">
        <ele>546</ele>
        <time>2018-06-17T09:19:19.000Z</time>
      </trkpt>
      <trkpt lat="45.97776" lon="1.30382">
        <ele>543</ele>
        <time>2018-06-17T09:19:28.000Z</time>
      </trkpt>
      <trkpt lat="45.9777" lon="1.3038">
        <ele>542</ele>
        <time>2018-06-17T09:19:29.000Z</time>
      </trkpt>
      <trkpt lat="45.97763" lon="1.30378">
        <ele>542</ele>
        <time>2018-06-17T09:19:30.000Z</time>
      </trkpt>
      <trkpt lat="45.97738" lon="1.3037">
        <ele>540</ele>
        <time>2018-06-17T09:19:34.000Z</time>
      </trkpt>
      <trkpt lat="45.97705" lon="1.30352">
        <ele>538</ele>
        <time>2018-06-17T09:19:39.000Z</time>
      </trkpt>
      <trkpt lat="45.97673" lon="1.30336">
        <ele>536</ele>
        <time>2018-06-17T09:19:45.000Z</time>
      </trkpt>
      <trkpt lat="45.97655" lon="1.30318">
        <ele>536</ele>
        <time>2018-06-17T09:19:50.000Z</time>
      </trkpt>
      <trkpt lat="45.97613" lon="1.30295">
        <ele>537</ele>
        <time>2018-06-17T09:20:02.000Z</time>
      </trkpt>
      <trkpt lat="45.97609" lon="1.30293">
        <ele>538</ele>
        <time>2018-06-17T09:20:03.000Z</time>
      </trkpt>
      <trkpt lat="45.97572" lon="1.30266">
        <ele>540</ele>
        <time>2018-06-17T09:20:15.000Z</time>
      </trkpt>
      <trkpt lat="45.97569" lon="1.30263">
        <ele>540</ele>
        <time>2018-06-17T09:20:16.000Z</time>
      </trkpt>
      <trkpt lat="45.97559" lon="1.30251">
        <ele>541</ele>
        <time>2018-06-17T09:20:23.000Z</time>
      </trkpt>
      <trkpt lat="45.97548" lon="1.30252">
        <ele>536</ele>
        <time>2018-06-17T09:22:08.000Z</time>
      </trkpt>
      <trkpt lat="45.97552" lon="1.30245">
        <ele>542</ele>
        <time>2018-06-17T09:24:30.000Z</time>
      </trkpt>
      <trkpt lat="45.9756" lon="1.30229">
        <ele>542</ele>
        <time>2018-06-17T09:24:36.000Z</time>
      </trkpt>
      <trkpt lat="45.97575" lon="1.30167">
        <ele>543</ele>
        <time>2018-06-17T09:24:58.000Z</time>
      </trkpt>
      <trkpt lat="45.97576" lon="1.30164">
        <ele>543</ele>
        <time>2018-06-17T09:24:59.000Z</time>
      </trkpt>
      <trkpt lat="45.97582" lon="1.30133">
        <ele>542</ele>
        <time>2018-06-17T09:25:05.000Z</time>
      </trkpt>
      <trkpt lat="45.97586" lon="1.30068">
        <ele>539</ele>
        <time>2018-06-17T09:25:13.000Z</time>
      </trkpt>
      <trkpt lat="45.97585" lon="1.30058">
        <ele>539</ele>
        <time>2018-06-17T09:25:14.000Z</time>
      </trkpt>
      <trkpt lat="45.97566" lon="1.29998">
        <ele>535</ele>
        <time>2018-06-17T09:25:20.000Z</time>
      </trkpt>
      <trkpt lat="45.97563" lon="1.29988">
        <ele>535</ele>
        <time>2018-06-17T09:25:21.000Z</time>
      </trkpt>
      <trkpt lat="45.97556" lon="1.29969">
        <ele>533</ele>
        <time>2018-06-17T09:25:23.000Z</time>
      </trkpt>
      <trkpt lat="45.97538" lon="1.29899">
        <ele>530</ele>
        <time>2018-06-17T09:25:30.000Z</time>
      </trkpt>
      <trkpt lat="45.97536" lon="1.29889">
        <ele>530</ele>
        <time>2018-06-17T09:25:31.000Z</time>
      </trkpt>
      <trkpt lat="45.97532" lon="1.2987">
        <ele>529</ele>
        <time>2018-06-17T09:25:33.000Z</time>
      </trkpt>
      <trkpt lat="45.97521" lon="1.29806">
        <ele>527</ele>
        <time>2018-06-17T09:25:41.000Z</time>
      </trkpt>
      <trkpt lat="45.9752" lon="1.298">
        <ele>526</ele>
        <time>2018-06-17T09:25:42.000Z</time>
      </trkpt>
      <trkpt lat="45.97515" lon="1.29788">
        <ele>525</ele>
        <time>2018-06-17T09:25:44.000Z</time>
      </trkpt>
      <trkpt lat="45.97503" lon="1.29759">
        <ele>523</ele>
        <time>2018-06-17T09:25:50.000Z</time>
      </trkpt>
      <trkpt lat="45.97502" lon="1.29748">
        <ele>523</ele>
        <time>2018-06-17T09:25:52.000Z</time>
      </trkpt>
      <trkpt lat="45.97504" lon="1.29729">
        <ele>523</ele>
        <time>2018-06-17T09:25:55.000Z</time>
      </trkpt>
      <trkpt lat="45.97511" lon="1.29709">
        <ele>523</ele>
        <time>2018-06-17T09:25:59.000Z</time>
      </trkpt>
      <trkpt lat="45.97515" lon="1.29686">
        <ele>524</ele>
        <time>2018-06-17T09:26:03.000Z</time>
      </trkpt>
      <trkpt lat="45.97511" lon="1.29677">
        <ele>525</ele>
        <time>2018-06-17T09:26:05.000Z</time>
      </trkpt>
      <trkpt lat="45.97486" lon="1.29669">
        <ele>529</ele>
        <time>2018-06-17T09:26:11.000Z</time>
      </trkpt>
      <trkpt lat="45.97461" lon="1.29667">
        <ele>531</ele>
        <time>2018-06-17T09:26:17.000Z</time>
      </trkpt>
      <trkpt lat="45.97415" lon="1.29678">
        <ele>533</ele>
        <time>2018-06-17T09:26:27.000Z</time>
      </trkpt>
      <trkpt lat="45.97411" lon="1.2968">
        <ele>533</ele>
        <time>2018-06-17T09:26:28.000Z</time>
      </trkpt>
      <trkpt lat="45.97382" lon="1.29691">
        <ele>534</ele>
        <time>2018-06-17T09:26:34.000Z</time>
      </trkpt>
      <trkpt lat="45.97363" lon="1.29708">
        <ele>534</ele>
        <time>2018-06-17T09:26:38.000Z</time>
      </trkpt>
      <trkpt lat="45.97351" lon="1.29718">
        <ele>534</ele>
        <time>2018-06-17T09:26:40.000Z</time>
      </trkpt>
      <trkpt lat="45.97327" lon="1.29719">
        <ele>533</ele>
        <time>2018-06-17T09:26:43.000Z</time>
      </trkpt>
      <trkpt lat="45.97313" lon="1.29709">
        <ele>533</ele>
        <time>2018-06-17T09:26:45.000Z</time>
      </trkpt>
      <trkpt lat="45.97285" lon="1.29671">
        <ele>534</ele>
        <time>2018-06-17T09:26:51.000Z</time>
      </trkpt>
      <trkpt lat="45.97264" lon="1.29656">
        <ele>534</ele>
        <time>2018-06-17T09:26:56.000Z</time>
      </trkpt>
      <trkpt lat="45.97256" lon="1.29654">
        <ele>534</ele>
        <time>2018-06-17T09:26:58.000Z</time>
      </trkpt>
      <trkpt lat="45.97209" lon="1.29653">
        <ele>533</ele>
        <time>2018-06-17T09:27:09.000Z</time>
      </trkpt>
      <trkpt lat="45.97206" lon="1.29654">
        <ele>533</ele>
        <time>2018-06-17T09:27:10.000Z</time>
      </trkpt>
      <trkpt lat="45.97196" lon="1.29656">
        <ele>534</ele>
        <time>2018-06-17T09:27:14.000Z</time>
      </trkpt>
      <trkpt lat="45.97174" lon="1.29657">
        <ele>537</ele>
        <time>2018-06-17T09:27:24.000Z</time>
      </trkpt>
      <trkpt lat="45.97166" lon="1.29654">
        <ele>539</ele>
        <time>2018-06-17T09:27:27.000Z</time>
      </trkpt>
      <trkpt lat="45.9716" lon="1.29648">
        <ele>540</ele>
        <time>2018-06-17T09:27:30.000Z</time>
      </trkpt>
      <trkpt lat="45.9715" lon="1.29642">
        <ele>541</ele>
        <time>2018-06-17T09:27:35.000Z</time>
      </trkpt>
      <trkpt lat="45.97104" lon="1.29634">
        <ele>544</ele>
        <time>2018-06-17T09:28:01.000Z</time>
      </trkpt>
      <trkpt lat="45.97103" lon="1.29634">
        <ele>544</ele>
        <time>2018-06-17T09:28:02.000Z</time>
      </trkpt>
      <trkpt lat="45.971" lon="1.29634">
        <ele>544</ele>
        <time>2018-06-17T09:28:04.000Z</time>
      </trkpt>
      <trkpt lat="45.97094" lon="1.29634">
        <ele>544</ele>
        <time>2018-06-17T09:28:08.000Z</time>
      </trkpt>
      <trkpt lat="45.97049" lon="1.29643">
        <ele>551</ele>
        <time>2018-06-17T09:28:37.000Z</time>
      </trkpt>
      <trkpt lat="45.97048" lon="1.29643">
        <ele>552</ele>
        <time>2018-06-17T09:28:38.000Z</time>
      </trkpt>
      <trkpt lat="45.97036" lon="1.29645">
        <ele>558</ele>
        <time>2018-06-17T09:28:48.000Z</time>
      </trkpt>
      <trkpt lat="45.97" lon="1.29658">
        <ele>568</ele>
        <time>2018-06-17T09:29:13.000Z</time>
      </trkpt>
      <trkpt lat="45.96985" lon="1.29668">
        <ele>567</ele>
        <time>2018-06-17T09:29:27.000Z</time>
      </trkpt>
      <trkpt lat="45.96975" lon="1.29673">
        <ele>569</ele>
        <time>2018-06-17T09:29:36.000Z</time>
      </trkpt>
      <trkpt lat="45.96968" lon="1.29676">
        <ele>571</ele>
        <time>2018-06-17T09:29:42.000Z</time>
      </trkpt>
      <trkpt lat="45.96949" lon="1.29684">
        <ele>573</ele>
        <time>2018-06-17T09:29:57.000Z</time>
      </trkpt>
      <trkpt lat="45.96926" lon="1.29682">
        <ele>572</ele>
        <time>2018-06-17T09:30:09.000Z</time>
      </trkpt>
      <trkpt lat="45.96915" lon="1.2968">
        <ele>571</ele>
        <time>2018-06-17T09:30:13.000Z</time>
      </trkpt>
      <trkpt lat="45.96884" lon="1.29671">
        <ele>571</ele>
        <time>2018-06-17T09:30:23.000Z</time>
      </trkpt>
      <trkpt lat="45.96867" lon="1.29657">
        <ele>572</ele>
        <time>2018-06-17T09:30:29.000Z</time>
      </trkpt>
      <trkpt lat="45.9686" lon="1.29647">
        <ele>571</ele>
        <time>2018-06-17T09:30:32.000Z</time>
      </trkpt>
      <trkpt lat="45.9685" lon="1.29625">
        <ele>571</ele>
        <time>2018-06-17T09:30:38.000Z</time>
      </trkpt>
      <trkpt lat="45.96843" lon="1.29599">
        <ele>570</ele>
        <time>2018-06-17T09:30:44.000Z</time>
      </trkpt>
      <trkpt lat="45.96838" lon="1.29563">
        <ele>568</ele>
        <time>2018-06-17T09:30:53.000Z</time>
      </trkpt>
      <trkpt lat="45.96828" lon="1.2953">
        <ele>567</ele>
        <time>2018-06-17T09:31:01.000Z</time>
      </trkpt>
      <trkpt lat="45.96799" lon="1.29473">
        <ele>568</ele>
        <time>2018-06-17T09:31:13.000Z</time>
      </trkpt>
      <trkpt lat="45.96796" lon="1.29469">
        <ele>568</ele>
        <time>2018-06-17T09:31:14.000Z</time>
      </trkpt>
      <trkpt lat="45.96772" lon="1.29438">
        <ele>570</ele>
        <time>2018-06-17T09:31:21.000Z</time>
      </trkpt>
      <trkpt lat="45.96734" lon="1.294">
        <ele>570</ele>
        <time>2018-06-17T09:31:31.000Z</time>
      </trkpt>
      <trkpt lat="45.9673" lon="1.29396">
        <ele>570</ele>
        <time>2018-06-17T09:31:32.000Z</time>
      </trkpt>
      <trkpt lat="45.96691" lon="1.29365">
        <ele>569</ele>
        <time>2018-06-17T09:31:40.000Z</time>
      </trkpt>
      <trkpt lat="45.96685" lon="1.29363">
        <ele>569</ele>
        <time>2018-06-17T09:31:41.000Z</time>
      </trkpt>
      <trkpt lat="45.96667" lon="1.29359">
        <ele>568</ele>
        <time>2018-06-17T09:31:44.000Z</time>
      </trkpt>
      <trkpt lat="45.9665" lon="1.29362">
        <ele>567</ele>
        <time>2018-06-17T09:31:47.000Z</time>
      </trkpt>
      <trkpt lat="45.96601" lon="1.29382">
        <ele>562</ele>
        <time>2018-06-17T09:31:54.000Z</time>
      </trkpt>
      <trkpt lat="45.96593" lon="1.29382">
        <ele>562</ele>
        <time>2018-06-17T09:31:55.000Z</time>
      </trkpt>
      <trkpt lat="45.96562" lon="1.29387">
        <ele>559</ele>
        <time>2018-06-17T09:31:59.000Z</time>
      </trkpt>
      <trkpt lat="45.9652" lon="1.29383">
        <ele>550</ele>
        <time>2018-06-17T09:32:07.000Z</time>
      </trkpt>
      <trkpt lat="45.96516" lon="1.29381">
        <ele>550</ele>
        <time>2018-06-17T09:32:08.000Z</time>
      </trkpt>
      <trkpt lat="45.96501" lon="1.29369">
        <ele>547</ele>
        <time>2018-06-17T09:32:12.000Z</time>
      </trkpt>
      <trkpt lat="45.96496" lon="1.29357">
        <ele>546</ele>
        <time>2018-06-17T09:32:15.000Z</time>
      </trkpt>
      <trkpt lat="45.96497" lon="1.29342">
        <ele>545</ele>
        <time>2018-06-17T09:32:18.000Z</time>
      </trkpt>
      <trkpt lat="45.965" lon="1.29333">
        <ele>543</ele>
        <time>2018-06-17T09:32:20.000Z</time>
      </trkpt>
      <trkpt lat="45.96509" lon="1.29316">
        <ele>540</ele>
        <time>2018-06-17T09:32:25.000Z</time>
      </trkpt>
      <trkpt lat="45.96524" lon="1.29289">
        <ele>536</ele>
        <time>2018-06-17T09:32:30.000Z</time>
      </trkpt>
      <trkpt lat="45.96533" lon="1.29249">
        <ele>532</ele>
        <time>2018-06-17T09:32:36.000Z</time>
      </trkpt>
      <trkpt lat="45.96526" lon="1.29242">
        <ele>533</ele>
        <time>2018-06-17T09:32:38.000Z</time>
      </trkpt>
      <trkpt lat="45.96517" lon="1.29242">
        <ele>533</ele>
        <time>2018-06-17T09:32:40.000Z</time>
      </trkpt>
      <trkpt lat="45.96487" lon="1.29238">
        <ele>535</ele>
        <time>2018-06-17T09:32:46.000Z</time>
      </trkpt>
      <trkpt lat="45.9644" lon="1.29223">
        <ele>535</ele>
        <time>2018-06-17T09:32:55.000Z</time>
      </trkpt>
      <trkpt lat="45.96434" lon="1.29221">
        <ele>535</ele>
        <time>2018-06-17T09:32:56.000Z</time>
      </trkpt>
      <trkpt lat="45.96426" lon="1.29215">
        <ele>535</ele>
        <time>2018-06-17T09:32:58.000Z</time>
      </trkpt>
      <trkpt lat="45.96421" lon="1.292">
        <ele>532</ele>
        <time>2018-06-17T09:33:06.000Z</time>
      </trkpt>
      <trkpt lat="45.96422" lon="1.29193">
        <ele>531</ele>
        <time>2018-06-17T09:33:10.000Z</time>
      </trkpt>
      <trkpt lat="45.9642" lon="1.29183">
        <ele>530</ele>
        <time>2018-06-17T09:33:19.000Z</time>
      </trkpt>
      <trkpt lat="45.96415" lon="1.2916">
        <ele>529</ele>
        <time>2018-06-17T09:33:31.000Z</time>
      </trkpt>
      <trkpt lat="45.96412" lon="1.29153">
        <ele>529</ele>
        <time>2018-06-17T09:33:33.000Z</time>
      </trkpt>
      <trkpt lat="45.96405" lon="1.29128">
        <ele>527</ele>
        <time>2018-06-17T09:33:39.000Z</time>
      </trkpt>
      <trkpt lat="45.96401" lon="1.29099">
        <ele>526</ele>
        <time>2018-06-17T09:33:46.000Z</time>
      </trkpt>
      <trkpt lat="45.96413" lon="1.29036">
        <ele>531</ele>
        <time>2018-06-17T09:34:14.000Z</time>
      </trkpt>
      <trkpt lat="45.96414" lon="1.29034">
        <ele>531</ele>
        <time>2018-06-17T09:34:15.000Z</time>
      </trkpt>
      <trkpt lat="45.96416" lon="1.29022">
        <ele>535</ele>
        <time>2018-06-17T09:34:22.000Z</time>
      </trkpt>
      <trkpt lat="45.96418" lon="1.29005">
        <ele>536</ele>
        <time>2018-06-17T09:34:27.000Z</time>
      </trkpt>
      <trkpt lat="45.96428" lon="1.28991">
        <ele>536</ele>
        <time>2018-06-17T09:34:32.000Z</time>
      </trkpt>
      <trkpt lat="45.96428" lon="1.2898">
        <ele>535</ele>
        <time>2018-06-17T09:34:34.000Z</time>
      </trkpt>
      <trkpt lat="45.96421" lon="1.2895">
        <ele>532</ele>
        <time>2018-06-17T09:34:39.000Z</time>
      </trkpt>
      <trkpt lat="45.96419" lon="1.28938">
        <ele>531</ele>
        <time>2018-06-17T09:34:41.000Z</time>
      </trkpt>
      <trkpt lat="45.96418" lon="1.28919">
        <ele>531</ele>
        <time>2018-06-17T09:34:46.000Z</time>
      </trkpt>
      <trkpt lat="45.964" lon="1.2891">
        <ele>535</ele>
        <time>2018-06-17T09:34:54.000Z</time>
      </trkpt>
      <trkpt lat="45.96371" lon="1.28919">
        <ele>538</ele>
        <time>2018-06-17T09:35:02.000Z</time>
      </trkpt>
      <trkpt lat="45.9636" lon="1.28925">
        <ele>538</ele>
        <time>2018-06-17T09:35:05.000Z</time>
      </trkpt>
      <trkpt lat="45.9635" lon="1.28932">
        <ele>538</ele>
        <time>2018-06-17T09:35:08.000Z</time>
      </trkpt>
      <trkpt lat="45.96331" lon="1.28949">
        <ele>536</ele>
        <time>2018-06-17T09:35:14.000Z</time>
      </trkpt>
      <trkpt lat="45.96311" lon="1.2896">
        <ele>532</ele>
        <time>2018-06-17T09:35:23.000Z</time>
      </trkpt>
      <trkpt lat="45.96299" lon="1.28952">
        <ele>530</ele>
        <time>2018-06-17T09:35:28.000Z</time>
      </trkpt>
      <trkpt lat="45.96288" lon="1.28945">
        <ele>530</ele>
        <time>2018-06-17T09:35:32.000Z</time>
      </trkpt>
      <trkpt lat="45.96275" lon="1.28938">
        <ele>531</ele>
        <time>2018-06-17T09:35:37.000Z</time>
      </trkpt>
      <trkpt lat="45.9626" lon="1.28926">
        <ele>533</ele>
        <time>2018-06-17T09:35:42.000Z</time>
      </trkpt>
      <trkpt lat="45.96244" lon="1.28898">
        <ele>535</ele>
        <time>2018-06-17T09:35:48.000Z</time>
      </trkpt>
      <trkpt lat="45.96232" lon="1.28847">
        <ele>535</ele>
        <time>2018-06-17T09:35:56.000Z</time>
      </trkpt>
      <trkpt lat="45.9622" lon="1.28781">
        <ele>535</ele>
        <time>2018-06-17T09:36:05.000Z</time>
      </trkpt>
      <trkpt lat="45.96218" lon="1.28773">
        <ele>535</ele>
        <time>2018-06-17T09:36:06.000Z</time>
      </trkpt>
      <trkpt lat="45.96214" lon="1.28728">
        <ele>534</ele>
        <time>2018-06-17T09:36:11.000Z</time>
      </trkpt>
      <trkpt lat="45.9621" lon="1.28691">
        <ele>533</ele>
        <time>2018-06-17T09:36:18.000Z</time>
      </trkpt>
      <trkpt lat="45.962" lon="1.28701">
        <ele>532</ele>
        <time>2018-06-17T09:36:22.000Z</time>
      </trkpt>
      <trkpt lat="45.9617" lon="1.28744">
        <ele>530</ele>
        <time>2018-06-17T09:36:31.000Z</time>
      </trkpt>
      <trkpt lat="45.9617" lon="1.28752">
        <ele>529</ele>
        <time>2018-06-17T09:36:32.000Z</time>
      </trkpt>
      <trkpt lat="45.96169" lon="1.28824">
        <ele>525</ele>
        <time>2018-06-17T09:36:40.000Z</time>
      </trkpt>
      <trkpt lat="45.96168" lon="1.28833">
        <ele>525</ele>
        <time>2018-06-17T09:36:41.000Z</time>
      </trkpt>
      <trkpt lat="45.96159" lon="1.28904">
        <ele>521</ele>
        <time>2018-06-17T09:36:48.000Z</time>
      </trkpt>
      <trkpt lat="45.96156" lon="1.28915">
        <ele>521</ele>
        <time>2018-06-17T09:36:49.000Z</time>
      </trkpt>
      <trkpt lat="45.96146" lon="1.28946">
        <ele>518</ele>
        <time>2018-06-17T09:36:52.000Z</time>
      </trkpt>
      <trkpt lat="45.96133" lon="1.28978">
        <ele>515</ele>
        <time>2018-06-17T09:36:56.000Z</time>
      </trkpt>
      <trkpt lat="45.96124" lon="1.28982">
        <ele>513</ele>
        <time>2018-06-17T09:36:58.000Z</time>
      </trkpt>
      <trkpt lat="45.96083" lon="1.2899">
        <ele>508</ele>
        <time>2018-06-17T09:37:05.000Z</time>
      </trkpt>
      <trkpt lat="45.96077" lon="1.28988">
        <ele>507</ele>
        <time>2018-06-17T09:37:06.000Z</time>
      </trkpt>
      <trkpt lat="45.96061" lon="1.28992">
        <ele>504</ele>
        <time>2018-06-17T09:37:09.000Z</time>
      </trkpt>
      <trkpt lat="45.96024" lon="1.29032">
        <ele>496</ele>
        <time>2018-06-17T09:37:19.000Z</time>
      </trkpt>
      <trkpt lat="45.9602" lon="1.29034">
        <ele>495</ele>
        <time>2018-06-17T09:37:20.000Z</time>
      </trkpt>
      <trkpt lat="45.95984" lon="1.29056">
        <ele>490</ele>
        <time>2018-06-17T09:37:27.000Z</time>
      </trkpt>
      <trkpt lat="45.95971" lon="1.29067">
        <ele>489</ele>
        <time>2018-06-17T09:37:30.000Z</time>
      </trkpt>
      <trkpt lat="45.95953" lon="1.29078">
        <ele>486</ele>
        <time>2018-06-17T09:37:35.000Z</time>
      </trkpt>
      <trkpt lat="45.95911" lon="1.29113">
        <ele>482</ele>
        <time>2018-06-17T09:37:44.000Z</time>
      </trkpt>
      <trkpt lat="45.95907" lon="1.29117">
        <ele>482</ele>
        <time>2018-06-17T09:37:45.000Z</time>
      </trkpt>
      <trkpt lat="45.95898" lon="1.2912">
        <ele>481</ele>
        <time>2018-06-17T09:37:47.000Z</time>
      </trkpt>
      <trkpt lat="45.95886" lon="1.29116">
        <ele>479</ele>
        <time>2018-06-17T09:37:50.000Z</time>
      </trkpt>
      <trkpt lat="45.9588" lon="1.29107">
        <ele>477</ele>
        <time>2018-06-17T09:37:53.000Z</time>
      </trkpt>
      <trkpt lat="45.95879" lon="1.29098">
        <ele>477</ele>
        <time>2018-06-17T09:37:55.000Z</time>
      </trkpt>
      <trkpt lat="45.95873" lon="1.29082">
        <ele>476</ele>
        <time>2018-06-17T09:37:58.000Z</time>
      </trkpt>
      <trkpt lat="45.95867" lon="1.29084">
        <ele>474</ele>
        <time>2018-06-17T09:38:01.000Z</time>
      </trkpt>
      <trkpt lat="45.95862" lon="1.29112">
        <ele>471</ele>
        <time>2018-06-17T09:38:07.000Z</time>
      </trkpt>
      <trkpt lat="45.95854" lon="1.29152">
        <ele>467</ele>
        <time>2018-06-17T09:38:12.000Z</time>
      </trkpt>
      <trkpt lat="45.95849" lon="1.29171">
        <ele>464</ele>
        <time>2018-06-17T09:38:15.000Z</time>
      </trkpt>
      <trkpt lat="45.95853" lon="1.29218">
        <ele>458</ele>
        <time>2018-06-17T09:38:22.000Z</time>
      </trkpt>
      <trkpt lat="45.95853" lon="1.29227">
        <ele>458</ele>
        <time>2018-06-17T09:38:24.000Z</time>
      </trkpt>
      <trkpt lat="45.95858" lon="1.29236">
        <ele>458</ele>
        <time>2018-06-17T09:38:26.000Z</time>
      </trkpt>
      <trkpt lat="45.95868" lon="1.29243">
        <ele>460</ele>
        <time>2018-06-17T09:38:29.000Z</time>
      </trkpt>
      <trkpt lat="45.95879" lon="1.29249">
        <ele>461</ele>
        <time>2018-06-17T09:38:33.000Z</time>
      </trkpt>
      <trkpt lat="45.95885" lon="1.29266">
        <ele>461</ele>
        <time>2018-06-17T09:38:36.000Z</time>
      </trkpt>
      <trkpt lat="45.95884" lon="1.29279">
        <ele>461</ele>
        <time>2018-06-17T09:38:39.000Z</time>
      </trkpt>
      <trkpt lat="45.95877" lon="1.29282">
        <ele>460</ele>
        <time>2018-06-17T09:38:41.000Z</time>
      </trkpt>
      <trkpt lat="45.95829" lon="1.29291">
        <ele>453</ele>
        <time>2018-06-17T09:38:50.000Z</time>
      </trkpt>
      <trkpt lat="45.95824" lon="1.29294">
        <ele>452</ele>
        <time>2018-06-17T09:38:51.000Z</time>
      </trkpt>
      <trkpt lat="45.95812" lon="1.29308">
        <ele>449</ele>
        <time>2018-06-17T09:38:54.000Z</time>
      </trkpt>
      <trkpt lat="45.95805" lon="1.2933">
        <ele>444</ele>
        <time>2018-06-17T09:38:57.000Z</time>
      </trkpt>
      <trkpt lat="45.95801" lon="1.29351">
        <ele>439</ele>
        <time>2018-06-17T09:39:00.000Z</time>
      </trkpt>
      <trkpt lat="45.95797" lon="1.29358">
        <ele>436</ele>
        <time>2018-06-17T09:39:02.000Z</time>
      </trkpt>
      <trkpt lat="45.95783" lon="1.29373">
        <ele>430</ele>
        <time>2018-06-17T09:39:07.000Z</time>
      </trkpt>
      <trkpt lat="45.95774" lon="1.29379">
        <ele>428</ele>
        <time>2018-06-17T09:39:10.000Z</time>
      </trkpt>
      <trkpt lat="45.95758" lon="1.29379">
        <ele>425</ele>
        <time>2018-06-17T09:39:15.000Z</time>
      </trkpt>
      <trkpt lat="45.95751" lon="1.29373">
        <ele>422</ele>
        <time>2018-06-17T09:39:18.000Z</time>
      </trkpt>
      <trkpt lat="45.95737" lon="1.29369">
        <ele>419</ele>
        <time>2018-06-17T09:39:22.000Z</time>
      </trkpt>
      <trkpt lat="45.9573" lon="1.29374">
        <ele>417</ele>
        <time>2018-06-17T09:39:24.000Z</time>
      </trkpt>
      <trkpt lat="45.95723" lon="1.29377">
        <ele>416</ele>
        <time>2018-06-17T09:39:26.000Z</time>
      </trkpt>
      <trkpt lat="45.9571" lon="1.29381">
        <ele>415</ele>
        <time>2018-06-17T09:39:29.000Z</time>
      </trkpt>
      <trkpt lat="45.95703" lon="1.29385">
        <ele>414</ele>
        <time>2018-06-17T09:39:31.000Z</time>
      </trkpt>
      <trkpt lat="45.95672" lon="1.2941">
        <ele>414</ele>
        <time>2018-06-17T09:39:40.000Z</time>
      </trkpt>
      <trkpt lat="45.95661" lon="1.29411">
        <ele>414</ele>
        <time>2018-06-17T09:39:43.000Z</time>
      </trkpt>
      <trkpt lat="45.9564" lon="1.29399">
        <ele>413</ele>
        <time>2018-06-17T09:39:50.000Z</time>
      </trkpt>
      <trkpt lat="45.95626" lon="1.29385">
        <ele>414</ele>
        <time>2018-06-17T09:39:55.000Z</time>
      </trkpt>
      <trkpt lat="45.95607" lon="1.29368">
        <ele>414</ele>
        <time>2018-06-17T09:40:01.000Z</time>
      </trkpt>
      <trkpt lat="45.95577" lon="1.29354">
        <ele>415</ele>
        <time>2018-06-17T09:40:08.000Z</time>
      </trkpt>
      <trkpt lat="45.95529" lon="1.29353">
        <ele>418</ele>
        <time>2018-06-17T09:40:16.000Z</time>
      </trkpt>
      <trkpt lat="45.95521" lon="1.29354">
        <ele>419</ele>
        <time>2018-06-17T09:40:17.000Z</time>
      </trkpt>
      <trkpt lat="45.95488" lon="1.29363">
        <ele>419</ele>
        <time>2018-06-17T09:40:22.000Z</time>
      </trkpt>
      <trkpt lat="45.95457" lon="1.29386">
        <ele>419</ele>
        <time>2018-06-17T09:40:27.000Z</time>
      </trkpt>
      <trkpt lat="45.95415" lon="1.2943">
        <ele>418</ele>
        <time>2018-06-17T09:40:34.000Z</time>
      </trkpt>
      <trkpt lat="45.9541" lon="1.29438">
        <ele>417</ele>
        <time>2018-06-17T09:40:35.000Z</time>
      </trkpt>
      <trkpt lat="45.95394" lon="1.29456">
        <ele>416</ele>
        <time>2018-06-17T09:40:38.000Z</time>
      </trkpt>
      <trkpt lat="45.95373" lon="1.29467">
        <ele>414</ele>
        <time>2018-06-17T09:40:41.000Z</time>
      </trkpt>
      <trkpt lat="45.95329" lon="1.29486">
        <ele>413</ele>
        <time>2018-06-17T09:40:48.000Z</time>
      </trkpt>
      <trkpt lat="45.95323" lon="1.29489">
        <ele>413</ele>
        <time>2018-06-17T09:40:49.000Z</time>
      </trkpt>
      <trkpt lat="45.95281" lon="1.295">
        <ele>412</ele>
        <time>2018-06-17T09:40:56.000Z</time>
      </trkpt>
      <trkpt lat="45.95276" lon="1.295">
        <ele>411</ele>
        <time>2018-06-17T09:40:57.000Z</time>
      </trkpt>
      <trkpt lat="45.95242" lon="1.29503">
        <ele>407</ele>
        <time>2018-06-17T09:41:04.000Z</time>
      </trkpt>
      <trkpt lat="45.9523" lon="1.29509">
        <ele>407</ele>
        <time>2018-06-17T09:41:07.000Z</time>
      </trkpt>
      <trkpt lat="45.95218" lon="1.29526">
        <ele>405</ele>
        <time>2018-06-17T09:41:11.000Z</time>
      </trkpt>
      <trkpt lat="45.95201" lon="1.29553">
        <ele>406</ele>
        <time>2018-06-17T09:41:19.000Z</time>
      </trkpt>
      <trkpt lat="45.95168" lon="1.29576">
        <ele>409</ele>
        <time>2018-06-17T09:41:34.000Z</time>
      </trkpt>
      <trkpt lat="45.95126" lon="1.29606">
        <ele>413</ele>
        <time>2018-06-17T09:41:48.000Z</time>
      </trkpt>
      <trkpt lat="45.95123" lon="1.29608">
        <ele>413</ele>
        <time>2018-06-17T09:41:49.000Z</time>
      </trkpt>
      <trkpt lat="45.95093" lon="1.29626">
        <ele>413</ele>
        <time>2018-06-17T09:41:58.000Z</time>
      </trkpt>
      <trkpt lat="45.95081" lon="1.29626">
        <ele>413</ele>
        <time>2018-06-17T09:42:02.000Z</time>
      </trkpt>
      <trkpt lat="45.95071" lon="1.29622">
        <ele>413</ele>
        <time>2018-06-17T09:42:05.000Z</time>
      </trkpt>
      <trkpt lat="45.95049" lon="1.29613">
        <ele>413</ele>
        <time>2018-06-17T09:42:11.000Z</time>
      </trkpt>
      <trkpt lat="45.95023" lon="1.29612">
        <ele>413</ele>
        <time>2018-06-17T09:42:16.000Z</time>
      </trkpt>
      <trkpt lat="45.95009" lon="1.2962">
        <ele>412</ele>
        <time>2018-06-17T09:42:19.000Z</time>
      </trkpt>
      <trkpt lat="45.94972" lon="1.2964">
        <ele>412</ele>
        <time>2018-06-17T09:42:26.000Z</time>
      </trkpt>
      <trkpt lat="45.94966" lon="1.29641">
        <ele>412</ele>
        <time>2018-06-17T09:42:27.000Z</time>
      </trkpt>
      <trkpt lat="45.94933" lon="1.29651">
        <ele>411</ele>
        <time>2018-06-17T09:42:32.000Z</time>
      </trkpt>
      <trkpt lat="45.94907" lon="1.29667">
        <ele>409</ele>
        <time>2018-06-17T09:42:36.000Z</time>
      </trkpt>
      <trkpt lat="45.94855" lon="1.29655">
        <ele>404</ele>
        <time>2018-06-17T09:42:43.000Z</time>
      </trkpt>
      <trkpt lat="45.94848" lon="1.29652">
        <ele>404</ele>
        <time>2018-06-17T09:42:44.000Z</time>
      </trkpt>
      <trkpt lat="45.94814" lon="1.29629">
        <ele>401</ele>
        <time>2018-06-17T09:42:49.000Z</time>
      </trkpt>
      <trkpt lat="45.94791" lon="1.29606">
        <ele>400</ele>
        <time>2018-06-17T09:42:54.000Z</time>
      </trkpt>
      <trkpt lat="45.94755" lon="1.29569">
        <ele>401</ele>
        <time>2018-06-17T09:43:07.000Z</time>
      </trkpt>
      <trkpt lat="45.94754" lon="1.29567">
        <ele>401</ele>
        <time>2018-06-17T09:43:08.000Z</time>
      </trkpt>
      <trkpt lat="45.94751" lon="1.29557">
        <ele>402</ele>
        <time>2018-06-17T09:43:11.000Z</time>
      </trkpt>
      <trkpt lat="45.94749" lon="1.29545">
        <ele>404</ele>
        <time>2018-06-17T09:43:14.000Z</time>
      </trkpt>
      <trkpt lat="45.94748" lon="1.29532">
        <ele>406</ele>
        <time>2018-06-17T09:43:17.000Z</time>
      </trkpt>
      <trkpt lat="45.94749" lon="1.29462">
        <ele>412</ele>
        <time>2018-06-17T09:43:31.000Z</time>
      </trkpt>
      <trkpt lat="45.94751" lon="1.29452">
        <ele>412</ele>
        <time>2018-06-17T09:43:32.000Z</time>
      </trkpt>
      <trkpt lat="45.94775" lon="1.29406">
        <ele>413</ele>
        <time>2018-06-17T09:43:38.000Z</time>
      </trkpt>
      <trkpt lat="45.94779" lon="1.294">
        <ele>414</ele>
        <time>2018-06-17T09:43:39.000Z</time>
      </trkpt>
      <trkpt lat="45.9481" lon="1.29358">
        <ele>416</ele>
        <time>2018-06-17T09:43:46.000Z</time>
      </trkpt>
      <trkpt lat="45.94815" lon="1.29353">
        <ele>416</ele>
        <time>2018-06-17T09:43:47.000Z</time>
      </trkpt>
      <trkpt lat="45.94852" lon="1.29307">
        <ele>416</ele>
        <time>2018-06-17T09:43:55.000Z</time>
      </trkpt>
      <trkpt lat="45.94857" lon="1.29303">
        <ele>416</ele>
        <time>2018-06-17T09:43:56.000Z</time>
      </trkpt>
      <trkpt lat="45.94861" lon="1.29299">
        <ele>416</ele>
        <time>2018-06-17T09:43:57.000Z</time>
      </trkpt>
      <trkpt lat="45.94903" lon="1.2927">
        <ele>414</ele>
        <time>2018-06-17T09:44:04.000Z</time>
      </trkpt>
      <trkpt lat="45.94911" lon="1.29265">
        <ele>413</ele>
        <time>2018-06-17T09:44:05.000Z</time>
      </trkpt>
      <trkpt lat="45.94925" lon="1.2926">
        <ele>411</ele>
        <time>2018-06-17T09:44:07.000Z</time>
      </trkpt>
      <trkpt lat="45.94938" lon="1.29255">
        <ele>410</ele>
        <time>2018-06-17T09:44:09.000Z</time>
      </trkpt>
      <trkpt lat="45.94944" lon="1.29248">
        <ele>408</ele>
        <time>2018-06-17T09:44:11.000Z</time>
      </trkpt>
      <trkpt lat="45.94947" lon="1.29235">
        <ele>407</ele>
        <time>2018-06-17T09:44:13.000Z</time>
      </trkpt>
      <trkpt lat="45.94955" lon="1.29214">
        <ele>405</ele>
        <time>2018-06-17T09:44:16.000Z</time>
      </trkpt>
      <trkpt lat="45.9498" lon="1.2917">
        <ele>401</ele>
        <time>2018-06-17T09:44:23.000Z</time>
      </trkpt>
      <trkpt lat="45.95002" lon="1.29163">
        <ele>399</ele>
        <time>2018-06-17T09:44:32.000Z</time>
      </trkpt>
      <trkpt lat="45.95047" lon="1.29148">
        <ele>401</ele>
        <time>2018-06-17T09:44:44.000Z</time>
      </trkpt>
      <trkpt lat="45.95052" lon="1.29145">
        <ele>400</ele>
        <time>2018-06-17T09:44:45.000Z</time>
      </trkpt>
      <trkpt lat="45.95061" lon="1.29136">
        <ele>399</ele>
        <time>2018-06-17T09:44:49.000Z</time>
      </trkpt>
      <trkpt lat="45.95025" lon="1.29111">
        <ele>398</ele>
        <time>2018-06-17T09:45:00.000Z</time>
      </trkpt>
      <trkpt lat="45.95008" lon="1.29109">
        <ele>397</ele>
        <time>2018-06-17T09:45:04.000Z</time>
      </trkpt>
      <trkpt lat="45.94996" lon="1.29108">
        <ele>396</ele>
        <time>2018-06-17T09:45:07.000Z</time>
      </trkpt>
      <trkpt lat="45.94976" lon="1.29106">
        <ele>395</ele>
        <time>2018-06-17T09:45:11.000Z</time>
      </trkpt>
      <trkpt lat="45.94961" lon="1.29103">
        <ele>395</ele>
        <time>2018-06-17T09:45:14.000Z</time>
      </trkpt>
      <trkpt lat="45.94954" lon="1.29091">
        <ele>395</ele>
        <time>2018-06-17T09:45:16.000Z</time>
      </trkpt>
      <trkpt lat="45.94942" lon="1.29064">
        <ele>395</ele>
        <time>2018-06-17T09:45:20.000Z</time>
      </trkpt>
      <trkpt lat="45.9493" lon="1.29058">
        <ele>395</ele>
        <time>2018-06-17T09:45:23.000Z</time>
      </trkpt>
      <trkpt lat="45.94921" lon="1.29064">
        <ele>395</ele>
        <time>2018-06-17T09:45:25.000Z</time>
      </trkpt>
      <trkpt lat="45.94878" lon="1.29082">
        <ele>400</ele>
        <time>2018-06-17T09:45:41.000Z</time>
      </trkpt>
      <trkpt lat="45.94876" lon="1.29083">
        <ele>400</ele>
        <time>2018-06-17T09:45:42.000Z</time>
      </trkpt>
      <trkpt lat="45.94862" lon="1.2909">
        <ele>402</ele>
        <time>2018-06-17T09:45:48.000Z</time>
      </trkpt>
      <trkpt lat="45.94847" lon="1.29092">
        <ele>404</ele>
        <time>2018-06-17T09:45:56.000Z</time>
      </trkpt>
      <trkpt lat="45.94814" lon="1.29087">
        <ele>407</ele>
        <time>2018-06-17T09:46:17.000Z</time>
      </trkpt>
      <trkpt lat="45.94806" lon="1.29083">
        <ele>406</ele>
        <time>2018-06-17T09:46:23.000Z</time>
      </trkpt>
      <trkpt lat="45.9479" lon="1.29078">
        <ele>407</ele>
        <time>2018-06-17T09:46:35.000Z</time>
      </trkpt>
      <trkpt lat="45.94777" lon="1.29075">
        <ele>410</ele>
        <time>2018-06-17T09:46:45.000Z</time>
      </trkpt>
      <trkpt lat="45.94764" lon="1.29074">
        <ele>414</ele>
        <time>2018-06-17T09:46:57.000Z</time>
      </trkpt>
      <trkpt lat="45.9474" lon="1.29071">
        <ele>414</ele>
        <time>2018-06-17T09:47:16.000Z</time>
      </trkpt>
      <trkpt lat="45.94732" lon="1.29068">
        <ele>416</ele>
        <time>2018-06-17T09:47:22.000Z</time>
      </trkpt>
      <trkpt lat="45.94726" lon="1.29063">
        <ele>418</ele>
        <time>2018-06-17T09:47:27.000Z</time>
      </trkpt>
      <trkpt lat="45.94722" lon="1.29059">
        <ele>418</ele>
        <time>2018-06-17T09:47:31.000Z</time>
      </trkpt>
      <trkpt lat="45.94701" lon="1.29035">
        <ele>418</ele>
        <time>2018-06-17T09:47:51.000Z</time>
      </trkpt>
      <trkpt lat="45.94694" lon="1.29025">
        <ele>418</ele>
        <time>2018-06-17T09:47:57.000Z</time>
      </trkpt>
      <trkpt lat="45.94664" lon="1.28975">
        <ele>414</ele>
        <time>2018-06-17T09:48:14.000Z</time>
      </trkpt>
      <trkpt lat="45.9466" lon="1.2897">
        <ele>413</ele>
        <time>2018-06-17T09:48:15.000Z</time>
      </trkpt>
      <trkpt lat="45.94627" lon="1.28914">
        <ele>408</ele>
        <time>2018-06-17T09:48:22.000Z</time>
      </trkpt>
      <trkpt lat="45.94622" lon="1.28906">
        <ele>408</ele>
        <time>2018-06-17T09:48:23.000Z</time>
      </trkpt>
      <trkpt lat="45.94616" lon="1.28893">
        <ele>408</ele>
        <time>2018-06-17T09:48:25.000Z</time>
      </trkpt>
      <trkpt lat="45.94618" lon="1.28884">
        <ele>408</ele>
        <time>2018-06-17T09:48:27.000Z</time>
      </trkpt>
      <trkpt lat="45.94625" lon="1.28881">
        <ele>407</ele>
        <time>2018-06-17T09:48:30.000Z</time>
      </trkpt>
      <trkpt lat="45.94662" lon="1.2889">
        <ele>409</ele>
        <time>2018-06-17T09:48:40.000Z</time>
      </trkpt>
      <trkpt lat="45.94672" lon="1.28883">
        <ele>409</ele>
        <time>2018-06-17T09:48:43.000Z</time>
      </trkpt>
      <trkpt lat="45.94697" lon="1.28853">
        <ele>409</ele>
        <time>2018-06-17T09:48:52.000Z</time>
      </trkpt>
      <trkpt lat="45.94706" lon="1.28841">
        <ele>409</ele>
        <time>2018-06-17T09:48:56.000Z</time>
      </trkpt>
      <trkpt lat="45.9472" lon="1.28823">
        <ele>410</ele>
        <time>2018-06-17T09:49:02.000Z</time>
      </trkpt>
      <trkpt lat="45.94729" lon="1.28801">
        <ele>411</ele>
        <time>2018-06-17T09:49:08.000Z</time>
      </trkpt>
      <trkpt lat="45.94736" lon="1.28779">
        <ele>413</ele>
        <time>2018-06-17T09:49:15.000Z</time>
      </trkpt>
      <trkpt lat="45.94747" lon="1.28747">
        <ele>416</ele>
        <time>2018-06-17T09:49:25.000Z</time>
      </trkpt>
      <trkpt lat="45.94761" lon="1.28728">
        <ele>418</ele>
        <time>2018-06-17T09:49:34.000Z</time>
      </trkpt>
      <trkpt lat="45.94777" lon="1.28717">
        <ele>421</ele>
        <time>2018-06-17T09:49:44.000Z</time>
      </trkpt>
      <trkpt lat="45.94789" lon="1.28713">
        <ele>425</ele>
        <time>2018-06-17T09:49:52.000Z</time>
      </trkpt>
      <trkpt lat="45.94828" lon="1.28698">
        <ele>428</ele>
        <time>2018-06-17T09:50:18.000Z</time>
      </trkpt>
      <trkpt lat="45.94842" lon="1.28682">
        <ele>428</ele>
        <time>2018-06-17T09:50:24.000Z</time>
      </trkpt>
      <trkpt lat="45.94847" lon="1.28671">
        <ele>427</ele>
        <time>2018-06-17T09:50:26.000Z</time>
      </trkpt>
      <trkpt lat="45.94849" lon="1.28659">
        <ele>427</ele>
        <time>2018-06-17T09:50:28.000Z</time>
      </trkpt>
      <trkpt lat="45.94852" lon="1.28622">
        <ele>425</ele>
        <time>2018-06-17T09:50:34.000Z</time>
      </trkpt>
      <trkpt lat="45.9485" lon="1.28606">
        <ele>423</ele>
        <time>2018-06-17T09:50:36.000Z</time>
      </trkpt>
      <trkpt lat="45.94846" lon="1.28542">
        <ele>420</ele>
        <time>2018-06-17T09:50:43.000Z</time>
      </trkpt>
      <trkpt lat="45.94849" lon="1.28535">
        <ele>420</ele>
        <time>2018-06-17T09:50:44.000Z</time>
      </trkpt>
      <trkpt lat="45.94853" lon="1.28529">
        <ele>420</ele>
        <time>2018-06-17T09:50:45.000Z</time>
      </trkpt>
      <trkpt lat="45.94875" lon="1.28519">
        <ele>419</ele>
        <time>2018-06-17T09:50:49.000Z</time>
      </trkpt>
      <trkpt lat="45.94914" lon="1.28507">
        <ele>419</ele>
        <time>2018-06-17T09:50:56.000Z</time>
      </trkpt>
      <trkpt lat="45.9492" lon="1.28503">
        <ele>419</ele>
        <time>2018-06-17T09:50:57.000Z</time>
      </trkpt>
      <trkpt lat="45.94931" lon="1.28491">
        <ele>418</ele>
        <time>2018-06-17T09:50:59.000Z</time>
      </trkpt>
      <trkpt lat="45.94954" lon="1.28452">
        <ele>418</ele>
        <time>2018-06-17T09:51:05.000Z</time>
      </trkpt>
      <trkpt lat="45.94967" lon="1.28408">
        <ele>419</ele>
        <time>2018-06-17T09:51:11.000Z</time>
      </trkpt>
      <trkpt lat="45.94962" lon="1.28397">
        <ele>419</ele>
        <time>2018-06-17T09:51:13.000Z</time>
      </trkpt>
      <trkpt lat="45.94953" lon="1.28393">
        <ele>419</ele>
        <time>2018-06-17T09:51:15.000Z</time>
      </trkpt>
      <trkpt lat="45.94928" lon="1.28394">
        <ele>418</ele>
        <time>2018-06-17T09:51:20.000Z</time>
      </trkpt>
      <trkpt lat="45.94915" lon="1.28401">
        <ele>418</ele>
        <time>2018-06-17T09:51:23.000Z</time>
      </trkpt>
      <trkpt lat="45.94869" lon="1.28432">
        <ele>416</ele>
        <time>2018-06-17T09:51:32.000Z</time>
      </trkpt>
      <trkpt lat="45.94864" lon="1.28434">
        <ele>416</ele>
        <time>2018-06-17T09:51:33.000Z</time>
      </trkpt>
      <trkpt lat="45.94836" lon="1.28441">
        <ele>415</ele>
        <time>2018-06-17T09:51:38.000Z</time>
      </trkpt>
      <trkpt lat="45.94789" lon="1.28433">
        <ele>414</ele>
        <time>2018-06-17T09:51:46.000Z</time>
      </trkpt>
      <trkpt lat="45.94782" lon="1.28432">
        <ele>414</ele>
        <time>2018-06-17T09:51:47.000Z</time>
      </trkpt>
      <trkpt lat="45.94733" lon="1.28422">
        <ele>413</ele>
        <time>2018-06-17T09:51:55.000Z</time>
      </trkpt>
      <trkpt lat="45.94727" lon="1.28421">
        <ele>413</ele>
        <time>2018-06-17T09:51:56.000Z</time>
      </trkpt>
      <trkpt lat="45.94717" lon="1.28416">
        <ele>413</ele>
        <time>2018-06-17T09:51:58.000Z</time>
      </trkpt>
      <trkpt lat="45.94709" lon="1.28406">
        <ele>413</ele>
        <time>2018-06-17T09:52:00.000Z</time>
      </trkpt>
      <trkpt lat="45.94687" lon="1.28346">
        <ele>412</ele>
        <time>2018-06-17T09:52:09.000Z</time>
      </trkpt>
      <trkpt lat="45.94686" lon="1.2834">
        <ele>412</ele>
        <time>2018-06-17T09:52:10.000Z</time>
      </trkpt>
      <trkpt lat="45.94687" lon="1.28327">
        <ele>412</ele>
        <time>2018-06-17T09:52:12.000Z</time>
      </trkpt>
      <trkpt lat="45.94688" lon="1.28313">
        <ele>413</ele>
        <time>2018-06-17T09:52:14.000Z</time>
      </trkpt>
      <trkpt lat="45.94685" lon="1.28293">
        <ele>413</ele>
        <time>2018-06-17T09:52:17.000Z</time>
      </trkpt>
      <trkpt lat="45.94679" lon="1.28292">
        <ele>414</ele>
        <time>2018-06-17T09:52:19.000Z</time>
      </trkpt>
      <trkpt lat="45.94665" lon="1.28297">
        <ele>415</ele>
        <time>2018-06-17T09:52:24.000Z</time>
      </trkpt>
      <trkpt lat="45.94637" lon="1.28312">
        <ele>418</ele>
        <time>2018-06-17T09:52:36.000Z</time>
      </trkpt>
      <trkpt lat="45.94623" lon="1.28306">
        <ele>420</ele>
        <time>2018-06-17T09:52:41.000Z</time>
      </trkpt>
      <trkpt lat="45.94587" lon="1.28279">
        <ele>424</ele>
        <time>2018-06-17T09:52:56.000Z</time>
      </trkpt>
      <trkpt lat="45.94547" lon="1.28237">
        <ele>424</ele>
        <time>2018-06-17T09:53:10.000Z</time>
      </trkpt>
      <trkpt lat="45.94544" lon="1.28233">
        <ele>424</ele>
        <time>2018-06-17T09:53:11.000Z</time>
      </trkpt>
      <trkpt lat="45.94525" lon="1.28204">
        <ele>424</ele>
        <time>2018-06-17T09:53:18.000Z</time>
      </trkpt>
      <trkpt lat="45.94497" lon="1.28145">
        <ele>422</ele>
        <time>2018-06-17T09:53:29.000Z</time>
      </trkpt>
      <trkpt lat="45.94493" lon="1.28137">
        <ele>422</ele>
        <time>2018-06-17T09:53:30.000Z</time>
      </trkpt>
      <trkpt lat="45.9446" lon="1.28073">
        <ele>416</ele>
        <time>2018-06-17T09:53:36.000Z</time>
      </trkpt>
      <trkpt lat="45.94454" lon="1.28062">
        <ele>415</ele>
        <time>2018-06-17T09:53:37.000Z</time>
      </trkpt>
      <trkpt lat="45.94424" lon="1.28008">
        <ele>413</ele>
        <time>2018-06-17T09:53:42.000Z</time>
      </trkpt>
      <trkpt lat="45.94418" lon="1.28">
        <ele>412</ele>
        <time>2018-06-17T09:53:43.000Z</time>
      </trkpt>
      <trkpt lat="45.9441" lon="1.27994">
        <ele>412</ele>
        <time>2018-06-17T09:53:44.000Z</time>
      </trkpt>
      <trkpt lat="45.94386" lon="1.2799">
        <ele>412</ele>
        <time>2018-06-17T09:53:47.000Z</time>
      </trkpt>
      <trkpt lat="45.9435" lon="1.27999">
        <ele>412</ele>
        <time>2018-06-17T09:53:52.000Z</time>
      </trkpt>
      <trkpt lat="45.94318" lon="1.28019">
        <ele>413</ele>
        <time>2018-06-17T09:53:58.000Z</time>
      </trkpt>
      <trkpt lat="45.94312" lon="1.28017">
        <ele>413</ele>
        <time>2018-06-17T09:54:00.000Z</time>
      </trkpt>
      <trkpt lat="45.94309" lon="1.28005">
        <ele>413</ele>
        <time>2018-06-17T09:54:04.000Z</time>
      </trkpt>
      <trkpt lat="45.94316" lon="1.28003">
        <ele>413</ele>
        <time>2018-06-17T09:54:08.000Z</time>
      </trkpt>
      <trkpt lat="45.94315" lon="1.28017">
        <ele>412</ele>
        <time>2018-06-17T09:54:13.000Z</time>
      </trkpt>
      <trkpt lat="45.94304" lon="1.28029">
        <ele>413</ele>
        <time>2018-06-17T09:54:31.000Z</time>
      </trkpt>
      <trkpt lat="45.94293" lon="1.28096">
        <ele>414</ele>
        <time>2018-06-17T09:54:45.000Z</time>
      </trkpt>
      <trkpt lat="45.94292" lon="1.28101">
        <ele>414</ele>
        <time>2018-06-17T09:54:46.000Z</time>
      </trkpt>
      <trkpt lat="45.94284" lon="1.28132">
        <ele>415</ele>
        <time>2018-06-17T09:54:53.000Z</time>
      </trkpt>
      <trkpt lat="45.9427" lon="1.28169">
        <ele>417</ele>
        <time>2018-06-17T09:55:03.000Z</time>
      </trkpt>
      <trkpt lat="45.94262" lon="1.28187">
        <ele>418</ele>
        <time>2018-06-17T09:55:08.000Z</time>
      </trkpt>
      <trkpt lat="45.94258" lon="1.28199">
        <ele>419</ele>
        <time>2018-06-17T09:55:11.000Z</time>
      </trkpt>
      <trkpt lat="45.94241" lon="1.28231">
        <ele>420</ele>
        <time>2018-06-17T09:55:22.000Z</time>
      </trkpt>
      <trkpt lat="45.94235" lon="1.28235">
        <ele>420</ele>
        <time>2018-06-17T09:55:26.000Z</time>
      </trkpt>
      <trkpt lat="45.94236" lon="1.28229">
        <ele>426</ele>
        <time>2018-06-17T09:59:23.000Z</time>
      </trkpt>
      <trkpt lat="45.94238" lon="1.28235">
        <ele>425</ele>
        <time>2018-06-17T09:59:30.000Z</time>
      </trkpt>
      <trkpt lat="45.94215" lon="1.28297">
        <ele>424</ele>
        <time>2018-06-17T09:59:52.000Z</time>
      </trkpt>
      <trkpt lat="45.94213" lon="1.28304">
        <ele>423</ele>
        <time>2018-06-17T09:59:53.000Z</time>
      </trkpt>
      <trkpt lat="45.94193" lon="1.28368">
        <ele>419</ele>
        <time>2018-06-17T10:00:01.000Z</time>
      </trkpt>
      <trkpt lat="45.94189" lon="1.28377">
        <ele>419</ele>
        <time>2018-06-17T10:00:02.000Z</time>
      </trkpt>
      <trkpt lat="45.94173" lon="1.28422">
        <ele>415</ele>
        <time>2018-06-17T10:00:10.000Z</time>
      </trkpt>
      <trkpt lat="45.94165" lon="1.28419">
        <ele>415</ele>
        <time>2018-06-17T10:00:13.000Z</time>
      </trkpt>
      <trkpt lat="45.94157" lon="1.28411">
        <ele>414</ele>
        <time>2018-06-17T10:00:17.000Z</time>
      </trkpt>
      <trkpt lat="45.94149" lon="1.28406">
        <ele>414</ele>
        <time>2018-06-17T10:00:21.000Z</time>
      </trkpt>
      <trkpt lat="45.94147" lon="1.28414">
        <ele>413</ele>
        <time>2018-06-17T10:00:35.000Z</time>
      </trkpt>
      <trkpt lat="45.94143" lon="1.28417">
        <ele>412</ele>
        <time>2018-06-17T10:11:02.000Z</time>
      </trkpt>
      <trkpt lat="45.94145" lon="1.28413">
        <ele>413</ele>
        <time>2018-06-17T10:11:53.000Z</time>
      </trkpt>
      <trkpt lat="45.94149" lon="1.28409">
        <ele>413</ele>
        <time>2018-06-17T10:12:00.000Z</time>
      </trkpt>
      <trkpt lat="45.94166" lon="1.28426">
        <ele>413</ele>
        <time>2018-06-17T10:12:07.000Z</time>
      </trkpt>
      <trkpt lat="45.94172" lon="1.28422">
        <ele>414</ele>
        <time>2018-06-17T10:12:09.000Z</time>
      </trkpt>
      <trkpt lat="45.94181" lon="1.28406">
        <ele>414</ele>
        <time>2018-06-17T10:12:13.000Z</time>
      </trkpt>
      <trkpt lat="45.94202" lon="1.28347">
        <ele>418</ele>
        <time>2018-06-17T10:12:30.000Z</time>
      </trkpt>
      <trkpt lat="45.94202" lon="1.28344">
        <ele>419</ele>
        <time>2018-06-17T10:12:31.000Z</time>
      </trkpt>
      <trkpt lat="45.94223" lon="1.28284">
        <ele>423</ele>
        <time>2018-06-17T10:12:50.000Z</time>
      </trkpt>
      <trkpt lat="45.94223" lon="1.2828">
        <ele>423</ele>
        <time>2018-06-17T10:12:51.000Z</time>
      </trkpt>
      <trkpt lat="45.94224" lon="1.28277">
        <ele>423</ele>
        <time>2018-06-17T10:12:52.000Z</time>
      </trkpt>
      <trkpt lat="45.9423" lon="1.28253">
        <ele>424</ele>
        <time>2018-06-17T10:12:59.000Z</time>
      </trkpt>
      <trkpt lat="45.94229" lon="1.28246">
        <ele>424</ele>
        <time>2018-06-17T10:13:01.000Z</time>
      </trkpt>
      <trkpt lat="45.94213" lon="1.28237">
        <ele>424</ele>
        <time>2018-06-17T10:13:07.000Z</time>
      </trkpt>
      <trkpt lat="45.94165" lon="1.28234">
        <ele>423</ele>
        <time>2018-06-17T10:13:19.000Z</time>
      </trkpt>
      <trkpt lat="45.94161" lon="1.28233">
        <ele>423</ele>
        <time>2018-06-17T10:13:20.000Z</time>
      </trkpt>
      <trkpt lat="45.94131" lon="1.28234">
        <ele>423</ele>
        <time>2018-06-17T10:13:28.000Z</time>
      </trkpt>
      <trkpt lat="45.9412" lon="1.28239">
        <ele>422</ele>
        <time>2018-06-17T10:13:31.000Z</time>
      </trkpt>
      <trkpt lat="45.94115" lon="1.28247">
        <ele>429</ele>
        <time>2018-06-17T10:18:09.000Z</time>
      </trkpt>
      <trkpt lat="45.94115" lon="1.28248">
        <ele>429</ele>
        <time>2018-06-17T10:21:43.000Z</time>
      </trkpt>
    </trkseg>
  </trk>
</gpx>